Wetterdaten: Freitag, 21.04.2017
Datum Zeit Temp. A. Feuchte A. Luftdruck Regen Wind Richtung Richtung Taupunkt Windben Empfang
21.04.2017 00:00 5,8 C 66 % 1032,0 hPa 0,0 l/m 0,0 km/h (0 Bft) W 265 -0,0 C 0,0 km/h (0 Bft) 100 %
21.04.2017 00:01 5,7 C 66 % 1032,0 hPa 0,0 l/m 0,0 km/h (0 Bft) W 265 -0,1 C 0,0 km/h (0 Bft) 100 %
21.04.2017 00:02 5,7 C 65 % 1032,0 hPa 0,0 l/m 0,0 km/h (0 Bft) W 265 -0,4 C 0,0 km/h (0 Bft) 100 %
21.04.2017 00:03 5,7 C 66 % 1032,0 hPa 0,0 l/m 0,0 km/h (0 Bft) W 265 -0,1 C 0,0 km/h (0 Bft) 100 %
21.04.2017 00:04 5,7 C 66 % 1032,0 hPa 0,0 l/m 0,0 km/h (0 Bft) W 265 -0,1 C 0,0 km/h (0 Bft) 100 %
21.04.2017 00:05 5,7 C 67 % 1032,0 hPa 0,0 l/m 0,0 km/h (0 Bft) W-SW 238 0,1 C 0,0 km/h (0 Bft) 100 %
21.04.2017 00:06 5,7 C 65 % 1032,0 hPa 0,0 l/m 0,9 km/h (0 Bft) W 267 -0,4 C 3,1 km/h (1 Bft) 100 %
21.04.2017 00:07 5,7 C 66 % 1032,0 hPa 0,0 l/m 0,0 km/h (0 Bft) W 267 -0,1 C 0,0 km/h (0 Bft) 100 %
21.04.2017 00:08 5,6 C 66 % 1032,0 hPa 0,0 l/m 0,0 km/h (0 Bft) W 267 -0,2 C 0,0 km/h (0 Bft) 100 %
21.04.2017 00:09 5,6 C 66 % 1032,0 hPa 0,0 l/m 0,2 km/h (0 Bft) W 267 -0,2 C 3,1 km/h (1 Bft) 100 %
21.04.2017 00:10 5,6 C 66 % 1032,0 hPa 0,0 l/m 0,0 km/h (0 Bft) W 267 -0,2 C 0,0 km/h (0 Bft) 100 %
21.04.2017 00:11 5,6 C 66 % 1031,9 hPa 0,0 l/m 0,2 km/h (0 Bft) W 267 -0,2 C 3,1 km/h (1 Bft) 100 %
21.04.2017 00:12 5,6 C 67 % 1032,0 hPa 0,0 l/m 0,0 km/h (0 Bft) SW 231 -0,0 C 0,0 km/h (0 Bft) 100 %
21.04.2017 00:13 5,5 C 66 % 1032,0 hPa 0,0 l/m 0,1 km/h (0 Bft) W 270 -0,3 C 3,1 km/h (1 Bft) 100 %
21.04.2017 00:14 5,5 C 66 % 1032,0 hPa 0,0 l/m 0,0 km/h (0 Bft) W 274 -0,3 C 0,0 km/h (0 Bft) 100 %
21.04.2017 00:15 5,5 C 66 % 1031,9 hPa 0,0 l/m 0,0 km/h (0 Bft) W 274 -0,3 C 0,0 km/h (0 Bft) 100 %
21.04.2017 00:16 5,4 C 67 % 1031,9 hPa 0,0 l/m 0,0 km/h (0 Bft) NW 305 -0,2 C 0,0 km/h (0 Bft) 100 %
21.04.2017 00:17 5,4 C 68 % 1031,9 hPa 0,0 l/m 0,0 km/h (0 Bft) NW 305 -0,0 C 0,0 km/h (0 Bft) 100 %
21.04.2017 00:18 5,4 C 67 % 1031,9 hPa 0,0 l/m 0,0 km/h (0 Bft) NW 305 -0,2 C 0,0 km/h (0 Bft) 100 %
21.04.2017 00:19 5,4 C 68 % 1031,9 hPa 0,0 l/m 0,0 km/h (0 Bft) NW 305 -0,0 C 0,0 km/h (0 Bft) 100 %
21.04.2017 00:20 5,4 C 67 % 1031,9 hPa 0,0 l/m 0,2 km/h (0 Bft) W 271 -0,2 C 3,1 km/h (1 Bft) 100 %
21.04.2017 00:21 5,4 C 67 % 1031,9 hPa 0,0 l/m 0,0 km/h (0 Bft) W 271 -0,2 C 0,0 km/h (0 Bft) 100 %
21.04.2017 00:22 5,4 C 67 % 1031,9 hPa 0,0 l/m 0,0 km/h (0 Bft) W-NW 288 -0,2 C 0,0 km/h (0 Bft) 100 %
21.04.2017 00:23 5,4 C 67 % 1031,9 hPa 0,0 l/m 0,1 km/h (0 Bft) W-NW 288 -0,2 C 3,1 km/h (1 Bft) 100 %
21.04.2017 00:24 5,3 C 67 % 1032,0 hPa 0,0 l/m 0,0 km/h (0 Bft) W-NW 288 -0,3 C 0,0 km/h (0 Bft) 100 %
21.04.2017 00:25 5,3 C 67 % 1032,0 hPa 0,0 l/m 0,3 km/h (0 Bft) W-NW 288 -0,3 C 3,1 km/h (1 Bft) 100 %
21.04.2017 00:26 5,3 C 67 % 1032,0 hPa 0,0 l/m 0,0 km/h (0 Bft) W-NW 288 -0,3 C 0,0 km/h (0 Bft) 100 %
21.04.2017 00:27 5,3 C 67 % 1031,9 hPa 0,0 l/m 0,5 km/h (0 Bft) W-SW 246 -0,3 C 3,1 km/h (1 Bft) 100 %
21.04.2017 00:28 5,3 C 67 % 1032,0 hPa 0,0 l/m 1,4 km/h (1 Bft) NW 304 -0,3 C 3,1 km/h (1 Bft) 100 %
21.04.2017 00:29 5,3 C 68 % 1031,9 hPa 0,0 l/m 0,0 km/h (0 Bft) NW 304 -0,1 C 0,0 km/h (0 Bft) 100 %
21.04.2017 00:30 5,3 C 68 % 1031,9 hPa 0,0 l/m 0,0 km/h (0 Bft) NW 304 -0,1 C 0,0 km/h (0 Bft) 100 %
21.04.2017 00:31 5,3 C 68 % 1031,9 hPa 0,0 l/m 0,0 km/h (0 Bft) W-NW 295 -0,1 C 0,0 km/h (0 Bft) 100 %
21.04.2017 00:32 5,3 C 68 % 1032,0 hPa 0,0 l/m 0,0 km/h (0 Bft) W-NW 295 -0,1 C 0,0 km/h (0 Bft) 100 %
21.04.2017 00:33 5,2 C 68 % 1032,0 hPa 0,0 l/m 0,1 km/h (0 Bft) W-NW 297 -0,2 C 3,1 km/h (1 Bft) 100 %
21.04.2017 00:34 5,2 C 68 % 1031,9 hPa 0,0 l/m 0,2 km/h (0 Bft) W-NW 297 -0,2 C 3,1 km/h (1 Bft) 100 %
21.04.2017 00:35 5,2 C 69 % 1031,9 hPa 0,0 l/m 0,0 km/h (0 Bft) W 278 -0,0 C 0,0 km/h (0 Bft) 100 %
21.04.2017 00:37 5,2 C 68 % 1031,9 hPa 0,0 l/m 0,0 km/h (0 Bft) W 281 -0,2 C 0,0 km/h (0 Bft) 100 %
21.04.2017 00:38 5,2 C 69 % 1031,9 hPa 0,0 l/m 0,2 km/h (0 Bft) W 278 -0,0 C 3,1 km/h (1 Bft) 100 %
21.04.2017 00:39 5,2 C 69 % 1031,9 hPa 0,0 l/m 0,0 km/h (0 Bft) W 278 -0,0 C 0,0 km/h (0 Bft) 100 %
21.04.2017 00:40 5,1 C 69 % 1031,9 hPa 0,0 l/m 0,4 km/h (0 Bft) W 281 -0,1 C 3,1 km/h (1 Bft) 100 %
21.04.2017 00:41 5,1 C 69 % 1031,9 hPa 0,0 l/m 0,0 km/h (0 Bft) W 277 -0,1 C 0,0 km/h (0 Bft) 100 %
21.04.2017 00:42 5,1 C 70 % 1031,9 hPa 0,0 l/m 0,0 km/h (0 Bft) SW 233 0,1 C 0,0 km/h (0 Bft) 100 %
21.04.2017 00:43 5,1 C 70 % 1032,0 hPa 0,0 l/m 0,3 km/h (0 Bft) W 260 0,1 C 3,1 km/h (1 Bft) 100 %
21.04.2017 00:44 5,1 C 70 % 1032,0 hPa 0,0 l/m 1,1 km/h (1 Bft) W-SW 252 0,1 C 3,1 km/h (1 Bft) 100 %
21.04.2017 00:45 5,0 C 70 % 1032,0 hPa 0,0 l/m 0,0 km/h (0 Bft) W 264 -0,0 C 0,0 km/h (0 Bft) 100 %
21.04.2017 00:46 5,0 C 70 % 1032,0 hPa 0,0 l/m 0,3 km/h (0 Bft) W-NW 294 -0,0 C 3,1 km/h (1 Bft) 100 %
21.04.2017 00:47 5,0 C 70 % 1031,9 hPa 0,0 l/m 0,3 km/h (0 Bft) W 271 -0,0 C 3,1 km/h (1 Bft) 100 %
21.04.2017 00:48 4,9 C 70 % 1031,9 hPa 0,0 l/m 0,3 km/h (0 Bft) W 271 -0,1 C 3,1 km/h (1 Bft) 100 %
21.04.2017 00:49 4,9 C 70 % 1031,9 hPa 0,0 l/m 0,0 km/h (0 Bft) W 276 -0,1 C 0,0 km/h (0 Bft) 100 %
21.04.2017 00:50 4,9 C 70 % 1031,9 hPa 0,0 l/m 0,0 km/h (0 Bft) W 276 -0,1 C 0,0 km/h (0 Bft) 100 %
21.04.2017 00:51 4,9 C 70 % 1031,9 hPa 0,0 l/m 0,5 km/h (0 Bft) S-SW 195 -0,1 C 3,1 km/h (1 Bft) 100 %
21.04.2017 00:52 4,9 C 70 % 1031,9 hPa 0,0 l/m 0,7 km/h (0 Bft) W-SW 238 -0,1 C 3,1 km/h (1 Bft) 100 %
21.04.2017 00:53 4,9 C 70 % 1031,9 hPa 0,0 l/m 0,0 km/h (0 Bft) W-SW 240 -0,1 C 0,0 km/h (0 Bft) 100 %
21.04.2017 00:54 4,9 C 71 % 1031,8 hPa 0,0 l/m 0,8 km/h (0 Bft) W-SW 248 0,1 C 3,1 km/h (1 Bft) 100 %
21.04.2017 00:55 4,8 C 71 % 1031,8 hPa 0,0 l/m 0,1 km/h (0 Bft) W 275 -0,0 C 3,1 km/h (1 Bft) 100 %
21.04.2017 00:56 4,8 C 71 % 1031,8 hPa 0,0 l/m 0,0 km/h (0 Bft) W 275 -0,0 C 0,0 km/h (0 Bft) 100 %
21.04.2017 00:57 4,8 C 71 % 1031,9 hPa 0,0 l/m 0,0 km/h (0 Bft) W 275 -0,0 C 0,0 km/h (0 Bft) 96 %
21.04.2017 00:58 4,8 C 71 % 1031,9 hPa 0,0 l/m 0,1 km/h (0 Bft) W-NW 284 -0,0 C 3,1 km/h (1 Bft) 100 %
21.04.2017 00:59 4,8 C 71 % 1031,9 hPa 0,0 l/m 0,2 km/h (0 Bft) W 277 -0,0 C 3,1 km/h (1 Bft) 100 %
21.04.2017 01:00 4,8 C 71 % 1031,8 hPa 0,0 l/m 0,1 km/h (0 Bft) W 276 -0,0 C 3,1 km/h (1 Bft) 100 %
21.04.2017 01:01 4,8 C 71 % 1031,9 hPa 0,0 l/m 2,4 km/h (1 Bft) W 259 -0,0 C 3,1 km/h (1 Bft) 100 %
21.04.2017 01:02 4,8 C 71 % 1031,9 hPa 0,0 l/m 0,1 km/h (0 Bft) S-SW 194 -0,0 C 3,1 km/h (1 Bft) 100 %
21.04.2017 01:03 4,8 C 71 % 1031,8 hPa 0,0 l/m 0,0 km/h (0 Bft) W 269 -0,0 C 0,0 km/h (0 Bft) 100 %
21.04.2017 01:04 4,8 C 71 % 1031,8 hPa 0,0 l/m 0,1 km/h (0 Bft) S-SW 211 -0,0 C 3,1 km/h (1 Bft) 100 %
21.04.2017 01:05 4,8 C 71 % 1031,8 hPa 0,0 l/m 0,0 km/h (0 Bft) S-SW 211 -0,0 C 0,0 km/h (0 Bft) 100 %
21.04.2017 01:06 4,8 C 71 % 1031,8 hPa 0,0 l/m 0,0 km/h (0 Bft) W-SW 256 -0,0 C 0,0 km/h (0 Bft) 100 %
21.04.2017 01:07 4,8 C 71 % 1031,8 hPa 0,0 l/m 0,0 km/h (0 Bft) W-SW 253 -0,0 C 0,0 km/h (0 Bft) 100 %
21.04.2017 01:08 4,8 C 71 % 1031,8 hPa 0,0 l/m 0,1 km/h (0 Bft) W-SW 250 -0,0 C 3,1 km/h (1 Bft) 100 %
21.04.2017 01:09 4,7 C 71 % 1031,8 hPa 0,0 l/m 0,0 km/h (0 Bft) W-SW 250 -0,1 C 0,0 km/h (0 Bft) 100 %
21.04.2017 01:10 4,7 C 72 % 1031,8 hPa 0,0 l/m 0,0 km/h (0 Bft) W-SW 250 0,1 C 0,0 km/h (0 Bft) 100 %
21.04.2017 01:11 4,7 C 71 % 1031,7 hPa 0,0 l/m 0,1 km/h (0 Bft) W-SW 250 -0,1 C 3,1 km/h (1 Bft) 100 %
21.04.2017 01:12 4,7 C 72 % 1031,7 hPa 0,0 l/m 0,1 km/h (0 Bft) W-SW 254 0,1 C 3,1 km/h (1 Bft) 100 %
21.04.2017 01:13 4,7 C 71 % 1031,7 hPa 0,0 l/m 0,0 km/h (0 Bft) SW 236 -0,1 C 0,0 km/h (0 Bft) 100 %
21.04.2017 01:14 4,7 C 72 % 1031,7 hPa 0,0 l/m 0,0 km/h (0 Bft) SW 235 0,1 C 0,0 km/h (0 Bft) 100 %
21.04.2017 01:15 4,7 C 72 % 1031,7 hPa 0,0 l/m 0,0 km/h (0 Bft) SW 235 0,1 C 0,0 km/h (0 Bft) 100 %
21.04.2017 01:16 4,7 C 72 % 1031,7 hPa 0,0 l/m 0,0 km/h (0 Bft) SW 236 0,1 C 0,0 km/h (0 Bft) 100 %
21.04.2017 01:17 4,7 C 72 % 1031,7 hPa 0,0 l/m 0,1 km/h (0 Bft) S-SW 212 0,1 C 3,1 km/h (1 Bft) 100 %
21.04.2017 01:18 4,6 C 72 % 1031,7 hPa 0,0 l/m 0,0 km/h (0 Bft) S-SW 212 -0,0 C 0,0 km/h (0 Bft) 100 %
21.04.2017 01:19 4,6 C 72 % 1031,7 hPa 0,0 l/m 0,3 km/h (0 Bft) W-SW 247 -0,0 C 3,1 km/h (1 Bft) 100 %
21.04.2017 01:20 4,6 C 73 % 1031,7 hPa 0,0 l/m 0,3 km/h (0 Bft) W 275 0,2 C 3,1 km/h (1 Bft) 100 %
21.04.2017 01:21 4,6 C 73 % 1031,7 hPa 0,0 l/m 0,1 km/h (0 Bft) SW 235 0,2 C 3,1 km/h (1 Bft) 100 %
21.04.2017 01:22 4,6 C 72 % 1031,6 hPa 0,0 l/m 0,2 km/h (0 Bft) SW 235 -0,0 C 3,1 km/h (1 Bft) 100 %
21.04.2017 01:23 4,6 C 72 % 1031,6 hPa 0,0 l/m 0,0 km/h (0 Bft) SW 235 -0,0 C 0,0 km/h (0 Bft) 100 %
21.04.2017 01:24 4,6 C 73 % 1031,6 hPa 0,0 l/m 0,0 km/h (0 Bft) SW 235 0,2 C 0,0 km/h (0 Bft) 100 %
21.04.2017 01:25 4,6 C 73 % 1031,6 hPa 0,0 l/m 0,0 km/h (0 Bft) SW 235 0,2 C 0,0 km/h (0 Bft) 100 %
21.04.2017 01:26 4,6 C 73 % 1031,6 hPa 0,0 l/m 0,1 km/h (0 Bft) W-SW 237 0,2 C 3,1 km/h (1 Bft) 100 %
21.04.2017 01:27 4,6 C 73 % 1031,6 hPa 0,0 l/m 0,0 km/h (0 Bft) W-SW 237 0,2 C 0,0 km/h (0 Bft) 100 %
21.04.2017 01:28 4,5 C 73 % 1031,6 hPa 0,0 l/m 0,0 km/h (0 Bft) W-SW 237 0,1 C 0,0 km/h (0 Bft) 100 %
21.04.2017 01:29 4,5 C 73 % 1031,6 hPa 0,0 l/m 0,4 km/h (0 Bft) W-SW 237 0,1 C 3,1 km/h (1 Bft) 96 %
21.04.2017 01:30 4,5 C 73 % 1031,6 hPa 0,0 l/m 0,0 km/h (0 Bft) W-NW 285 0,1 C 0,0 km/h (0 Bft) 100 %
21.04.2017 01:31 4,5 C 73 % 1031,6 hPa 0,0 l/m 2,2 km/h (1 Bft) W 281 0,1 C 3,1 km/h (1 Bft) 100 %
21.04.2017 01:32 4,5 C 73 % 1031,6 hPa 0,0 l/m 0,1 km/h (0 Bft) W-SW 258 0,1 C 3,1 km/h (1 Bft) 100 %
21.04.2017 01:33 4,4 C 73 % 1031,6 hPa 0,0 l/m 0,8 km/h (0 Bft) W 274 -0,0 C 3,1 km/h (1 Bft) 100 %
21.04.2017 01:34 4,4 C 74 % 1031,6 hPa 0,0 l/m 0,0 km/h (0 Bft) W 274 0,2 C 0,0 km/h (0 Bft) 100 %
21.04.2017 01:35 4,4 C 74 % 1031,6 hPa 0,0 l/m 0,7 km/h (0 Bft) W-NW 293 0,2 C 3,1 km/h (1 Bft) 100 %
21.04.2017 01:36 4,4 C 74 % 1031,6 hPa 0,0 l/m 1,3 km/h (1 Bft) W-NW 283 0,2 C 3,1 km/h (1 Bft) 100 %
21.04.2017 01:37 4,4 C 74 % 1031,6 hPa 0,0 l/m 1,1 km/h (1 Bft) W-NW 282 0,2 C 3,1 km/h (1 Bft) 100 %
21.04.2017 01:38 4,4 C 74 % 1031,6 hPa 0,0 l/m 2,2 km/h (1 Bft) W-NW 282 0,2 C 6,3 km/h (2 Bft) 100 %
21.04.2017 01:39 4,4 C 74 % 1031,6 hPa 0,0 l/m 0,1 km/h (0 Bft) NW 309 0,2 C 3,1 km/h (1 Bft) 100 %
21.04.2017 01:40 4,4 C 74 % 1031,6 hPa 0,0 l/m 1,2 km/h (1 Bft) NW 321 0,2 C 3,1 km/h (1 Bft) 100 %
21.04.2017 01:41 4,4 C 74 % 1031,5 hPa 0,0 l/m 0,2 km/h (0 Bft) W-NW 293 0,2 C 3,1 km/h (1 Bft) 100 %
21.04.2017 01:42 4,4 C 74 % 1031,6 hPa 0,0 l/m 0,6 km/h (0 Bft) W-SW 247 0,2 C 3,1 km/h (1 Bft) 100 %
21.04.2017 01:43 4,4 C 74 % 1031,6 hPa 0,0 l/m 2,2 km/h (1 Bft) W 279 0,2 C 6,3 km/h (2 Bft) 100 %
21.04.2017 01:44 4,4 C 74 % 1031,6 hPa 0,0 l/m 1,6 km/h (1 Bft) W 278 0,2 C 3,1 km/h (1 Bft) 100 %
21.04.2017 01:45 4,4 C 74 % 1031,6 hPa 0,0 l/m 2,4 km/h (1 Bft) W-NW 286 0,2 C 3,1 km/h (1 Bft) 100 %
21.04.2017 01:46 4,4 C 74 % 1031,6 hPa 0,0 l/m 0,8 km/h (0 Bft) W-NW 288 0,2 C 3,1 km/h (1 Bft) 100 %
21.04.2017 01:47 4,4 C 74 % 1031,5 hPa 0,0 l/m 0,3 km/h (0 Bft) W-NW 283 0,2 C 3,1 km/h (1 Bft) 100 %
21.04.2017 01:48 4,4 C 74 % 1031,5 hPa 0,0 l/m 0,8 km/h (0 Bft) W-NW 300 0,2 C 3,1 km/h (1 Bft) 100 %
21.04.2017 01:49 4,4 C 74 % 1031,5 hPa 0,0 l/m 1,3 km/h (1 Bft) W-NW 283 0,2 C 6,3 km/h (2 Bft) 100 %
21.04.2017 01:50 4,4 C 74 % 1031,5 hPa 0,0 l/m 2,0 km/h (1 Bft) W-NW 300 0,2 C 6,3 km/h (2 Bft) 100 %
21.04.2017 01:51 4,4 C 74 % 1031,5 hPa 0,0 l/m 1,2 km/h (1 Bft) W-NW 282 0,2 C 3,1 km/h (1 Bft) 100 %
21.04.2017 01:52 4,4 C 74 % 1031,5 hPa 0,0 l/m 0,3 km/h (0 Bft) W 269 0,2 C 3,1 km/h (1 Bft) 100 %
21.04.2017 01:53 4,3 C 74 % 1031,5 hPa 0,0 l/m 0,4 km/h (0 Bft) W-NW 303 0,1 C 3,1 km/h (1 Bft) 100 %
21.04.2017 01:54 4,3 C 75 % 1031,5 hPa 0,0 l/m 0,4 km/h (0 Bft) W 281 0,3 C 3,1 km/h (1 Bft) 100 %
21.04.2017 01:55 4,3 C 75 % 1031,5 hPa 0,0 l/m 0,3 km/h (0 Bft) W-NW 293 0,3 C 3,1 km/h (1 Bft) 100 %
21.04.2017 01:56 4,3 C 75 % 1031,5 hPa 0,0 l/m 2,7 km/h (1 Bft) W-SW 247 0,3 C 6,3 km/h (2 Bft) 100 %
21.04.2017 01:57 4,3 C 74 % 1031,5 hPa 0,0 l/m 0,2 km/h (0 Bft) W-SW 257 0,1 C 3,1 km/h (1 Bft) 100 %
21.04.2017 01:58 4,3 C 74 % 1031,5 hPa 0,0 l/m 1,4 km/h (1 Bft) W-SW 238 0,1 C 3,1 km/h (1 Bft) 100 %
21.04.2017 01:59 4,3 C 75 % 1031,5 hPa 0,0 l/m 0,8 km/h (0 Bft) W-NW 292 0,3 C 3,1 km/h (1 Bft) 100 %
21.04.2017 02:00 4,3 C 75 % 1031,5 hPa 0,0 l/m 0,0 km/h (0 Bft) W-NW 292 0,3 C 0,0 km/h (0 Bft) 100 %
21.04.2017 02:01 4,3 C 74 % 1031,5 hPa 0,0 l/m 0,0 km/h (0 Bft) W-NW 288 0,1 C 0,0 km/h (0 Bft) 100 %
21.04.2017 02:02 4,2 C 75 % 1031,5 hPa 0,0 l/m 0,4 km/h (0 Bft) W 262 0,2 C 3,1 km/h (1 Bft) 100 %
21.04.2017 02:03 4,3 C 74 % 1031,4 hPa 0,0 l/m 1,3 km/h (1 Bft) W-SW 237 0,1 C 3,1 km/h (1 Bft) 100 %
21.04.2017 02:04 4,2 C 74 % 1031,4 hPa 0,0 l/m 0,1 km/h (0 Bft) W-NW 284 -0,0 C 3,1 km/h (1 Bft) 100 %
21.04.2017 02:05 4,2 C 75 % 1031,4 hPa 0,0 l/m 0,0 km/h (0 Bft) W-NW 288 0,2 C 0,0 km/h (0 Bft) 100 %
21.04.2017 02:06 4,2 C 75 % 1031,4 hPa 0,0 l/m 0,5 km/h (0 Bft) W-SW 237 0,2 C 3,1 km/h (1 Bft) 100 %
21.04.2017 02:07 4,2 C 75 % 1031,4 hPa 0,0 l/m 0,8 km/h (0 Bft) W-NW 293 0,2 C 3,1 km/h (1 Bft) 100 %
21.04.2017 02:08 4,2 C 75 % 1031,3 hPa 0,0 l/m 0,0 km/h (0 Bft) W-NW 293 0,2 C 0,0 km/h (0 Bft) 100 %
21.04.2017 02:09 4,2 C 75 % 1031,4 hPa 0,0 l/m 0,8 km/h (0 Bft) W-SW 257 0,2 C 3,1 km/h (1 Bft) 100 %
21.04.2017 02:10 4,1 C 75 % 1031,4 hPa 0,0 l/m 0,0 km/h (0 Bft) W-SW 257 0,1 C 0,0 km/h (0 Bft) 100 %
21.04.2017 02:11 4,1 C 75 % 1031,3 hPa 0,0 l/m 0,7 km/h (0 Bft) W 260 0,1 C 3,1 km/h (1 Bft) 100 %
21.04.2017 02:12 4,1 C 76 % 1031,3 hPa 0,0 l/m 1,4 km/h (1 Bft) W-SW 240 0,3 C 3,1 km/h (1 Bft) 92 %
21.04.2017 02:13 4,1 C 75 % 1031,2 hPa 0,0 l/m 0,7 km/h (0 Bft) W-NW 284 0,1 C 3,1 km/h (1 Bft) 100 %
21.04.2017 02:14 4,0 C 75 % 1031,3 hPa 0,0 l/m 1,3 km/h (1 Bft) W-NW 291 -0,0 C 3,1 km/h (1 Bft) 100 %
21.04.2017 02:15 4,0 C 75 % 1031,2 hPa 0,0 l/m 1,4 km/h (1 Bft) W 281 -0,0 C 3,1 km/h (1 Bft) 100 %
21.04.2017 02:16 4,0 C 75 % 1031,2 hPa 0,0 l/m 0,1 km/h (0 Bft) W 270 -0,0 C 3,1 km/h (1 Bft) 96 %
21.04.2017 02:17 3,9 C 76 % 1031,2 hPa 0,0 l/m 0,1 km/h (0 Bft) W 262 0,1 C 3,1 km/h (1 Bft) 100 %
21.04.2017 02:18 3,9 C 75 % 1031,2 hPa 0,0 l/m 0,1 km/h (0 Bft) W 269 -0,1 C 3,1 km/h (1 Bft) 100 %
21.04.2017 02:19 3,9 C 75 % 1031,2 hPa 0,0 l/m 0,6 km/h (0 Bft) W-NW 300 -0,1 C 3,1 km/h (1 Bft) 100 %
21.04.2017 02:20 3,9 C 76 % 1031,2 hPa 0,0 l/m 0,5 km/h (0 Bft) W 276 0,1 C 3,1 km/h (1 Bft) 100 %
21.04.2017 02:21 3,9 C 76 % 1031,2 hPa 0,0 l/m 0,1 km/h (0 Bft) W-NW 290 0,1 C 3,1 km/h (1 Bft) 100 %
21.04.2017 02:22 3,8 C 76 % 1031,2 hPa 0,0 l/m 0,0 km/h (0 Bft) W 276 -0,0 C 0,0 km/h (0 Bft) 100 %
21.04.2017 02:23 3,8 C 76 % 1031,2 hPa 0,0 l/m 0,6 km/h (0 Bft) W-NW 282 -0,0 C 3,1 km/h (1 Bft) 100 %
21.04.2017 02:24 3,8 C 76 % 1031,2 hPa 0,0 l/m 0,3 km/h (0 Bft) W-NW 290 -0,0 C 3,1 km/h (1 Bft) 100 %
21.04.2017 02:25 3,7 C 77 % 1031,1 hPa 0,0 l/m 1,3 km/h (1 Bft) W-NW 295 0,1 C 3,1 km/h (1 Bft) 96 %
21.04.2017 02:26 3,7 C 77 % 1031,1 hPa 0,0 l/m 0,0 km/h (0 Bft) W-NW 293 0,1 C 0,0 km/h (0 Bft) 100 %
21.04.2017 02:27 3,7 C 77 % 1031,1 hPa 0,0 l/m 2,1 km/h (1 Bft) W-NW 300 0,1 C 3,1 km/h (1 Bft) 100 %
21.04.2017 02:28 3,7 C 77 % 1031,2 hPa 0,0 l/m 1,0 km/h (0 Bft) W 276 0,1 C 3,1 km/h (1 Bft) 100 %
21.04.2017 02:29 3,6 C 77 % 1031,1 hPa 0,0 l/m 0,4 km/h (0 Bft) W-SW 255 -0,0 C 3,1 km/h (1 Bft) 100 %
21.04.2017 02:30 3,6 C 77 % 1031,1 hPa 0,0 l/m 0,6 km/h (0 Bft) W-NW 290 -0,0 C 3,1 km/h (1 Bft) 96 %
21.04.2017 02:31 3,6 C 77 % 1031,1 hPa 0,0 l/m 1,0 km/h (0 Bft) W 262 -0,0 C 3,1 km/h (1 Bft) 97 %
21.04.2017 02:32 3,6 C 77 % 1031,1 hPa 0,0 l/m 0,0 km/h (0 Bft) W 265 -0,0 C 0,0 km/h (0 Bft) 100 %
21.04.2017 02:33 3,6 C 77 % 1031,1 hPa 0,0 l/m 0,1 km/h (0 Bft) W 265 -0,0 C 3,1 km/h (1 Bft) 96 %
21.04.2017 02:34 3,6 C 77 % 1031,1 hPa 0,0 l/m 0,2 km/h (0 Bft) W 270 -0,0 C 3,1 km/h (1 Bft) 100 %
21.04.2017 02:35 3,5 C 78 % 1031,0 hPa 0,0 l/m 0,4 km/h (0 Bft) W 280 0,0 C 3,1 km/h (1 Bft) 96 %
21.04.2017 02:36 3,5 C 78 % 1031,0 hPa 0,0 l/m 0,0 km/h (0 Bft) W 280 0,0 C 0,0 km/h (0 Bft) 100 %
21.04.2017 02:37 3,4 C 78 % 1031,1 hPa 0,0 l/m 0,1 km/h (0 Bft) W-SW 248 -0,1 C 3,1 km/h (1 Bft) 96 %
21.04.2017 02:38 3,4 C 78 % 1031,1 hPa 0,0 l/m 0,0 km/h (0 Bft) W-NW 284 -0,1 C 0,0 km/h (0 Bft) 100 %
21.04.2017 02:39 3,4 C 78 % 1031,1 hPa 0,0 l/m 0,1 km/h (0 Bft) W-NW 284 -0,1 C 3,1 km/h (1 Bft) 96 %
21.04.2017 02:40 3,4 C 78 % 1031,1 hPa 0,0 l/m 0,6 km/h (0 Bft) W-NW 284 -0,1 C 3,1 km/h (1 Bft) 97 %
21.04.2017 02:41 3,4 C 78 % 1031,1 hPa 0,0 l/m 0,0 km/h (0 Bft) W-NW 290 -0,1 C 0,0 km/h (0 Bft) 100 %
21.04.2017 02:42 3,3 C 78 % 1031,1 hPa 0,0 l/m 0,1 km/h (0 Bft) W 270 -0,2 C 3,1 km/h (1 Bft) 97 %
21.04.2017 02:43 3,3 C 78 % 1031,1 hPa 0,0 l/m 0,1 km/h (0 Bft) W-SW 254 -0,2 C 3,1 km/h (1 Bft) 100 %
21.04.2017 02:44 3,3 C 78 % 1031,1 hPa 0,0 l/m 0,0 km/h (0 Bft) W-SW 254 -0,2 C 0,0 km/h (0 Bft) 96 %
21.04.2017 02:45 3,3 C 78 % 1031,1 hPa 0,0 l/m 0,0 km/h (0 Bft) W-SW 255 -0,2 C 0,0 km/h (0 Bft) 100 %
21.04.2017 02:47 3,2 C 78 % 1031,0 hPa 0,0 l/m 0,0 km/h (0 Bft) W-SW 255 -0,3 C 0,0 km/h (0 Bft) 96 %
21.04.2017 02:48 3,2 C 79 % 1031,0 hPa 0,0 l/m 0,2 km/h (0 Bft) W-SW 255 -0,1 C 3,1 km/h (1 Bft) 100 %
21.04.2017 02:49 3,2 C 79 % 1031,0 hPa 0,0 l/m 0,0 km/h (0 Bft) W-SW 255 -0,1 C 0,0 km/h (0 Bft) 96 %
21.04.2017 02:50 3,2 C 79 % 1031,0 hPa 0,0 l/m 0,1 km/h (0 Bft) W-SW 255 -0,1 C 3,1 km/h (1 Bft) 100 %
21.04.2017 02:51 3,2 C 79 % 1031,0 hPa 0,0 l/m 0,0 km/h (0 Bft) W-SW 255 -0,1 C 0,0 km/h (0 Bft) 93 %
21.04.2017 02:52 3,2 C 79 % 1031,0 hPa 0,0 l/m 0,0 km/h (0 Bft) W-SW 255 -0,1 C 0,0 km/h (0 Bft) 100 %
21.04.2017 02:53 3,1 C 79 % 1031,0 hPa 0,0 l/m 0,0 km/h (0 Bft) W-SW 255 -0,2 C 0,0 km/h (0 Bft) 96 %
21.04.2017 02:54 3,1 C 79 % 1030,9 hPa 0,0 l/m 0,3 km/h (0 Bft) W-SW 255 -0,2 C 3,1 km/h (1 Bft) 100 %
21.04.2017 02:55 3,1 C 79 % 1030,9 hPa 0,0 l/m 0,0 km/h (0 Bft) W-SW 255 -0,2 C 0,0 km/h (0 Bft) 96 %
21.04.2017 02:56 3,1 C 79 % 1030,9 hPa 0,0 l/m 0,0 km/h (0 Bft) W-SW 255 -0,2 C 0,0 km/h (0 Bft) 96 %
21.04.2017 02:57 3,1 C 79 % 1030,9 hPa 0,0 l/m 0,8 km/h (0 Bft) W-NW 296 -0,2 C 3,1 km/h (1 Bft) 100 %
21.04.2017 02:58 3,1 C 79 % 1030,9 hPa 0,0 l/m 0,0 km/h (0 Bft) W-NW 290 -0,2 C 0,0 km/h (0 Bft) 93 %
21.04.2017 02:59 3,1 C 79 % 1030,9 hPa 0,0 l/m 0,0 km/h (0 Bft) W-NW 290 -0,2 C 0,0 km/h (0 Bft) 100 %
21.04.2017 03:00 3,1 C 79 % 1030,9 hPa 0,0 l/m 0,0 km/h (0 Bft) W-NW 291 -0,2 C 0,0 km/h (0 Bft) 97 %
21.04.2017 03:02 3,0 C 79 % 1030,8 hPa 0,0 l/m 0,5 km/h (0 Bft) W-SW 245 -0,3 C 3,1 km/h (1 Bft) 98 %
21.04.2017 03:03 3,0 C 79 % 1030,8 hPa 0,0 l/m 0,0 km/h (0 Bft) W 278 -0,3 C 0,0 km/h (0 Bft) 100 %
21.04.2017 03:04 3,0 C 79 % 1030,8 hPa 0,0 l/m 0,0 km/h (0 Bft) W 265 -0,3 C 0,0 km/h (0 Bft) 96 %
21.04.2017 03:05 3,0 C 79 % 1030,8 hPa 0,0 l/m 0,0 km/h (0 Bft) W 265 -0,3 C 0,0 km/h (0 Bft) 96 %
21.04.2017 03:06 3,0 C 79 % 1030,8 hPa 0,0 l/m 0,1 km/h (0 Bft) SW 231 -0,3 C 3,1 km/h (1 Bft) 100 %
21.04.2017 03:07 2,9 C 79 % 1030,8 hPa 0,0 l/m 0,0 km/h (0 Bft) SW 231 -0,4 C 0,0 km/h (0 Bft) 96 %
21.04.2017 03:08 2,9 C 79 % 1030,8 hPa 0,0 l/m 0,0 km/h (0 Bft) SW 231 -0,4 C 0,0 km/h (0 Bft) 100 %
21.04.2017 03:09 2,9 C 79 % 1030,8 hPa 0,0 l/m 0,1 km/h (0 Bft) SW 231 -0,4 C 3,1 km/h (1 Bft) 96 %
21.04.2017 03:10 2,9 C 79 % 1030,7 hPa 0,0 l/m 0,3 km/h (0 Bft) W-NW 289 -0,4 C 3,1 km/h (1 Bft) 100 %
21.04.2017 03:12 2,9 C 79 % 1030,7 hPa 0,0 l/m 0,1 km/h (0 Bft) W-NW 288 -0,4 C 3,1 km/h (1 Bft) 97 %
21.04.2017 03:13 2,9 C 79 % 1030,7 hPa 0,0 l/m 0,0 km/h (0 Bft) W-NW 288 -0,4 C 0,0 km/h (0 Bft) 100 %
21.04.2017 03:14 2,9 C 79 % 1030,7 hPa 0,0 l/m 0,1 km/h (0 Bft) W-NW 288 -0,4 C 3,1 km/h (1 Bft) 96 %
21.04.2017 03:15 2,9 C 79 % 1030,7 hPa 0,0 l/m 0,0 km/h (0 Bft) W-NW 288 -0,4 C 0,0 km/h (0 Bft) 100 %
21.04.2017 03:16 2,9 C 79 % 1030,8 hPa 0,0 l/m 0,0 km/h (0 Bft) W-NW 288 -0,4 C 0,0 km/h (0 Bft) 96 %
21.04.2017 03:17 2,9 C 80 % 1030,7 hPa 0,0 l/m 0,0 km/h (0 Bft) W-NW 288 -0,2 C 0,0 km/h (0 Bft) 100 %
21.04.2017 03:18 2,9 C 79 % 1030,7 hPa 0,0 l/m 0,0 km/h (0 Bft) W-NW 288 -0,4 C 0,0 km/h (0 Bft) 96 %
21.04.2017 03:19 2,8 C 79 % 1030,7 hPa 0,0 l/m 0,0 km/h (0 Bft) W-NW 288 -0,5 C 0,0 km/h (0 Bft) 99 %
21.04.2017 03:20 2,8 C 79 % 1030,7 hPa 0,0 l/m 0,0 km/h (0 Bft) W-NW 288 -0,5 C 0,0 km/h (0 Bft) 98 %
21.04.2017 03:21 2,8 C 79 % 1030,7 hPa 0,0 l/m 0,0 km/h (0 Bft) W-NW 288 -0,5 C 0,0 km/h (0 Bft) 100 %
21.04.2017 03:22 2,8 C 79 % 1030,7 hPa 0,0 l/m 0,0 km/h (0 Bft) W-NW 288 -0,5 C 0,0 km/h (0 Bft) 96 %
21.04.2017 03:23 2,7 C 79 % 1030,8 hPa 0,0 l/m 0,4 km/h (0 Bft) W-NW 288 -0,6 C 3,1 km/h (1 Bft) 100 %
21.04.2017 03:24 2,7 C 79 % 1030,7 hPa 0,0 l/m 0,0 km/h (0 Bft) W-NW 288 -0,6 C 0,0 km/h (0 Bft) 96 %
21.04.2017 03:25 2,7 C 79 % 1030,7 hPa 0,0 l/m 0,0 km/h (0 Bft) W-NW 288 -0,6 C 0,0 km/h (0 Bft) 96 %
21.04.2017 03:26 2,7 C 80 % 1030,8 hPa 0,0 l/m 0,0 km/h (0 Bft) W-NW 288 -0,4 C 0,0 km/h (0 Bft) 100 %
21.04.2017 03:27 2,6 C 80 % 1030,8 hPa 0,0 l/m 0,0 km/h (0 Bft) W-NW 283 -0,5 C 0,0 km/h (0 Bft) 96 %
21.04.2017 03:28 2,6 C 80 % 1030,7 hPa 0,0 l/m 0,3 km/h (0 Bft) W-SW 248 -0,5 C 3,1 km/h (1 Bft) 100 %
21.04.2017 03:29 2,6 C 80 % 1030,8 hPa 0,0 l/m 0,2 km/h (0 Bft) W-SW 248 -0,5 C 3,1 km/h (1 Bft) 95 %
21.04.2017 03:30 2,6 C 80 % 1030,7 hPa 0,0 l/m 0,0 km/h (0 Bft) W-SW 248 -0,5 C 0,0 km/h (0 Bft) 100 %
21.04.2017 03:31 2,5 C 80 % 1030,7 hPa 0,0 l/m 0,0 km/h (0 Bft) W-SW 248 -0,6 C 0,0 km/h (0 Bft) 100 %
21.04.2017 03:32 2,5 C 80 % 1030,8 hPa 0,0 l/m 0,0 km/h (0 Bft) W-SW 252 -0,6 C 0,0 km/h (0 Bft) 100 %
21.04.2017 03:33 2,5 C 80 % 1030,7 hPa 0,0 l/m 0,0 km/h (0 Bft) W-NW 282 -0,6 C 0,0 km/h (0 Bft) 100 %
21.04.2017 03:34 2,5 C 80 % 1030,7 hPa 0,0 l/m 0,0 km/h (0 Bft) W-NW 283 -0,6 C 0,0 km/h (0 Bft) 100 %
21.04.2017 03:35 2,4 C 80 % 1030,7 hPa 0,0 l/m 0,1 km/h (0 Bft) W-NW 283 -0,7 C 3,1 km/h (1 Bft) 100 %
21.04.2017 03:36 2,4 C 80 % 1030,7 hPa 0,0 l/m 0,6 km/h (0 Bft) W-SW 243 -0,7 C 3,1 km/h (1 Bft) 100 %
21.04.2017 03:37 2,4 C 80 % 1030,7 hPa 0,0 l/m 0,0 km/h (0 Bft) W-SW 243 -0,7 C 0,0 km/h (0 Bft) 100 %
21.04.2017 03:38 2,4 C 81 % 1030,7 hPa 0,0 l/m 0,0 km/h (0 Bft) W-SW 249 -0,5 C 0,0 km/h (0 Bft) 100 %
21.04.2017 03:39 2,4 C 81 % 1030,7 hPa 0,0 l/m 0,0 km/h (0 Bft) W-SW 249 -0,5 C 0,0 km/h (0 Bft) 100 %
21.04.2017 03:40 2,4 C 81 % 1030,7 hPa 0,0 l/m 0,0 km/h (0 Bft) W-SW 249 -0,5 C 0,0 km/h (0 Bft) 100 %
21.04.2017 03:41 2,3 C 81 % 1030,7 hPa 0,0 l/m 0,0 km/h (0 Bft) W-SW 242 -0,6 C 0,0 km/h (0 Bft) 100 %
21.04.2017 03:42 2,3 C 81 % 1030,7 hPa 0,0 l/m 0,1 km/h (0 Bft) W-NW 302 -0,6 C 3,1 km/h (1 Bft) 100 %
21.04.2017 03:43 2,3 C 81 % 1030,6 hPa 0,0 l/m 0,1 km/h (0 Bft) W-NW 290 -0,6 C 3,1 km/h (1 Bft) 100 %
21.04.2017 03:44 2,3 C 81 % 1030,6 hPa 0,0 l/m 0,1 km/h (0 Bft) W-NW 292 -0,6 C 3,1 km/h (1 Bft) 100 %
21.04.2017 03:45 2,2 C 81 % 1030,6 hPa 0,0 l/m 0,1 km/h (0 Bft) NW 312 -0,7 C 3,1 km/h (1 Bft) 100 %
21.04.2017 03:46 2,2 C 82 % 1030,6 hPa 0,0 l/m 0,0 km/h (0 Bft) NW 312 -0,5 C 0,0 km/h (0 Bft) 100 %
21.04.2017 03:47 2,2 C 82 % 1030,6 hPa 0,0 l/m 0,0 km/h (0 Bft) NW 304 -0,5 C 0,0 km/h (0 Bft) 100 %
21.04.2017 03:48 2,2 C 82 % 1030,6 hPa 0,0 l/m 0,0 km/h (0 Bft) W-SW 238 -0,5 C 0,0 km/h (0 Bft) 100 %
21.04.2017 03:49 2,2 C 82 % 1030,5 hPa 0,0 l/m 0,1 km/h (0 Bft) W-NW 295 -0,5 C 3,1 km/h (1 Bft) 100 %
21.04.2017 03:50 2,2 C 82 % 1030,5 hPa 0,0 l/m 0,3 km/h (0 Bft) W-NW 295 -0,5 C 3,1 km/h (1 Bft) 100 %
21.04.2017 03:51 2,2 C 82 % 1030,5 hPa 0,0 l/m 0,0 km/h (0 Bft) W 266 -0,5 C 0,0 km/h (0 Bft) 100 %
21.04.2017 03:52 2,2 C 82 % 1030,5 hPa 0,0 l/m 0,6 km/h (0 Bft) W-NW 298 -0,5 C 3,1 km/h (1 Bft) 100 %
21.04.2017 03:53 2,2 C 82 % 1030,6 hPa 0,0 l/m 0,0 km/h (0 Bft) W-SW 258 -0,5 C 0,0 km/h (0 Bft) 100 %
21.04.2017 03:54 2,2 C 82 % 1030,6 hPa 0,0 l/m 0,4 km/h (0 Bft) W 266 -0,5 C 3,1 km/h (1 Bft) 100 %
21.04.2017 03:55 2,2 C 82 % 1030,5 hPa 0,0 l/m 0,9 km/h (0 Bft) W-NW 285 -0,5 C 3,1 km/h (1 Bft) 100 %
21.04.2017 03:56 2,2 C 82 % 1030,6 hPa 0,0 l/m 0,8 km/h (0 Bft) W 265 -0,5 C 3,1 km/h (1 Bft) 100 %
21.04.2017 03:57 2,2 C 82 % 1030,5 hPa 0,0 l/m 0,1 km/h (0 Bft) W-NW 282 -0,5 C 3,1 km/h (1 Bft) 100 %
21.04.2017 03:58 2,2 C 82 % 1030,5 hPa 0,0 l/m 0,2 km/h (0 Bft) W-NW 282 -0,5 C 3,1 km/h (1 Bft) 100 %
21.04.2017 03:59 2,1 C 82 % 1030,6 hPa 0,0 l/m 0,4 km/h (0 Bft) W 268 -0,6 C 3,1 km/h (1 Bft) 100 %
21.04.2017 04:00 2,1 C 82 % 1030,5 hPa 0,0 l/m 0,0 km/h (0 Bft) W 279 -0,6 C 0,0 km/h (0 Bft) 100 %
21.04.2017 04:01 2,1 C 82 % 1030,5 hPa 0,0 l/m 0,5 km/h (0 Bft) W-NW 285 -0,6 C 3,1 km/h (1 Bft) 100 %
21.04.2017 04:02 2,1 C 82 % 1030,5 hPa 0,0 l/m 0,4 km/h (0 Bft) W 280 -0,6 C 3,1 km/h (1 Bft) 100 %
21.04.2017 04:03 2,1 C 82 % 1030,5 hPa 0,0 l/m 0,1 km/h (0 Bft) W 280 -0,6 C 3,1 km/h (1 Bft) 100 %
21.04.2017 04:04 2,1 C 82 % 1030,5 hPa 0,0 l/m 1,8 km/h (1 Bft) W 264 -0,6 C 3,1 km/h (1 Bft) 100 %
21.04.2017 04:05 2,1 C 82 % 1030,4 hPa 0,0 l/m 1,4 km/h (1 Bft) W-NW 297 -0,6 C 3,1 km/h (1 Bft) 100 %
21.04.2017 04:06 2,1 C 82 % 1030,5 hPa 0,0 l/m 0,1 km/h (0 Bft) W-NW 297 -0,6 C 3,1 km/h (1 Bft) 100 %
21.04.2017 04:07 2,1 C 82 % 1030,5 hPa 0,0 l/m 0,7 km/h (0 Bft) W-NW 295 -0,6 C 3,1 km/h (1 Bft) 100 %
21.04.2017 04:08 2,0 C 82 % 1030,5 hPa 0,0 l/m 0,0 km/h (0 Bft) W-NW 295 -0,7 C 0,0 km/h (0 Bft) 100 %
21.04.2017 04:09 2,0 C 82 % 1030,5 hPa 0,0 l/m 0,2 km/h (0 Bft) W-NW 291 -0,7 C 3,1 km/h (1 Bft) 100 %
21.04.2017 04:10 2,0 C 82 % 1030,4 hPa 0,0 l/m 0,1 km/h (0 Bft) W 270 -0,7 C 3,1 km/h (1 Bft) 100 %
21.04.2017 04:11 2,0 C 83 % 1030,4 hPa 0,0 l/m 0,3 km/h (0 Bft) W 271 -0,6 C 3,1 km/h (1 Bft) 100 %
21.04.2017 04:12 1,9 C 83 % 1030,5 hPa 0,0 l/m 0,2 km/h (0 Bft) W 269 -0,7 C 3,1 km/h (1 Bft) 100 %
21.04.2017 04:13 1,9 C 83 % 1030,4 hPa 0,0 l/m 0,1 km/h (0 Bft) SW 230 -0,7 C 3,1 km/h (1 Bft) 100 %
21.04.2017 04:14 1,9 C 83 % 1030,4 hPa 0,0 l/m 0,2 km/h (0 Bft) SW 231 -0,7 C 3,1 km/h (1 Bft) 100 %
21.04.2017 04:15 1,9 C 83 % 1030,5 hPa 0,0 l/m 0,3 km/h (0 Bft) W 266 -0,7 C 3,1 km/h (1 Bft) 100 %
21.04.2017 04:16 1,9 C 83 % 1030,4 hPa 0,0 l/m 0,1 km/h (0 Bft) W 275 -0,7 C 3,1 km/h (1 Bft) 100 %
21.04.2017 04:17 1,9 C 83 % 1030,4 hPa 0,0 l/m 0,0 km/h (0 Bft) W-SW 257 -0,7 C 0,0 km/h (0 Bft) 100 %
21.04.2017 04:18 1,9 C 83 % 1030,4 hPa 0,0 l/m 0,0 km/h (0 Bft) W 281 -0,7 C 0,0 km/h (0 Bft) 100 %
21.04.2017 04:19 1,8 C 83 % 1030,4 hPa 0,0 l/m 0,0 km/h (0 Bft) W 281 -0,8 C 0,0 km/h (0 Bft) 100 %
21.04.2017 04:20 1,8 C 83 % 1030,5 hPa 0,0 l/m 0,0 km/h (0 Bft) W 281 -0,8 C 0,0 km/h (0 Bft) 100 %
21.04.2017 04:21 1,8 C 83 % 1030,4 hPa 0,0 l/m 0,0 km/h (0 Bft) W 281 -0,8 C 0,0 km/h (0 Bft) 100 %
21.04.2017 04:22 1,8 C 83 % 1030,4 hPa 0,0 l/m 0,0 km/h (0 Bft) W 281 -0,8 C 0,0 km/h (0 Bft) 100 %
21.04.2017 04:23 1,8 C 83 % 1030,4 hPa 0,0 l/m 0,1 km/h (0 Bft) W 281 -0,8 C 3,1 km/h (1 Bft) 100 %
21.04.2017 04:24 1,8 C 83 % 1030,4 hPa 0,0 l/m 0,1 km/h (0 Bft) W 281 -0,8 C 3,1 km/h (1 Bft) 100 %
21.04.2017 04:25 1,8 C 83 % 1030,3 hPa 0,0 l/m 0,1 km/h (0 Bft) W 281 -0,8 C 3,1 km/h (1 Bft) 100 %
21.04.2017 04:26 1,8 C 83 % 1030,3 hPa 0,0 l/m 0,8 km/h (0 Bft) W 274 -0,8 C 3,1 km/h (1 Bft) 100 %
21.04.2017 04:27 1,8 C 83 % 1030,3 hPa 0,0 l/m 0,0 km/h (0 Bft) W 274 -0,8 C 0,0 km/h (0 Bft) 100 %
21.04.2017 04:28 1,8 C 83 % 1030,3 hPa 0,0 l/m 0,0 km/h (0 Bft) W 274 -0,8 C 0,0 km/h (0 Bft) 100 %
21.04.2017 04:29 1,8 C 83 % 1030,3 hPa 0,0 l/m 0,2 km/h (0 Bft) SW 229 -0,8 C 3,1 km/h (1 Bft) 100 %
21.04.2017 04:30 1,8 C 82 % 1030,3 hPa 0,0 l/m 0,2 km/h (0 Bft) W-NW 288 -0,9 C 3,1 km/h (1 Bft) 100 %
21.04.2017 04:31 1,8 C 82 % 1030,3 hPa 0,0 l/m 0,0 km/h (0 Bft) W 266 -0,9 C 0,0 km/h (0 Bft) 100 %
21.04.2017 04:32 1,8 C 83 % 1030,2 hPa 0,0 l/m 0,1 km/h (0 Bft) W 266 -0,8 C 3,1 km/h (1 Bft) 100 %
21.04.2017 04:33 1,8 C 83 % 1030,3 hPa 0,0 l/m 0,0 km/h (0 Bft) W 266 -0,8 C 0,0 km/h (0 Bft) 100 %
21.04.2017 04:34 1,7 C 83 % 1030,2 hPa 0,0 l/m 0,2 km/h (0 Bft) W-NW 297 -0,9 C 3,1 km/h (1 Bft) 100 %
21.04.2017 04:35 1,8 C 83 % 1030,2 hPa 0,0 l/m 0,3 km/h (0 Bft) W-NW 297 -0,8 C 3,1 km/h (1 Bft) 100 %
21.04.2017 04:36 1,7 C 82 % 1030,2 hPa 0,0 l/m 0,6 km/h (0 Bft) W-NW 285 -1,0 C 3,1 km/h (1 Bft) 100 %
21.04.2017 04:37 1,7 C 82 % 1030,2 hPa 0,0 l/m 0,2 km/h (0 Bft) W 277 -1,0 C 3,1 km/h (1 Bft) 100 %
21.04.2017 04:38 1,8 C 82 % 1030,2 hPa 0,0 l/m 1,0 km/h (0 Bft) W-NW 287 -0,9 C 3,1 km/h (1 Bft) 100 %
21.04.2017 04:39 1,8 C 82 % 1030,1 hPa 0,0 l/m 1,4 km/h (1 Bft) W-NW 291 -0,9 C 3,1 km/h (1 Bft) 100 %
21.04.2017 04:40 1,7 C 82 % 1030,2 hPa 0,0 l/m 1,4 km/h (1 Bft) W 281 -1,0 C 3,1 km/h (1 Bft) 100 %
21.04.2017 04:41 1,7 C 82 % 1030,2 hPa 0,0 l/m 0,0 km/h (0 Bft) W 281 -1,0 C 0,0 km/h (0 Bft) 100 %
21.04.2017 04:42 1,7 C 82 % 1030,1 hPa 0,0 l/m 0,3 km/h (0 Bft) W 263 -1,0 C 3,1 km/h (1 Bft) 100 %
21.04.2017 04:43 1,7 C 82 % 1030,1 hPa 0,0 l/m 0,4 km/h (0 Bft) W-SW 250 -1,0 C 3,1 km/h (1 Bft) 100 %
21.04.2017 04:44 1,7 C 82 % 1030,1 hPa 0,0 l/m 0,1 km/h (0 Bft) W 264 -1,0 C 3,1 km/h (1 Bft) 100 %
21.04.2017 04:45 1,7 C 83 % 1030,1 hPa 0,0 l/m 0,8 km/h (0 Bft) W-NW 293 -0,9 C 3,1 km/h (1 Bft) 100 %
21.04.2017 04:46 1,7 C 83 % 1030,1 hPa 0,0 l/m 1,4 km/h (1 Bft) W-NW 293 -0,9 C 3,1 km/h (1 Bft) 100 %
21.04.2017 04:47 1,7 C 82 % 1030,1 hPa 0,0 l/m 1,1 km/h (1 Bft) W-NW 287 -1,0 C 3,1 km/h (1 Bft) 100 %
21.04.2017 04:48 1,7 C 82 % 1030,2 hPa 0,0 l/m 1,0 km/h (0 Bft) W-SW 237 -1,0 C 3,1 km/h (1 Bft) 100 %
21.04.2017 04:49 1,7 C 82 % 1030,1 hPa 0,0 l/m 0,0 km/h (0 Bft) W-NW 283 -1,0 C 0,0 km/h (0 Bft) 100 %
21.04.2017 04:50 1,7 C 82 % 1030,1 hPa 0,0 l/m 2,1 km/h (1 Bft) W-NW 296 -1,0 C 6,3 km/h (2 Bft) 100 %
21.04.2017 04:51 1,7 C 82 % 1030,1 hPa 0,0 l/m 2,2 km/h (1 Bft) W-NW 292 -1,0 C 3,1 km/h (1 Bft) 100 %
21.04.2017 04:52 1,7 C 82 % 1030,1 hPa 0,0 l/m 1,0 km/h (0 Bft) W-SW 257 -1,0 C 3,1 km/h (1 Bft) 100 %
21.04.2017 04:53 1,7 C 82 % 1030,1 hPa 0,0 l/m 0,1 km/h (0 Bft) NW 311 -1,0 C 3,1 km/h (1 Bft) 100 %
21.04.2017 04:54 1,7 C 82 % 1030,1 hPa 0,0 l/m 0,6 km/h (0 Bft) NW 307 -1,0 C 3,1 km/h (1 Bft) 100 %
21.04.2017 04:55 1,7 C 82 % 1030,2 hPa 0,0 l/m 0,8 km/h (0 Bft) W-SW 247 -1,0 C 3,1 km/h (1 Bft) 100 %
21.04.2017 04:56 1,7 C 83 % 1030,1 hPa 0,0 l/m 0,1 km/h (0 Bft) W 269 -0,9 C 3,1 km/h (1 Bft) 100 %
21.04.2017 04:57 1,7 C 82 % 1030,1 hPa 0,0 l/m 1,9 km/h (1 Bft) W-NW 288 -1,0 C 3,1 km/h (1 Bft) 100 %
21.04.2017 04:58 1,7 C 82 % 1030,1 hPa 0,0 l/m 2,6 km/h (1 Bft) W 270 -1,0 C 3,1 km/h (1 Bft) 100 %
21.04.2017 04:59 1,7 C 82 % 1030,2 hPa 0,0 l/m 0,1 km/h (0 Bft) W 271 -1,0 C 3,1 km/h (1 Bft) 100 %
21.04.2017 05:00 1,7 C 82 % 1030,2 hPa 0,0 l/m 0,9 km/h (0 Bft) W-NW 297 -1,0 C 3,1 km/h (1 Bft) 100 %
21.04.2017 05:01 1,8 C 82 % 1030,2 hPa 0,0 l/m 0,0 km/h (0 Bft) W-NW 287 -0,9 C 0,0 km/h (0 Bft) 100 %
21.04.2017 05:02 1,7 C 82 % 1030,2 hPa 0,0 l/m 1,0 km/h (0 Bft) W-NW 301 -1,0 C 3,1 km/h (1 Bft) 100 %
21.04.2017 05:03 1,8 C 82 % 1030,2 hPa 0,0 l/m 1,4 km/h (1 Bft) W-NW 287 -0,9 C 3,1 km/h (1 Bft) 100 %
21.04.2017 05:04 1,8 C 82 % 1030,1 hPa 0,0 l/m 0,8 km/h (0 Bft) W 281 -0,9 C 3,1 km/h (1 Bft) 100 %
21.04.2017 05:05 1,8 C 82 % 1030,1 hPa 0,0 l/m 1,6 km/h (1 Bft) W 268 -0,9 C 6,3 km/h (2 Bft) 100 %
21.04.2017 05:06 1,8 C 82 % 1030,1 hPa 0,0 l/m 0,4 km/h (0 Bft) W-SW 252 -0,9 C 3,1 km/h (1 Bft) 100 %
21.04.2017 05:07 1,8 C 82 % 1030,1 hPa 0,0 l/m 0,7 km/h (0 Bft) W 260 -0,9 C 3,1 km/h (1 Bft) 100 %
21.04.2017 05:08 1,8 C 82 % 1030,0 hPa 0,0 l/m 0,6 km/h (0 Bft) W-SW 252 -0,9 C 3,1 km/h (1 Bft) 100 %
21.04.2017 05:09 1,8 C 82 % 1030,1 hPa 0,0 l/m 1,0 km/h (0 Bft) W-NW 301 -0,9 C 3,1 km/h (1 Bft) 100 %
21.04.2017 05:10 1,8 C 82 % 1030,1 hPa 0,0 l/m 1,3 km/h (1 Bft) W-NW 288 -0,9 C 3,1 km/h (1 Bft) 100 %
21.04.2017 05:11 1,8 C 82 % 1030,1 hPa 0,0 l/m 1,5 km/h (1 Bft) W-NW 298 -0,9 C 3,1 km/h (1 Bft) 100 %
21.04.2017 05:12 1,8 C 82 % 1030,1 hPa 0,0 l/m 0,1 km/h (0 Bft) W 281 -0,9 C 3,1 km/h (1 Bft) 100 %
21.04.2017 05:13 1,8 C 82 % 1030,1 hPa 0,0 l/m 0,6 km/h (0 Bft) NW 308 -0,9 C 3,1 km/h (1 Bft) 100 %
21.04.2017 05:14 1,8 C 82 % 1030,0 hPa 0,0 l/m 1,6 km/h (1 Bft) W-SW 243 -0,9 C 6,3 km/h (2 Bft) 100 %
21.04.2017 05:15 1,9 C 82 % 1030,1 hPa 0,0 l/m 0,2 km/h (0 Bft) W 265 -0,8 C 3,1 km/h (1 Bft) 100 %
21.04.2017 05:16 1,9 C 82 % 1030,0 hPa 0,0 l/m 0,8 km/h (0 Bft) W-NW 291 -0,8 C 3,1 km/h (1 Bft) 100 %
21.04.2017 05:17 1,9 C 82 % 1030,0 hPa 0,0 l/m 2,1 km/h (1 Bft) W-NW 285 -0,8 C 3,1 km/h (1 Bft) 100 %
21.04.2017 05:18 1,9 C 82 % 1030,0 hPa 0,0 l/m 1,7 km/h (1 Bft) W-NW 284 -0,8 C 3,1 km/h (1 Bft) 100 %
21.04.2017 05:19 1,9 C 81 % 1030,0 hPa 0,0 l/m 2,6 km/h (1 Bft) NW 311 -1,0 C 6,3 km/h (2 Bft) 100 %
21.04.2017 05:20 1,9 C 81 % 1030,0 hPa 0,0 l/m 2,7 km/h (1 Bft) W 259 -1,0 C 6,3 km/h (2 Bft) 100 %
21.04.2017 05:21 1,9 C 81 % 1030,0 hPa 0,0 l/m 0,1 km/h (0 Bft) W 272 -1,0 C 3,1 km/h (1 Bft) 100 %
21.04.2017 05:22 1,9 C 81 % 1030,0 hPa 0,0 l/m 2,7 km/h (1 Bft) W 259 -1,0 C 3,1 km/h (1 Bft) 100 %
21.04.2017 05:23 1,9 C 82 % 1030,0 hPa 0,0 l/m 0,4 km/h (0 Bft) W-NW 283 -0,8 C 3,1 km/h (1 Bft) 100 %
21.04.2017 05:24 1,9 C 81 % 1030,0 hPa 0,0 l/m 2,2 km/h (1 Bft) W-SW 250 -1,0 C 9,4 km/h (2 Bft) 100 %
21.04.2017 05:25 1,9 C 82 % 1030,1 hPa 0,0 l/m 2,0 km/h (1 Bft) W-NW 292 -0,8 C 3,1 km/h (1 Bft) 100 %
21.04.2017 05:26 1,9 C 82 % 1030,0 hPa 0,0 l/m 2,9 km/h (1 Bft) W-SW 242 -0,8 C 6,3 km/h (2 Bft) 100 %
21.04.2017 05:27 1,9 C 82 % 1030,1 hPa 0,0 l/m 2,2 km/h (1 Bft) W-NW 287 -0,8 C 6,3 km/h (2 Bft) 100 %
21.04.2017 05:28 1,9 C 81 % 1030,0 hPa 0,0 l/m 2,6 km/h (1 Bft) W-SW 252 -1,0 C 6,3 km/h (2 Bft) 100 %
21.04.2017 05:29 1,9 C 81 % 1030,0 hPa 0,0 l/m 1,0 km/h (0 Bft) W 259 -1,0 C 3,1 km/h (1 Bft) 100 %
21.04.2017 05:30 1,9 C 81 % 1030,0 hPa 0,0 l/m 1,6 km/h (1 Bft) W 275 -1,0 C 3,1 km/h (1 Bft) 100 %
21.04.2017 05:31 2,0 C 81 % 1030,0 hPa 0,0 l/m 0,4 km/h (0 Bft) W-NW 295 -0,9 C 3,1 km/h (1 Bft) 100 %
21.04.2017 05:32 2,0 C 81 % 1030,0 hPa 0,0 l/m 0,9 km/h (0 Bft) NW 317 -0,9 C 3,1 km/h (1 Bft) 100 %
21.04.2017 05:33 2,0 C 81 % 1030,0 hPa 0,0 l/m 0,8 km/h (0 Bft) W 276 -0,9 C 3,1 km/h (1 Bft) 100 %
21.04.2017 05:34 2,0 C 81 % 1030,0 hPa 0,0 l/m 1,6 km/h (1 Bft) W 270 -0,9 C 3,1 km/h (1 Bft) 100 %
21.04.2017 05:35 2,1 C 81 % 1030,0 hPa 0,0 l/m 0,8 km/h (0 Bft) W 277 -0,8 C 3,1 km/h (1 Bft) 100 %
21.04.2017 05:36 2,1 C 81 % 1030,1 hPa 0,0 l/m 2,5 km/h (1 Bft) SW 229 -0,8 C 6,3 km/h (2 Bft) 100 %
21.04.2017 05:37 2,1 C 81 % 1030,1 hPa 0,0 l/m 2,6 km/h (1 Bft) W-SW 255 -0,8 C 6,3 km/h (2 Bft) 100 %
21.04.2017 05:38 2,1 C 81 % 1030,0 hPa 0,0 l/m 1,3 km/h (1 Bft) W 265 -0,8 C 3,1 km/h (1 Bft) 100 %
21.04.2017 05:39 2,1 C 81 % 1030,0 hPa 0,0 l/m 3,7 km/h (1 Bft) W 271 -0,8 C 9,4 km/h (2 Bft) 100 %
21.04.2017 05:40 2,1 C 81 % 1030,0 hPa 0,0 l/m 1,0 km/h (0 Bft) W-NW 295 -0,8 C 3,1 km/h (1 Bft) 100 %
21.04.2017 05:41 2,1 C 81 % 1030,0 hPa 0,0 l/m 1,7 km/h (1 Bft) W-SW 239 -0,8 C 6,3 km/h (2 Bft) 100 %
21.04.2017 05:42 2,1 C 80 % 1030,0 hPa 0,0 l/m 2,4 km/h (1 Bft) W-NW 285 -1,0 C 3,1 km/h (1 Bft) 100 %
21.04.2017 05:43 2,1 C 80 % 1030,1 hPa 0,0 l/m 2,2 km/h (1 Bft) W-NW 293 -1,0 C 3,1 km/h (1 Bft) 100 %
21.04.2017 05:44 2,1 C 80 % 1030,0 hPa 0,0 l/m 0,2 km/h (0 Bft) W 271 -1,0 C 3,1 km/h (1 Bft) 100 %
21.04.2017 05:45 2,1 C 80 % 1030,0 hPa 0,0 l/m 2,6 km/h (1 Bft) SW 228 -1,0 C 3,1 km/h (1 Bft) 100 %
21.04.2017 05:46 2,1 C 80 % 1030,0 hPa 0,0 l/m 1,8 km/h (1 Bft) W-NW 284 -1,0 C 6,3 km/h (2 Bft) 100 %
21.04.2017 05:47 2,1 C 80 % 1030,0 hPa 0,0 l/m 3,3 km/h (1 Bft) W 262 -1,0 C 6,3 km/h (2 Bft) 100 %
21.04.2017 05:48 2,1 C 80 % 1029,9 hPa 0,0 l/m 2,4 km/h (1 Bft) W-SW 256 -1,0 C 6,3 km/h (2 Bft) 100 %
21.04.2017 05:49 2,1 C 80 % 1029,9 hPa 0,0 l/m 0,4 km/h (0 Bft) NW 310 -1,0 C 3,1 km/h (1 Bft) 100 %
21.04.2017 05:50 2,1 C 80 % 1029,9 hPa 0,0 l/m 2,0 km/h (1 Bft) S-SW 205 -1,0 C 6,3 km/h (2 Bft) 100 %
21.04.2017 05:51 2,1 C 80 % 1030,0 hPa 0,0 l/m 1,3 km/h (1 Bft) W 274 -1,0 C 3,1 km/h (1 Bft) 100 %
21.04.2017 05:52 2,2 C 80 % 1029,9 hPa 0,0 l/m 1,2 km/h (1 Bft) W-NW 282 -0,9 C 6,3 km/h (2 Bft) 100 %
21.04.2017 05:53 2,1 C 80 % 1029,9 hPa 0,0 l/m 0,0 km/h (0 Bft) W-SW 255 -1,0 C 0,0 km/h (0 Bft) 93 %
21.04.2017 05:54 2,1 C 80 % 1029,9 hPa 0,0 l/m 2,4 km/h (1 Bft) NW 308 -1,0 C 3,1 km/h (1 Bft) 100 %
21.04.2017 05:55 2,1 C 80 % 1029,9 hPa 0,0 l/m 0,7 km/h (0 Bft) NW 307 -1,0 C 3,1 km/h (1 Bft) 100 %
21.04.2017 05:56 2,1 C 80 % 1029,9 hPa 0,0 l/m 1,7 km/h (1 Bft) NW 310 -1,0 C 6,3 km/h (2 Bft) 100 %
21.04.2017 05:57 2,1 C 80 % 1029,9 hPa 0,0 l/m 2,0 km/h (1 Bft) W 278 -1,0 C 3,1 km/h (1 Bft) 96 %
21.04.2017 05:58 2,2 C 81 % 1029,9 hPa 0,0 l/m 0,1 km/h (0 Bft) W 269 -0,7 C 3,1 km/h (1 Bft) 100 %
21.04.2017 05:59 2,1 C 81 % 1029,9 hPa 0,0 l/m 1,1 km/h (1 Bft) NW 307 -0,8 C 3,1 km/h (1 Bft) 100 %
21.04.2017 06:00 2,2 C 80 % 1030,0 hPa 0,0 l/m 3,0 km/h (1 Bft) W-NW 290 -0,9 C 6,3 km/h (2 Bft) 100 %
21.04.2017 06:01 2,2 C 80 % 1030,0 hPa 0,0 l/m 1,4 km/h (1 Bft) W-SW 247 -0,9 C 3,1 km/h (1 Bft) 100 %
21.04.2017 06:02 2,1 C 80 % 1030,0 hPa 0,0 l/m 2,1 km/h (1 Bft) W-NW 288 -1,0 C 3,1 km/h (1 Bft) 100 %
21.04.2017 06:03 2,2 C 80 % 1029,9 hPa 0,0 l/m 2,7 km/h (1 Bft) W-NW 286 -0,9 C 6,3 km/h (2 Bft) 100 %
21.04.2017 06:04 2,2 C 80 % 1029,9 hPa 0,0 l/m 0,3 km/h (0 Bft) W-NW 289 -0,9 C 3,1 km/h (1 Bft) 100 %
21.04.2017 06:05 2,2 C 80 % 1029,9 hPa 0,0 l/m 0,2 km/h (0 Bft) W 267 -0,9 C 3,1 km/h (1 Bft) 100 %
21.04.2017 06:06 2,2 C 80 % 1029,9 hPa 0,0 l/m 1,9 km/h (1 Bft) W-NW 303 -0,9 C 3,1 km/h (1 Bft) 100 %
21.04.2017 06:07 2,2 C 80 % 1029,9 hPa 0,0 l/m 0,5 km/h (0 Bft) W 271 -0,9 C 3,1 km/h (1 Bft) 100 %
21.04.2017 06:08 2,2 C 80 % 1029,9 hPa 0,0 l/m 1,3 km/h (1 Bft) W 265 -0,9 C 6,3 km/h (2 Bft) 100 %
21.04.2017 06:09 2,2 C 80 % 1029,9 hPa 0,0 l/m 1,0 km/h (0 Bft) W 279 -0,9 C 6,3 km/h (2 Bft) 100 %
21.04.2017 06:10 2,2 C 80 % 1029,9 hPa 0,0 l/m 1,3 km/h (1 Bft) W-NW 303 -0,9 C 3,1 km/h (1 Bft) 100 %
21.04.2017 06:11 2,2 C 80 % 1029,8 hPa 0,0 l/m 0,0 km/h (0 Bft) NW 309 -0,9 C 0,0 km/h (0 Bft) 100 %
21.04.2017 06:12 2,2 C 80 % 1029,9 hPa 0,0 l/m 1,6 km/h (1 Bft) NW 307 -0,9 C 3,1 km/h (1 Bft) 100 %
21.04.2017 06:13 2,2 C 80 % 1029,9 hPa 0,0 l/m 2,4 km/h (1 Bft) W 276 -0,9 C 6,3 km/h (2 Bft) 100 %
21.04.2017 06:14 2,2 C 80 % 1029,9 hPa 0,0 l/m 1,5 km/h (1 Bft) W-NW 292 -0,9 C 3,1 km/h (1 Bft) 100 %
21.04.2017 06:15 2,2 C 80 % 1029,9 hPa 0,0 l/m 1,5 km/h (1 Bft) NW 312 -0,9 C 3,1 km/h (1 Bft) 100 %
21.04.2017 06:16 2,2 C 80 % 1029,8 hPa 0,0 l/m 1,6 km/h (1 Bft) W-SW 258 -0,9 C 3,1 km/h (1 Bft) 100 %
21.04.2017 06:17 2,2 C 80 % 1029,8 hPa 0,0 l/m 1,5 km/h (1 Bft) W-NW 300 -0,9 C 9,4 km/h (2 Bft) 100 %
21.04.2017 06:18 2,3 C 80 % 1029,9 hPa 0,0 l/m 4,4 km/h (1 Bft) W-NW 297 -0,8 C 6,3 km/h (2 Bft) 100 %
21.04.2017 06:19 2,2 C 80 % 1029,9 hPa 0,0 l/m 0,7 km/h (0 Bft) W-NW 293 -0,9 C 3,1 km/h (1 Bft) 100 %
21.04.2017 06:20 2,2 C 80 % 1029,9 hPa 0,0 l/m 0,0 km/h (0 Bft) W 262 -0,9 C 0,0 km/h (0 Bft) 100 %
21.04.2017 06:21 2,3 C 80 % 1029,9 hPa 0,0 l/m 0,7 km/h (0 Bft) SW 236 -0,8 C 3,1 km/h (1 Bft) 100 %
21.04.2017 06:22 2,3 C 80 % 1029,8 hPa 0,0 l/m 0,0 km/h (0 Bft) W-SW 244 -0,8 C 0,0 km/h (0 Bft) 100 %
21.04.2017 06:23 2,3 C 80 % 1029,8 hPa 0,0 l/m 0,1 km/h (0 Bft) W-SW 257 -0,8 C 3,1 km/h (1 Bft) 100 %
21.04.2017 06:24 2,3 C 80 % 1029,8 hPa 0,0 l/m 0,9 km/h (0 Bft) W-NW 288 -0,8 C 3,1 km/h (1 Bft) 100 %
21.04.2017 06:25 2,3 C 80 % 1029,8 hPa 0,0 l/m 1,8 km/h (1 Bft) NW 306 -0,8 C 6,3 km/h (2 Bft) 100 %
21.04.2017 06:26 2,3 C 80 % 1029,8 hPa 0,0 l/m 2,2 km/h (1 Bft) W-NW 282 -0,8 C 3,1 km/h (1 Bft) 100 %
21.04.2017 06:27 2,3 C 80 % 1029,8 hPa 0,0 l/m 2,2 km/h (1 Bft) W 264 -0,8 C 6,3 km/h (2 Bft) 100 %
21.04.2017 06:28 2,3 C 80 % 1029,8 hPa 0,0 l/m 3,0 km/h (1 Bft) W-NW 295 -0,8 C 6,3 km/h (2 Bft) 100 %
21.04.2017 06:29 2,3 C 80 % 1029,8 hPa 0,0 l/m 1,8 km/h (1 Bft) W-NW 285 -0,8 C 3,1 km/h (1 Bft) 100 %
21.04.2017 06:30 2,3 C 80 % 1029,8 hPa 0,0 l/m 1,6 km/h (1 Bft) W 267 -0,8 C 3,1 km/h (1 Bft) 100 %
21.04.2017 06:31 2,3 C 80 % 1029,7 hPa 0,0 l/m 0,8 km/h (0 Bft) NW 309 -0,8 C 3,1 km/h (1 Bft) 100 %
21.04.2017 06:32 2,3 C 80 % 1029,7 hPa 0,0 l/m 2,4 km/h (1 Bft) W-SW 252 -0,8 C 6,3 km/h (2 Bft) 100 %
21.04.2017 06:33 2,3 C 80 % 1029,8 hPa 0,0 l/m 1,8 km/h (1 Bft) NW 304 -0,8 C 6,3 km/h (2 Bft) 100 %
21.04.2017 06:34 2,3 C 80 % 1029,8 hPa 0,0 l/m 1,3 km/h (1 Bft) W-NW 298 -0,8 C 3,1 km/h (1 Bft) 100 %
21.04.2017 06:35 2,3 C 79 % 1029,8 hPa 0,0 l/m 5,2 km/h (1 Bft) NW 311 -1,0 C 12,6 km/h (3 Bft) 100 %
21.04.2017 06:36 2,3 C 79 % 1029,8 hPa 0,0 l/m 1,7 km/h (1 Bft) W-NW 284 -1,0 C 9,4 km/h (2 Bft) 100 %
21.04.2017 06:37 2,3 C 79 % 1029,8 hPa 0,0 l/m 0,5 km/h (0 Bft) NW 309 -1,0 C 3,1 km/h (1 Bft) 100 %
21.04.2017 06:38 2,3 C 80 % 1029,9 hPa 0,0 l/m 2,6 km/h (1 Bft) W-NW 282 -0,8 C 6,3 km/h (2 Bft) 100 %
21.04.2017 06:39 2,3 C 80 % 1029,9 hPa 0,0 l/m 0,5 km/h (0 Bft) NW 311 -0,8 C 3,1 km/h (1 Bft) 100 %
21.04.2017 06:40 2,3 C 79 % 1029,9 hPa 0,0 l/m 3,4 km/h (1 Bft) W 266 -1,0 C 6,3 km/h (2 Bft) 100 %
21.04.2017 06:41 2,3 C 79 % 1029,8 hPa 0,0 l/m 3,0 km/h (1 Bft) W 273 -1,0 C 6,3 km/h (2 Bft) 100 %
21.04.2017 06:42 2,3 C 79 % 1029,8 hPa 0,0 l/m 2,8 km/h (1 Bft) NW 313 -1,0 C 6,3 km/h (2 Bft) 100 %
21.04.2017 06:43 2,3 C 79 % 1029,8 hPa 0,0 l/m 4,7 km/h (1 Bft) W-NW 292 -1,0 C 9,4 km/h (2 Bft) 100 %
21.04.2017 06:44 2,3 C 79 % 1029,8 hPa 0,0 l/m 1,2 km/h (1 Bft) SW 221 -1,0 C 3,1 km/h (1 Bft) 100 %
21.04.2017 06:45 2,4 C 79 % 1029,8 hPa 0,0 l/m 2,7 km/h (1 Bft) W-SW 238 -0,9 C 6,3 km/h (2 Bft) 100 %
21.04.2017 06:46 2,4 C 79 % 1029,8 hPa 0,0 l/m 0,5 km/h (0 Bft) W-SW 243 -0,9 C 3,1 km/h (1 Bft) 100 %
21.04.2017 06:47 2,4 C 79 % 1029,7 hPa 0,0 l/m 2,2 km/h (1 Bft) W 264 -0,9 C 6,3 km/h (2 Bft) 100 %
21.04.2017 06:48 2,4 C 79 % 1029,7 hPa 0,0 l/m 2,2 km/h (1 Bft) SW 226 -0,9 C 3,1 km/h (1 Bft) 100 %
21.04.2017 06:49 2,4 C 79 % 1029,8 hPa 0,0 l/m 5,0 km/h (1 Bft) W 276 -0,9 C 9,4 km/h (2 Bft) 100 %
21.04.2017 06:50 2,4 C 79 % 1029,8 hPa 0,0 l/m 0,8 km/h (0 Bft) W-SW 238 -0,9 C 3,1 km/h (1 Bft) 100 %
21.04.2017 06:51 2,4 C 79 % 1029,8 hPa 0,0 l/m 0,1 km/h (0 Bft) W-SW 240 -0,9 C 3,1 km/h (1 Bft) 100 %
21.04.2017 06:52 2,4 C 79 % 1029,7 hPa 0,0 l/m 1,0 km/h (0 Bft) W-NW 301 -0,9 C 3,1 km/h (1 Bft) 100 %
21.04.2017 06:53 2,4 C 79 % 1029,8 hPa 0,0 l/m 1,0 km/h (0 Bft) W-SW 245 -0,9 C 3,1 km/h (1 Bft) 100 %
21.04.2017 06:54 2,4 C 79 % 1029,7 hPa 0,0 l/m 1,6 km/h (1 Bft) W 271 -0,9 C 3,1 km/h (1 Bft) 100 %
21.04.2017 06:55 2,4 C 79 % 1029,8 hPa 0,0 l/m 0,4 km/h (0 Bft) W 266 -0,9 C 3,1 km/h (1 Bft) 100 %
21.04.2017 06:56 2,4 C 79 % 1029,8 hPa 0,0 l/m 0,3 km/h (0 Bft) SW 235 -0,9 C 3,1 km/h (1 Bft) 100 %
21.04.2017 06:57 2,4 C 79 % 1029,7 hPa 0,0 l/m 0,0 km/h (0 Bft) SW 232 -0,9 C 0,0 km/h (0 Bft) 100 %
21.04.2017 06:58 2,4 C 79 % 1029,7 hPa 0,0 l/m 0,5 km/h (0 Bft) W-SW 255 -0,9 C 3,1 km/h (1 Bft) 100 %
21.04.2017 06:59 2,4 C 79 % 1029,7 hPa 0,0 l/m 0,0 km/h (0 Bft) W 272 -0,9 C 0,0 km/h (0 Bft) 100 %
21.04.2017 07:00 2,4 C 78 % 1029,7 hPa 0,0 l/m 1,0 km/h (0 Bft) W-SW 245 -1,0 C 3,1 km/h (1 Bft) 96 %
21.04.2017 07:01 2,4 C 79 % 1029,7 hPa 0,0 l/m 0,5 km/h (0 Bft) W-SW 242 -0,9 C 3,1 km/h (1 Bft) 100 %
21.04.2017 07:02 2,4 C 79 % 1029,7 hPa 0,0 l/m 0,5 km/h (0 Bft) W-SW 253 -0,9 C 3,1 km/h (1 Bft) 100 %
21.04.2017 07:03 2,4 C 78 % 1029,6 hPa 0,0 l/m 0,9 km/h (0 Bft) W 271 -1,0 C 3,1 km/h (1 Bft) 100 %
21.04.2017 07:04 2,4 C 78 % 1029,7 hPa 0,0 l/m 1,0 km/h (0 Bft) NW 311 -1,0 C 3,1 km/h (1 Bft) 100 %
21.04.2017 07:05 2,4 C 79 % 1029,7 hPa 0,0 l/m 2,2 km/h (1 Bft) W-SW 248 -0,9 C 6,3 km/h (2 Bft) 100 %
21.04.2017 07:06 2,4 C 78 % 1029,8 hPa 0,0 l/m 0,8 km/h (0 Bft) W-SW 240 -1,0 C 3,1 km/h (1 Bft) 100 %
21.04.2017 07:07 2,4 C 78 % 1029,7 hPa 0,0 l/m 1,4 km/h (1 Bft) S-SW 210 -1,0 C 3,1 km/h (1 Bft) 100 %
21.04.2017 07:08 2,5 C 78 % 1029,7 hPa 0,0 l/m 0,5 km/h (0 Bft) W-NW 297 -0,9 C 3,1 km/h (1 Bft) 100 %
21.04.2017 07:09 2,5 C 78 % 1029,8 hPa 0,0 l/m 0,4 km/h (0 Bft) W-SW 252 -0,9 C 3,1 km/h (1 Bft) 100 %
21.04.2017 07:10 2,6 C 78 % 1029,8 hPa 0,0 l/m 1,4 km/h (1 Bft) W-SW 250 -0,8 C 6,3 km/h (2 Bft) 100 %
21.04.2017 07:11 2,6 C 78 % 1029,7 hPa 0,0 l/m 0,7 km/h (0 Bft) W 274 -0,8 C 3,1 km/h (1 Bft) 100 %
21.04.2017 07:12 2,6 C 78 % 1029,8 hPa 0,0 l/m 5,2 km/h (1 Bft) W 281 -0,8 C 9,4 km/h (2 Bft) 100 %
21.04.2017 07:13 2,6 C 78 % 1029,7 hPa 0,0 l/m 1,2 km/h (1 Bft) W-NW 290 -0,8 C 3,1 km/h (1 Bft) 100 %
21.04.2017 07:14 2,6 C 78 % 1029,7 hPa 0,0 l/m 5,6 km/h (1 Bft) W-NW 285 -0,8 C 9,4 km/h (2 Bft) 100 %
21.04.2017 07:15 2,6 C 78 % 1029,7 hPa 0,0 l/m 1,5 km/h (1 Bft) W 270 -0,8 C 3,1 km/h (1 Bft) 100 %
21.04.2017 07:16 2,6 C 78 % 1029,7 hPa 0,0 l/m 0,7 km/h (0 Bft) W 278 -0,8 C 3,1 km/h (1 Bft) 100 %
21.04.2017 07:17 2,6 C 78 % 1029,7 hPa 0,0 l/m 2,8 km/h (1 Bft) SW 230 -0,8 C 6,3 km/h (2 Bft) 100 %
21.04.2017 07:18 2,7 C 78 % 1029,7 hPa 0,0 l/m 0,0 km/h (0 Bft) SW 230 -0,7 C 0,0 km/h (0 Bft) 100 %
21.04.2017 07:19 2,7 C 78 % 1029,7 hPa 0,0 l/m 0,0 km/h (0 Bft) SW 231 -0,7 C 0,0 km/h (0 Bft) 100 %
21.04.2017 07:20 2,7 C 78 % 1029,7 hPa 0,0 l/m 0,3 km/h (0 Bft) S-SW 213 -0,7 C 3,1 km/h (1 Bft) 100 %
21.04.2017 07:21 2,7 C 78 % 1029,7 hPa 0,0 l/m 1,7 km/h (1 Bft) SW 236 -0,7 C 6,3 km/h (2 Bft) 100 %
21.04.2017 07:22 2,7 C 78 % 1029,6 hPa 0,0 l/m 0,7 km/h (0 Bft) W 273 -0,7 C 3,1 km/h (1 Bft) 100 %
21.04.2017 07:23 2,8 C 78 % 1029,7 hPa 0,0 l/m 0,3 km/h (0 Bft) W-SW 257 -0,6 C 3,1 km/h (1 Bft) 100 %
21.04.2017 07:24 2,8 C 78 % 1029,7 hPa 0,0 l/m 0,8 km/h (0 Bft) W 270 -0,6 C 3,1 km/h (1 Bft) 100 %
21.04.2017 07:25 2,8 C 78 % 1029,7 hPa 0,0 l/m 3,3 km/h (1 Bft) W-SW 243 -0,6 C 6,3 km/h (2 Bft) 100 %
21.04.2017 07:26 2,8 C 78 % 1029,7 hPa 0,0 l/m 0,3 km/h (0 Bft) W 269 -0,6 C 3,1 km/h (1 Bft) 100 %
21.04.2017 07:27 2,8 C 78 % 1029,7 hPa 0,0 l/m 1,3 km/h (1 Bft) W-SW 243 -0,6 C 3,1 km/h (1 Bft) 100 %
21.04.2017 07:28 2,8 C 78 % 1029,7 hPa 0,0 l/m 1,5 km/h (1 Bft) W 267 -0,6 C 3,1 km/h (1 Bft) 100 %
21.04.2017 07:29 2,9 C 78 % 1029,7 hPa 0,0 l/m 1,6 km/h (1 Bft) W-SW 249 -0,5 C 6,3 km/h (2 Bft) 100 %
21.04.2017 07:30 2,9 C 78 % 1029,7 hPa 0,0 l/m 0,6 km/h (0 Bft) SW 235 -0,5 C 3,1 km/h (1 Bft) 100 %
21.04.2017 07:31 2,9 C 78 % 1029,7 hPa 0,0 l/m 0,0 km/h (0 Bft) W-SW 251 -0,5 C 0,0 km/h (0 Bft) 100 %
21.04.2017 07:32 2,9 C 77 % 1029,6 hPa 0,0 l/m 1,5 km/h (1 Bft) W-SW 238 -0,7 C 3,1 km/h (1 Bft) 100 %
21.04.2017 07:33 2,9 C 77 % 1029,6 hPa 0,0 l/m 1,1 km/h (1 Bft) W 268 -0,7 C 3,1 km/h (1 Bft) 100 %
21.04.2017 07:34 2,9 C 77 % 1029,6 hPa 0,0 l/m 0,1 km/h (0 Bft) W 266 -0,7 C 3,1 km/h (1 Bft) 100 %
21.04.2017 07:35 3,0 C 77 % 1029,6 hPa 0,0 l/m 1,3 km/h (1 Bft) NW 309 -0,6 C 3,1 km/h (1 Bft) 100 %
21.04.2017 07:36 3,0 C 77 % 1029,6 hPa 0,0 l/m 2,0 km/h (1 Bft) W-NW 285 -0,6 C 6,3 km/h (2 Bft) 100 %
21.04.2017 07:37 3,0 C 77 % 1029,6 hPa 0,0 l/m 0,0 km/h (0 Bft) W-NW 288 -0,6 C 0,0 km/h (0 Bft) 100 %
21.04.2017 07:38 3,1 C 77 % 1029,6 hPa 0,0 l/m 0,8 km/h (0 Bft) W-SW 245 -0,5 C 3,1 km/h (1 Bft) 100 %
21.04.2017 07:39 3,1 C 77 % 1029,6 hPa 0,0 l/m 1,8 km/h (1 Bft) W 278 -0,5 C 6,3 km/h (2 Bft) 100 %
21.04.2017 07:40 3,1 C 77 % 1029,6 hPa 0,0 l/m 0,4 km/h (0 Bft) W 272 -0,5 C 3,1 km/h (1 Bft) 100 %
21.04.2017 07:41 3,1 C 77 % 1029,6 hPa 0,0 l/m 1,7 km/h (1 Bft) W-NW 287 -0,5 C 3,1 km/h (1 Bft) 100 %
21.04.2017 07:42 3,1 C 77 % 1029,6 hPa 0,0 l/m 1,9 km/h (1 Bft) W 281 -0,5 C 6,3 km/h (2 Bft) 100 %
21.04.2017 07:43 3,1 C 76 % 1029,6 hPa 0,0 l/m 1,0 km/h (0 Bft) SW 216 -0,7 C 3,1 km/h (1 Bft) 100 %
21.04.2017 07:44 3,1 C 76 % 1029,6 hPa 0,0 l/m 1,3 km/h (1 Bft) NW 310 -0,7 C 3,1 km/h (1 Bft) 100 %
21.04.2017 07:45 3,1 C 76 % 1029,6 hPa 0,0 l/m 0,3 km/h (0 Bft) W-SW 243 -0,7 C 3,1 km/h (1 Bft) 100 %
21.04.2017 07:46 3,1 C 76 % 1029,6 hPa 0,0 l/m 1,8 km/h (1 Bft) W-NW 291 -0,7 C 6,3 km/h (2 Bft) 100 %
21.04.2017 07:47 3,2 C 76 % 1029,6 hPa 0,0 l/m 1,3 km/h (1 Bft) N-NW 330 -0,6 C 3,1 km/h (1 Bft) 100 %
21.04.2017 07:48 3,2 C 77 % 1029,6 hPa 0,0 l/m 0,3 km/h (0 Bft) W 263 -0,4 C 3,1 km/h (1 Bft) 100 %
21.04.2017 07:49 3,2 C 76 % 1029,6 hPa 0,0 l/m 1,4 km/h (1 Bft) W-NW 283 -0,6 C 6,3 km/h (2 Bft) 100 %
21.04.2017 07:50 3,2 C 76 % 1029,5 hPa 0,0 l/m 1,2 km/h (1 Bft) NW 309 -0,6 C 3,1 km/h (1 Bft) 100 %
21.04.2017 07:51 3,2 C 76 % 1029,5 hPa 0,0 l/m 1,3 km/h (1 Bft) W-NW 303 -0,6 C 3,1 km/h (1 Bft) 100 %
21.04.2017 07:52 3,2 C 76 % 1029,5 hPa 0,0 l/m 1,4 km/h (1 Bft) W-NW 295 -0,6 C 3,1 km/h (1 Bft) 100 %
21.04.2017 07:53 3,2 C 75 % 1029,5 hPa 0,0 l/m 0,0 km/h (0 Bft) W-NW 294 -0,8 C 0,0 km/h (0 Bft) 100 %
21.04.2017 07:54 3,3 C 75 % 1029,5 hPa 0,0 l/m 0,0 km/h (0 Bft) W-NW 293 -0,7 C 0,0 km/h (0 Bft) 100 %
21.04.2017 07:55 3,3 C 76 % 1029,5 hPa 0,0 l/m 0,8 km/h (0 Bft) W-NW 293 -0,5 C 3,1 km/h (1 Bft) 100 %
21.04.2017 07:56 3,3 C 76 % 1029,5 hPa 0,0 l/m 1,6 km/h (1 Bft) W-NW 288 -0,5 C 6,3 km/h (2 Bft) 100 %
21.04.2017 07:57 3,3 C 76 % 1029,5 hPa 0,0 l/m 0,1 km/h (0 Bft) W-NW 288 -0,5 C 3,1 km/h (1 Bft) 100 %
21.04.2017 07:58 3,3 C 76 % 1029,4 hPa 0,0 l/m 0,0 km/h (0 Bft) W-SW 242 -0,5 C 0,0 km/h (0 Bft) 100 %
21.04.2017 07:59 3,3 C 76 % 1029,5 hPa 0,0 l/m 0,0 km/h (0 Bft) W-SW 242 -0,5 C 0,0 km/h (0 Bft) 100 %
21.04.2017 08:00 3,4 C 76 % 1029,5 hPa 0,0 l/m 0,0 km/h (0 Bft) W-SW 242 -0,4 C 0,0 km/h (0 Bft) 100 %
21.04.2017 08:01 3,4 C 75 % 1029,4 hPa 0,0 l/m 0,0 km/h (0 Bft) W-SW 241 -0,6 C 0,0 km/h (0 Bft) 100 %
21.04.2017 08:02 3,5 C 76 % 1029,4 hPa 0,0 l/m 0,0 km/h (0 Bft) W-SW 238 -0,3 C 0,0 km/h (0 Bft) 100 %
21.04.2017 08:03 3,6 C 76 % 1029,4 hPa 0,0 l/m 0,1 km/h (0 Bft) W-SW 238 -0,2 C 3,1 km/h (1 Bft) 100 %
21.04.2017 08:04 3,7 C 75 % 1029,4 hPa 0,0 l/m 0,0 km/h (0 Bft) W-SW 238 -0,3 C 0,0 km/h (0 Bft) 100 %
21.04.2017 08:05 3,7 C 75 % 1029,4 hPa 0,0 l/m 0,0 km/h (0 Bft) W-SW 237 -0,3 C 0,0 km/h (0 Bft) 100 %
21.04.2017 08:06 3,7 C 74 % 1029,4 hPa 0,0 l/m 1,3 km/h (1 Bft) SO 145 -0,5 C 3,1 km/h (1 Bft) 100 %
21.04.2017 08:07 3,8 C 74 % 1029,4 hPa 0,0 l/m 0,0 km/h (0 Bft) S-SO 153 -0,4 C 0,0 km/h (0 Bft) 100 %
21.04.2017 08:08 3,8 C 74 % 1029,4 hPa 0,0 l/m 0,0 km/h (0 Bft) SO 146 -0,4 C 0,0 km/h (0 Bft) 100 %
21.04.2017 08:09 3,9 C 74 % 1029,4 hPa 0,0 l/m 0,0 km/h (0 Bft) S-SO 167 -0,3 C 0,0 km/h (0 Bft) 100 %
21.04.2017 08:10 4,0 C 74 % 1029,4 hPa 0,0 l/m 0,5 km/h (0 Bft) S 190 -0,2 C 6,3 km/h (2 Bft) 100 %
21.04.2017 08:11 4,1 C 74 % 1029,4 hPa 0,0 l/m 1,4 km/h (1 Bft) S 183 -0,1 C 6,3 km/h (2 Bft) 100 %
21.04.2017 08:12 4,1 C 74 % 1029,4 hPa 0,0 l/m 0,0 km/h (0 Bft) S 182 -0,1 C 0,0 km/h (0 Bft) 100 %
21.04.2017 08:13 4,1 C 74 % 1029,4 hPa 0,0 l/m 0,0 km/h (0 Bft) S 177 -0,1 C 0,0 km/h (0 Bft) 100 %
21.04.2017 08:14 4,2 C 73 % 1029,4 hPa 0,0 l/m 1,0 km/h (0 Bft) S 182 -0,2 C 3,1 km/h (1 Bft) 100 %
21.04.2017 08:15 4,2 C 73 % 1029,5 hPa 0,0 l/m 0,0 km/h (0 Bft) S 179 -0,2 C 0,0 km/h (0 Bft) 100 %
21.04.2017 08:16 4,2 C 74 % 1029,5 hPa 0,0 l/m 0,8 km/h (0 Bft) S 185 -0,0 C 3,1 km/h (1 Bft) 100 %
21.04.2017 08:17 4,3 C 73 % 1029,5 hPa 0,0 l/m 0,8 km/h (0 Bft) S 179 -0,1 C 3,1 km/h (1 Bft) 100 %
21.04.2017 08:18 4,4 C 73 % 1029,5 hPa 0,0 l/m 0,0 km/h (0 Bft) S 180 -0,0 C 0,0 km/h (0 Bft) 100 %
21.04.2017 08:19 4,4 C 73 % 1029,5 hPa 0,0 l/m 2,0 km/h (1 Bft) S 178 -0,0 C 6,3 km/h (2 Bft) 100 %
21.04.2017 08:20 4,5 C 72 % 1029,4 hPa 0,0 l/m 0,0 km/h (0 Bft) S 177 -0,1 C 0,0 km/h (0 Bft) 100 %
21.04.2017 08:21 4,6 C 72 % 1029,4 hPa 0,0 l/m 0,0 km/h (0 Bft) S-SW 200 -0,0 C 0,0 km/h (0 Bft) 100 %
21.04.2017 08:22 4,7 C 73 % 1029,4 hPa 0,0 l/m 0,0 km/h (0 Bft) W-SW 242 0,3 C 0,0 km/h (0 Bft) 100 %
21.04.2017 08:23 4,8 C 73 % 1029,4 hPa 0,0 l/m 0,5 km/h (0 Bft) W-SW 246 0,4 C 6,3 km/h (2 Bft) 100 %
21.04.2017 08:24 4,8 C 72 % 1029,5 hPa 0,0 l/m 1,0 km/h (0 Bft) W 281 0,2 C 3,1 km/h (1 Bft) 94 %
21.04.2017 08:25 4,9 C 71 % 1029,4 hPa 0,0 l/m 0,1 km/h (0 Bft) W 280 0,1 C 3,1 km/h (1 Bft) 100 %
21.04.2017 08:26 4,9 C 71 % 1029,4 hPa 0,0 l/m 0,8 km/h (0 Bft) W 259 0,1 C 3,1 km/h (1 Bft) 100 %
21.04.2017 08:27 5,0 C 71 % 1029,4 hPa 0,0 l/m 1,2 km/h (1 Bft) W 259 0,2 C 3,1 km/h (1 Bft) 92 %
21.04.2017 08:28 5,0 C 70 % 1029,4 hPa 0,0 l/m 0,4 km/h (0 Bft) W 259 -0,0 C 3,1 km/h (1 Bft) 100 %
21.04.2017 08:29 5,1 C 70 % 1029,4 hPa 0,0 l/m 1,6 km/h (1 Bft) N-NW 346 0,1 C 6,3 km/h (2 Bft) 96 %
21.04.2017 08:30 5,1 C 70 % 1029,5 hPa 0,0 l/m 2,2 km/h (1 Bft) NW 316 0,1 C 6,3 km/h (2 Bft) 100 %
21.04.2017 08:31 5,1 C 70 % 1029,4 hPa 0,0 l/m 2,5 km/h (1 Bft) W 281 0,1 C 6,3 km/h (2 Bft) 100 %
21.04.2017 08:32 5,1 C 71 % 1029,4 hPa 0,0 l/m 0,6 km/h (0 Bft) NW 308 0,3 C 3,1 km/h (1 Bft) 97 %
21.04.2017 08:33 5,1 C 71 % 1029,4 hPa 0,0 l/m 0,4 km/h (0 Bft) W-SW 243 0,3 C 3,1 km/h (1 Bft) 100 %
21.04.2017 08:34 5,1 C 70 % 1029,4 hPa 0,0 l/m 1,0 km/h (0 Bft) SW 225 0,1 C 3,1 km/h (1 Bft) 100 %
21.04.2017 08:35 5,1 C 71 % 1029,4 hPa 0,0 l/m 3,7 km/h (1 Bft) S-SW 206 0,3 C 6,3 km/h (2 Bft) 97 %
21.04.2017 08:36 5,1 C 71 % 1029,4 hPa 0,0 l/m 0,5 km/h (0 Bft) NW 316 0,3 C 3,1 km/h (1 Bft) 100 %
21.04.2017 08:37 5,1 C 70 % 1029,4 hPa 0,0 l/m 0,0 km/h (0 Bft) S-SW 207 0,1 C 0,0 km/h (0 Bft) 96 %
21.04.2017 08:38 5,2 C 71 % 1029,4 hPa 0,0 l/m 0,9 km/h (0 Bft) SW 229 0,4 C 3,1 km/h (1 Bft) 96 %
21.04.2017 08:39 5,2 C 70 % 1029,4 hPa 0,0 l/m 0,5 km/h (0 Bft) SW 236 0,2 C 3,1 km/h (1 Bft) 100 %
21.04.2017 08:40 5,2 C 70 % 1029,4 hPa 0,0 l/m 0,1 km/h (0 Bft) SW 236 0,2 C 3,1 km/h (1 Bft) 96 %
21.04.2017 08:41 5,2 C 70 % 1029,4 hPa 0,0 l/m 0,0 km/h (0 Bft) SW 236 0,2 C 0,0 km/h (0 Bft) 100 %
21.04.2017 08:42 5,3 C 70 % 1029,4 hPa 0,0 l/m 0,3 km/h (0 Bft) NW 316 0,3 C 3,1 km/h (1 Bft) 96 %
21.04.2017 08:43 5,3 C 70 % 1029,4 hPa 0,0 l/m 1,6 km/h (1 Bft) S-SW 212 0,3 C 3,1 km/h (1 Bft) 100 %
21.04.2017 08:44 5,3 C 70 % 1029,4 hPa 0,0 l/m 0,1 km/h (0 Bft) W-SW 250 0,3 C 3,1 km/h (1 Bft) 96 %
21.04.2017 08:45 5,4 C 69 % 1029,3 hPa 0,0 l/m 0,8 km/h (0 Bft) SW 236 0,2 C 3,1 km/h (1 Bft) 100 %
21.04.2017 08:47 5,4 C 69 % 1029,4 hPa 0,0 l/m 1,0 km/h (0 Bft) W-SW 250 0,2 C 3,1 km/h (1 Bft) 96 %
21.04.2017 08:48 5,4 C 69 % 1029,4 hPa 0,0 l/m 0,8 km/h (0 Bft) W 276 0,2 C 3,1 km/h (1 Bft) 100 %
21.04.2017 08:49 5,4 C 70 % 1029,4 hPa 0,0 l/m 1,6 km/h (1 Bft) SW 221 0,4 C 6,3 km/h (2 Bft) 96 %
21.04.2017 08:50 5,4 C 69 % 1029,4 hPa 0,0 l/m 1,2 km/h (1 Bft) W 261 0,2 C 3,1 km/h (1 Bft) 100 %
21.04.2017 08:51 5,5 C 69 % 1029,4 hPa 0,0 l/m 0,8 km/h (0 Bft) W 273 0,3 C 3,1 km/h (1 Bft) 92 %
21.04.2017 08:52 5,5 C 69 % 1029,4 hPa 0,0 l/m 4,3 km/h (1 Bft) S-SW 208 0,3 C 6,3 km/h (2 Bft) 100 %
21.04.2017 08:53 5,5 C 68 % 1029,4 hPa 0,0 l/m 0,0 km/h (0 Bft) W 278 0,1 C 0,0 km/h (0 Bft) 96 %
21.04.2017 08:54 5,5 C 68 % 1029,4 hPa 0,0 l/m 0,1 km/h (0 Bft) S-SW 207 0,1 C 3,1 km/h (1 Bft) 100 %
21.04.2017 08:55 5,5 C 69 % 1029,4 hPa 0,0 l/m 3,5 km/h (1 Bft) W 273 0,3 C 6,3 km/h (2 Bft) 100 %
21.04.2017 08:56 5,5 C 69 % 1029,4 hPa 0,0 l/m 1,6 km/h (1 Bft) W-NW 297 0,3 C 3,1 km/h (1 Bft) 100 %
21.04.2017 08:57 5,6 C 69 % 1029,4 hPa 0,0 l/m 0,0 km/h (0 Bft) S-SW 208 0,4 C 0,0 km/h (0 Bft) 100 %
21.04.2017 08:58 5,6 C 70 % 1029,4 hPa 0,0 l/m 2,8 km/h (1 Bft) W 276 0,6 C 6,3 km/h (2 Bft) 100 %
21.04.2017 08:59 5,6 C 70 % 1029,4 hPa 0,0 l/m 1,0 km/h (0 Bft) W-SW 253 0,6 C 3,1 km/h (1 Bft) 100 %
21.04.2017 09:00 5,6 C 70 % 1029,4 hPa 0,0 l/m 0,3 km/h (0 Bft) W 277 0,6 C 3,1 km/h (1 Bft) 100 %
21.04.2017 09:01 5,6 C 70 % 1029,4 hPa 0,0 l/m 0,8 km/h (0 Bft) W-NW 299 0,6 C 3,1 km/h (1 Bft) 100 %
21.04.2017 09:02 5,6 C 71 % 1029,4 hPa 0,0 l/m 1,9 km/h (1 Bft) W 271 0,8 C 6,3 km/h (2 Bft) 100 %
21.04.2017 09:03 5,6 C 70 % 1029,4 hPa 0,0 l/m 6,7 km/h (2 Bft) SW 233 0,6 C 12,6 km/h (3 Bft) 100 %
21.04.2017 09:04 5,6 C 71 % 1029,4 hPa 0,0 l/m 4,3 km/h (1 Bft) NW 316 0,8 C 6,3 km/h (2 Bft) 100 %
21.04.2017 09:10 5,6 C 70 % 1029,5 hPa 0,0 l/m 2,8 km/h (1 Bft) W-NW 303 0,6 C 6,3 km/h (2 Bft) 100 %
21.04.2017 09:12 5,6 C 71 % 1029,4 hPa 0,0 l/m 3,7 km/h (1 Bft) W-NW 302 0,8 C 9,4 km/h (2 Bft) 100 %
21.04.2017 09:13 5,6 C 70 % 1029,4 hPa 0,0 l/m 4,6 km/h (1 Bft) NW 314 0,6 C 6,3 km/h (2 Bft) 100 %
21.04.2017 09:15 5,6 C 71 % 1029,4 hPa 0,0 l/m 4,2 km/h (1 Bft) W-SW 253 0,8 C 6,3 km/h (2 Bft) 100 %
21.04.2017 09:16 5,6 C 71 % 1029,4 hPa 0,0 l/m 2,5 km/h (1 Bft) W-NW 297 0,8 C 6,3 km/h (2 Bft) 100 %
21.04.2017 09:17 5,7 C 71 % 1029,4 hPa 0,0 l/m 0,1 km/h (0 Bft) W-NW 297 0,9 C 3,1 km/h (1 Bft) 100 %
21.04.2017 09:18 5,7 C 71 % 1029,4 hPa 0,0 l/m 0,2 km/h (0 Bft) W-SW 244 0,9 C 3,1 km/h (1 Bft) 100 %
21.04.2017 09:19 5,7 C 71 % 1029,4 hPa 0,0 l/m 1,6 km/h (1 Bft) W-NW 283 0,9 C 3,1 km/h (1 Bft) 100 %
21.04.2017 09:20 5,7 C 70 % 1029,4 hPa 0,0 l/m 1,2 km/h (1 Bft) W-NW 288 0,7 C 3,1 km/h (1 Bft) 100 %
21.04.2017 09:21 5,8 C 71 % 1029,4 hPa 0,0 l/m 0,1 km/h (0 Bft) W-NW 288 1,0 C 3,1 km/h (1 Bft) 100 %
21.04.2017 09:22 5,8 C 71 % 1029,4 hPa 0,0 l/m 1,6 km/h (1 Bft) SW 223 1,0 C 3,1 km/h (1 Bft) 100 %
21.04.2017 09:23 5,8 C 71 % 1029,4 hPa 0,0 l/m 0,5 km/h (0 Bft) SW 229 1,0 C 3,1 km/h (1 Bft) 100 %
21.04.2017 09:24 5,9 C 71 % 1029,4 hPa 0,0 l/m 2,9 km/h (1 Bft) NW 307 1,1 C 6,3 km/h (2 Bft) 100 %
21.04.2017 09:25 5,9 C 70 % 1029,4 hPa 0,0 l/m 1,8 km/h (1 Bft) NW 310 0,9 C 6,3 km/h (2 Bft) 100 %
21.04.2017 09:26 6,0 C 71 % 1029,4 hPa 0,0 l/m 0,0 km/h (0 Bft) NW 310 1,1 C 0,0 km/h (0 Bft) 100 %
21.04.2017 09:27 6,1 C 71 % 1029,4 hPa 0,0 l/m 1,3 km/h (1 Bft) W-NW 299 1,2 C 3,1 km/h (1 Bft) 100 %
21.04.2017 09:28 6,1 C 70 % 1029,3 hPa 0,0 l/m 1,3 km/h (1 Bft) W-SW 246 1,0 C 3,1 km/h (1 Bft) 100 %
21.04.2017 09:29 6,2 C 70 % 1029,3 hPa 0,0 l/m 1,0 km/h (0 Bft) W 272 1,1 C 3,1 km/h (1 Bft) 100 %
21.04.2017 09:30 6,3 C 70 % 1029,2 hPa 0,0 l/m 1,4 km/h (1 Bft) NW 306 1,2 C 3,1 km/h (1 Bft) 100 %
21.04.2017 09:31 6,3 C 70 % 1029,3 hPa 0,0 l/m 3,0 km/h (1 Bft) W 274 1,2 C 6,3 km/h (2 Bft) 100 %
21.04.2017 09:32 6,4 C 70 % 1029,4 hPa 0,0 l/m 3,1 km/h (1 Bft) W-NW 289 1,3 C 6,3 km/h (2 Bft) 100 %
21.04.2017 09:33 6,6 C 69 % 1029,4 hPa 0,0 l/m 4,2 km/h (1 Bft) W 279 1,3 C 9,4 km/h (2 Bft) 100 %
21.04.2017 09:34 6,7 C 68 % 1029,3 hPa 0,0 l/m 3,1 km/h (1 Bft) W 278 1,2 C 6,3 km/h (2 Bft) 100 %
21.04.2017 09:35 6,8 C 67 % 1029,3 hPa 0,0 l/m 5,5 km/h (1 Bft) W-NW 295 1,1 C 9,4 km/h (2 Bft) 100 %
21.04.2017 09:36 6,9 C 66 % 1029,3 hPa 0,0 l/m 7,5 km/h (2 Bft) W-NW 289 1,0 C 12,6 km/h (3 Bft) 100 %
21.04.2017 09:37 7,0 C 66 % 1029,3 hPa 0,0 l/m 4,9 km/h (1 Bft) W 268 1,1 C 9,4 km/h (2 Bft) 100 %
21.04.2017 09:38 7,1 C 66 % 1029,3 hPa 0,0 l/m 6,0 km/h (2 Bft) W 274 1,2 C 9,4 km/h (2 Bft) 100 %
21.04.2017 09:39 7,1 C 66 % 1029,3 hPa 0,0 l/m 6,0 km/h (2 Bft) S-SW 207 1,2 C 15,7 km/h (3 Bft) 100 %
21.04.2017 09:40 7,2 C 65 % 1029,3 hPa 0,0 l/m 10,3 km/h (2 Bft) W 275 1,1 C 12,6 km/h (3 Bft) 100 %
21.04.2017 09:41 7,3 C 64 % 1029,3 hPa 0,0 l/m 11,1 km/h (2 Bft) SW 236 1,0 C 22,0 km/h (4 Bft) 100 %
21.04.2017 09:42 7,3 C 65 % 1029,3 hPa 0,0 l/m 3,1 km/h (1 Bft) SW 232 1,2 C 9,4 km/h (2 Bft) 100 %
21.04.2017 09:43 7,4 C 64 % 1029,4 hPa 0,0 l/m 10,3 km/h (2 Bft) W 266 1,0 C 12,6 km/h (3 Bft) 100 %
21.04.2017 09:44 7,4 C 64 % 1029,3 hPa 0,0 l/m 4,2 km/h (1 Bft) W-SW 255 1,0 C 9,4 km/h (2 Bft) 100 %
21.04.2017 09:45 7,6 C 63 % 1029,3 hPa 0,0 l/m 5,2 km/h (1 Bft) SW 235 1,0 C 9,4 km/h (2 Bft) 100 %
21.04.2017 09:46 7,6 C 63 % 1029,3 hPa 0,0 l/m 5,3 km/h (1 Bft) N-NW 334 1,0 C 12,6 km/h (3 Bft) 100 %
21.04.2017 09:47 7,7 C 62 % 1029,3 hPa 0,0 l/m 5,1 km/h (1 Bft) W-SW 249 0,9 C 9,4 km/h (2 Bft) 100 %
21.04.2017 09:48 7,7 C 62 % 1029,3 hPa 0,0 l/m 5,6 km/h (1 Bft) W-NW 288 0,9 C 9,4 km/h (2 Bft) 100 %
21.04.2017 09:49 7,8 C 63 % 1029,3 hPa 0,0 l/m 7,1 km/h (2 Bft) S-SO 147 1,2 C 12,6 km/h (3 Bft) 100 %
21.04.2017 09:50 7,8 C 62 % 1029,2 hPa 0,0 l/m 4,2 km/h (1 Bft) W 277 1,0 C 9,4 km/h (2 Bft) 100 %
21.04.2017 09:51 7,9 C 61 % 1029,3 hPa 0,0 l/m 8,5 km/h (2 Bft) W 264 0,9 C 15,7 km/h (3 Bft) 100 %
21.04.2017 09:52 7,9 C 61 % 1029,3 hPa 0,0 l/m 7,4 km/h (2 Bft) SW 234 0,9 C 15,7 km/h (3 Bft) 100 %
21.04.2017 09:53 7,9 C 61 % 1029,2 hPa 0,0 l/m 4,1 km/h (1 Bft) W 279 0,9 C 9,4 km/h (2 Bft) 100 %
21.04.2017 09:54 7,9 C 61 % 1029,2 hPa 0,0 l/m 1,7 km/h (1 Bft) W-NW 295 0,9 C 3,1 km/h (1 Bft) 100 %
21.04.2017 09:55 7,9 C 61 % 1029,2 hPa 0,0 l/m 2,1 km/h (1 Bft) W-NW 302 0,9 C 6,3 km/h (2 Bft) 100 %
21.04.2017 09:56 7,9 C 62 % 1029,3 hPa 0,0 l/m 2,4 km/h (1 Bft) W-NW 288 1,1 C 6,3 km/h (2 Bft) 100 %
21.04.2017 09:57 8,0 C 62 % 1029,3 hPa 0,0 l/m 1,7 km/h (1 Bft) SW 229 1,2 C 6,3 km/h (2 Bft) 100 %
21.04.2017 09:58 8,0 C 62 % 1029,3 hPa 0,0 l/m 2,7 km/h (1 Bft) W 269 1,2 C 3,1 km/h (1 Bft) 100 %
21.04.2017 09:59 8,1 C 61 % 1029,3 hPa 0,0 l/m 6,9 km/h (2 Bft) W 262 1,0 C 15,7 km/h (3 Bft) 100 %
21.04.2017 10:00 8,1 C 61 % 1029,3 hPa 0,0 l/m 5,5 km/h (1 Bft) W-SW 253 1,0 C 9,4 km/h (2 Bft) 100 %
21.04.2017 10:01 8,1 C 61 % 1029,3 hPa 0,0 l/m 4,2 km/h (1 Bft) N-NW 332 1,0 C 15,7 km/h (3 Bft) 100 %
21.04.2017 10:02 8,2 C 61 % 1029,3 hPa 0,0 l/m 6,4 km/h (2 Bft) W-NW 295 1,1 C 12,6 km/h (3 Bft) 100 %
21.04.2017 10:03 8,2 C 61 % 1029,3 hPa 0,0 l/m 2,9 km/h (1 Bft) W-SW 243 1,1 C 6,3 km/h (2 Bft) 100 %
21.04.2017 10:04 8,2 C 62 % 1029,3 hPa 0,0 l/m 0,0 km/h (0 Bft) W-SW 241 1,4 C 0,0 km/h (0 Bft) 100 %
21.04.2017 10:05 8,3 C 62 % 1029,3 hPa 0,0 l/m 1,5 km/h (1 Bft) W 280 1,5 C 6,3 km/h (2 Bft) 100 %
21.04.2017 10:06 8,3 C 61 % 1029,2 hPa 0,0 l/m 6,6 km/h (2 Bft) W-NW 282 1,2 C 12,6 km/h (3 Bft) 100 %
21.04.2017 10:07 8,3 C 61 % 1029,3 hPa 0,0 l/m 4,8 km/h (1 Bft) N 354 1,2 C 6,3 km/h (2 Bft) 100 %
21.04.2017 10:08 8,3 C 61 % 1029,3 hPa 0,0 l/m 0,4 km/h (0 Bft) NW 307 1,2 C 3,1 km/h (1 Bft) 100 %
21.04.2017 10:09 8,3 C 61 % 1029,3 hPa 0,0 l/m 6,7 km/h (2 Bft) NW 316 1,2 C 15,7 km/h (3 Bft) 96 %
21.04.2017 10:10 8,3 C 61 % 1029,3 hPa 0,0 l/m 2,7 km/h (1 Bft) W-NW 291 1,2 C 6,3 km/h (2 Bft) 100 %
21.04.2017 10:11 8,3 C 60 % 1029,3 hPa 0,0 l/m 4,1 km/h (1 Bft) N-NO 20 1,0 C 6,3 km/h (2 Bft) 100 %
21.04.2017 10:12 8,3 C 60 % 1029,3 hPa 0,0 l/m 0,8 km/h (0 Bft) W-NW 300 1,0 C 3,1 km/h (1 Bft) 100 %
21.04.2017 10:13 8,4 C 61 % 1029,4 hPa 0,0 l/m 1,0 km/h (0 Bft) W-SW 238 1,3 C 3,1 km/h (1 Bft) 100 %
21.04.2017 10:14 8,4 C 61 % 1029,4 hPa 0,0 l/m 0,5 km/h (0 Bft) NW 314 1,3 C 3,1 km/h (1 Bft) 100 %
21.04.2017 10:15 8,4 C 62 % 1029,4 hPa 0,0 l/m 0,1 km/h (0 Bft) W 271 1,6 C 3,1 km/h (1 Bft) 100 %
21.04.2017 10:16 8,4 C 61 % 1029,3 hPa 0,0 l/m 0,9 km/h (0 Bft) SW 223 1,3 C 3,1 km/h (1 Bft) 96 %
21.04.2017 10:17 8,4 C 62 % 1029,3 hPa 0,0 l/m 0,1 km/h (0 Bft) W-SW 250 1,6 C 3,1 km/h (1 Bft) 100 %
21.04.2017 10:18 8,4 C 61 % 1029,3 hPa 0,0 l/m 0,5 km/h (0 Bft) W-NW 287 1,3 C 3,1 km/h (1 Bft) 96 %
21.04.2017 10:19 8,5 C 61 % 1029,3 hPa 0,0 l/m 3,1 km/h (1 Bft) W 265 1,4 C 6,3 km/h (2 Bft) 97 %
21.04.2017 10:20 8,5 C 61 % 1029,3 hPa 0,0 l/m 0,9 km/h (0 Bft) W-NW 289 1,4 C 3,1 km/h (1 Bft) 100 %
21.04.2017 10:21 8,5 C 61 % 1029,3 hPa 0,0 l/m 0,1 km/h (0 Bft) NW 313 1,4 C 3,1 km/h (1 Bft) 96 %
21.04.2017 10:22 8,6 C 61 % 1029,3 hPa 0,0 l/m 1,0 km/h (0 Bft) W 281 1,5 C 3,1 km/h (1 Bft) 100 %
21.04.2017 10:23 8,6 C 61 % 1029,3 hPa 0,0 l/m 6,6 km/h (2 Bft) W-SW 245 1,5 C 12,6 km/h (3 Bft) 96 %
21.04.2017 10:24 8,6 C 61 % 1029,3 hPa 0,0 l/m 4,6 km/h (1 Bft) NW 326 1,5 C 12,6 km/h (3 Bft) 100 %
21.04.2017 10:25 8,6 C 62 % 1029,2 hPa 0,0 l/m 4,2 km/h (1 Bft) W-NW 292 1,7 C 9,4 km/h (2 Bft) 93 %
21.04.2017 10:26 8,7 C 62 % 1029,2 hPa 0,0 l/m 3,0 km/h (1 Bft) W-NW 298 1,8 C 3,1 km/h (1 Bft) 100 %
21.04.2017 10:27 8,7 C 61 % 1029,2 hPa 0,0 l/m 4,7 km/h (1 Bft) NW 313 1,6 C 12,6 km/h (3 Bft) 96 %
21.04.2017 10:28 8,7 C 61 % 1029,2 hPa 0,0 l/m 6,7 km/h (2 Bft) NW 306 1,6 C 9,4 km/h (2 Bft) 100 %
21.04.2017 10:29 8,7 C 61 % 1029,2 hPa 0,0 l/m 8,9 km/h (2 Bft) W-NW 297 1,6 C 15,7 km/h (3 Bft) 100 %
21.04.2017 10:30 8,7 C 61 % 1029,2 hPa 0,0 l/m 6,3 km/h (2 Bft) NW 310 1,6 C 9,4 km/h (2 Bft) 100 %
21.04.2017 10:31 8,8 C 61 % 1029,1 hPa 0,0 l/m 5,8 km/h (2 Bft) NW 305 1,7 C 9,4 km/h (2 Bft) 100 %
21.04.2017 10:32 8,8 C 61 % 1029,1 hPa 0,0 l/m 4,1 km/h (1 Bft) NW 319 1,7 C 9,4 km/h (2 Bft) 100 %
21.04.2017 10:33 8,8 C 61 % 1029,2 hPa 0,0 l/m 8,9 km/h (2 Bft) NW 323 1,7 C 15,7 km/h (3 Bft) 100 %
21.04.2017 10:34 8,8 C 61 % 1029,1 hPa 0,0 l/m 6,4 km/h (2 Bft) W-NW 303 1,7 C 9,4 km/h (2 Bft) 100 %
21.04.2017 10:35 8,8 C 62 % 1029,2 hPa 0,0 l/m 5,6 km/h (1 Bft) W 268 1,9 C 9,4 km/h (2 Bft) 100 %
21.04.2017 10:36 8,9 C 62 % 1029,2 hPa 0,0 l/m 6,1 km/h (2 Bft) W-NW 301 2,0 C 12,6 km/h (3 Bft) 100 %
21.04.2017 10:37 8,9 C 62 % 1029,1 hPa 0,0 l/m 4,5 km/h (1 Bft) W-SW 246 2,0 C 9,4 km/h (2 Bft) 100 %
21.04.2017 10:38 9,0 C 63 % 1029,1 hPa 0,0 l/m 1,2 km/h (1 Bft) SW 220 2,3 C 9,4 km/h (2 Bft) 100 %
21.04.2017 10:39 9,0 C 63 % 1029,1 hPa 0,0 l/m 4,1 km/h (1 Bft) W 262 2,3 C 15,7 km/h (3 Bft) 100 %
21.04.2017 10:40 9,1 C 62 % 1029,1 hPa 0,0 l/m 6,9 km/h (2 Bft) W 275 2,2 C 12,6 km/h (3 Bft) 100 %
21.04.2017 10:41 9,1 C 63 % 1029,1 hPa 0,0 l/m 4,8 km/h (1 Bft) NW 305 2,4 C 6,3 km/h (2 Bft) 100 %
21.04.2017 10:42 9,1 C 63 % 1029,1 hPa 0,0 l/m 2,6 km/h (1 Bft) NW 306 2,4 C 6,3 km/h (2 Bft) 100 %
21.04.2017 10:43 9,1 C 63 % 1029,1 hPa 0,0 l/m 6,4 km/h (2 Bft) W-NW 303 2,4 C 15,7 km/h (3 Bft) 100 %
21.04.2017 10:44 9,1 C 64 % 1029,0 hPa 0,0 l/m 5,8 km/h (2 Bft) NW 314 2,7 C 12,6 km/h (3 Bft) 100 %
21.04.2017 10:45 9,1 C 64 % 1029,1 hPa 0,0 l/m 12,7 km/h (3 Bft) W-NW 292 2,7 C 18,8 km/h (3 Bft) 100 %
21.04.2017 10:46 9,1 C 64 % 1029,0 hPa 0,0 l/m 11,4 km/h (2 Bft) W-NW 288 2,7 C 28,2 km/h (4 Bft) 100 %
21.04.2017 10:47 9,0 C 64 % 1029,0 hPa 0,0 l/m 14,6 km/h (3 Bft) W 274 2,6 C 34,5 km/h (5 Bft) 100 %
21.04.2017 10:48 9,0 C 65 % 1029,0 hPa 0,0 l/m 9,7 km/h (2 Bft) W-SW 244 2,8 C 18,8 km/h (3 Bft) 100 %
21.04.2017 10:49 9,0 C 65 % 1029,0 hPa 0,0 l/m 10,7 km/h (2 Bft) W-NW 303 2,8 C 15,7 km/h (3 Bft) 100 %
21.04.2017 10:50 9,0 C 65 % 1029,0 hPa 0,0 l/m 7,6 km/h (2 Bft) S-SW 210 2,8 C 15,7 km/h (3 Bft) 100 %
21.04.2017 10:51 9,0 C 65 % 1028,9 hPa 0,0 l/m 9,8 km/h (2 Bft) W 272 2,8 C 22,0 km/h (4 Bft) 100 %
21.04.2017 10:52 9,0 C 65 % 1028,9 hPa 0,0 l/m 10,9 km/h (2 Bft) W-NW 283 2,8 C 18,8 km/h (3 Bft) 100 %
21.04.2017 10:53 9,0 C 65 % 1028,9 hPa 0,0 l/m 8,2 km/h (2 Bft) W-NW 293 2,8 C 15,7 km/h (3 Bft) 100 %
21.04.2017 10:54 9,0 C 65 % 1029,0 hPa 0,0 l/m 9,3 km/h (2 Bft) SW 224 2,8 C 15,7 km/h (3 Bft) 100 %
21.04.2017 10:55 9,1 C 65 % 1029,0 hPa 0,0 l/m 10,1 km/h (2 Bft) W-SW 250 2,9 C 15,7 km/h (3 Bft) 100 %
21.04.2017 10:56 9,1 C 66 % 1028,9 hPa 0,0 l/m 12,2 km/h (2 Bft) W-NW 289 3,1 C 28,2 km/h (4 Bft) 100 %
21.04.2017 10:57 9,1 C 66 % 1028,9 hPa 0,0 l/m 14,7 km/h (3 Bft) SW 219 3,1 C 25,1 km/h (4 Bft) 100 %
21.04.2017 10:58 9,1 C 66 % 1028,9 hPa 0,0 l/m 17,6 km/h (3 Bft) W-NW 290 3,1 C 31,4 km/h (5 Bft) 100 %
21.04.2017 10:59 9,1 C 67 % 1029,0 hPa 0,0 l/m 10,6 km/h (2 Bft) SW 229 3,3 C 18,8 km/h (3 Bft) 100 %
21.04.2017 11:00 9,1 C 67 % 1029,0 hPa 0,0 l/m 9,7 km/h (2 Bft) W-NW 302 3,3 C 25,1 km/h (4 Bft) 100 %
21.04.2017 11:01 9,1 C 66 % 1029,0 hPa 0,0 l/m 10,8 km/h (2 Bft) NW 306 3,1 C 18,8 km/h (3 Bft) 100 %
21.04.2017 11:02 9,1 C 66 % 1029,0 hPa 0,0 l/m 6,3 km/h (2 Bft) W-NW 296 3,1 C 15,7 km/h (3 Bft) 100 %
21.04.2017 11:03 9,2 C 66 % 1029,0 hPa 0,0 l/m 6,1 km/h (2 Bft) W-SW 245 3,2 C 9,4 km/h (2 Bft) 100 %
21.04.2017 11:04 9,2 C 66 % 1029,0 hPa 0,0 l/m 12,4 km/h (3 Bft) W-NW 299 3,2 C 22,0 km/h (4 Bft) 100 %
21.04.2017 11:05 9,2 C 66 % 1028,9 hPa 0,0 l/m 8,5 km/h (2 Bft) NW 316 3,2 C 18,8 km/h (3 Bft) 100 %
21.04.2017 11:06 9,3 C 66 % 1028,9 hPa 0,0 l/m 11,7 km/h (2 Bft) W-SW 257 3,3 C 18,8 km/h (3 Bft) 100 %
21.04.2017 11:07 9,3 C 66 % 1028,9 hPa 0,0 l/m 5,2 km/h (1 Bft) W-NW 288 3,3 C 9,4 km/h (2 Bft) 100 %
21.04.2017 11:08 9,3 C 67 % 1028,9 hPa 0,0 l/m 6,3 km/h (2 Bft) W-NW 295 3,5 C 9,4 km/h (2 Bft) 100 %
21.04.2017 11:09 9,4 C 67 % 1028,9 hPa 0,0 l/m 6,1 km/h (2 Bft) W-NW 299 3,6 C 12,6 km/h (3 Bft) 100 %
21.04.2017 11:10 9,4 C 67 % 1028,9 hPa 0,0 l/m 15,7 km/h (3 Bft) W 273 3,6 C 25,1 km/h (4 Bft) 100 %
21.04.2017 11:11 9,5 C 64 % 1028,8 hPa 0,0 l/m 9,6 km/h (2 Bft) W-NW 283 3,0 C 22,0 km/h (4 Bft) 100 %
21.04.2017 11:12 9,4 C 64 % 1028,9 hPa 0,0 l/m 12,0 km/h (2 Bft) W-SW 238 2,9 C 22,0 km/h (4 Bft) 100 %
21.04.2017 11:13 9,4 C 64 % 1028,8 hPa 0,0 l/m 12,9 km/h (3 Bft) W 269 2,9 C 22,0 km/h (4 Bft) 100 %
21.04.2017 11:14 9,4 C 64 % 1028,9 hPa 0,0 l/m 14,8 km/h (3 Bft) SW 231 2,9 C 25,1 km/h (4 Bft) 100 %
21.04.2017 11:15 9,4 C 64 % 1028,9 hPa 0,0 l/m 19,0 km/h (3 Bft) N-NW 329 2,9 C 28,2 km/h (4 Bft) 100 %
21.04.2017 11:16 9,4 C 64 % 1028,9 hPa 0,0 l/m 12,7 km/h (3 Bft) W-NW 287 2,9 C 18,8 km/h (3 Bft) 100 %
21.04.2017 11:17 9,4 C 64 % 1028,9 hPa 0,0 l/m 13,1 km/h (3 Bft) S-SW 202 2,9 C 18,8 km/h (3 Bft) 100 %
21.04.2017 11:18 9,4 C 64 % 1028,7 hPa 0,0 l/m 14,9 km/h (3 Bft) W-NW 285 2,9 C 22,0 km/h (4 Bft) 100 %
21.04.2017 11:19 9,4 C 64 % 1028,8 hPa 0,0 l/m 13,0 km/h (3 Bft) W-NW 283 2,9 C 22,0 km/h (4 Bft) 100 %
21.04.2017 11:20 9,4 C 64 % 1028,8 hPa 0,0 l/m 13,7 km/h (3 Bft) W-NW 297 2,9 C 28,2 km/h (4 Bft) 100 %
21.04.2017 11:21 9,4 C 64 % 1028,8 hPa 0,0 l/m 12,8 km/h (3 Bft) SW 230 2,9 C 22,0 km/h (4 Bft) 100 %
21.04.2017 11:22 9,4 C 64 % 1028,8 hPa 0,0 l/m 10,0 km/h (2 Bft) NW 312 2,9 C 18,8 km/h (3 Bft) 100 %
21.04.2017 11:23 9,4 C 64 % 1028,8 hPa 0,0 l/m 9,7 km/h (2 Bft) W-SW 256 2,9 C 25,1 km/h (4 Bft) 100 %
21.04.2017 11:24 9,4 C 65 % 1028,7 hPa 0,0 l/m 14,3 km/h (3 Bft) W 269 3,2 C 28,2 km/h (4 Bft) 100 %
21.04.2017 11:25 9,5 C 64 % 1028,8 hPa 0,0 l/m 12,7 km/h (3 Bft) SW 233 3,0 C 25,1 km/h (4 Bft) 100 %
21.04.2017 11:26 9,5 C 64 % 1028,8 hPa 0,0 l/m 14,4 km/h (3 Bft) SW 229 3,0 C 22,0 km/h (4 Bft) 96 %
21.04.2017 11:27 9,5 C 64 % 1028,7 hPa 0,0 l/m 8,0 km/h (2 Bft) W 274 3,0 C 12,6 km/h (3 Bft) 100 %
21.04.2017 11:28 9,6 C 64 % 1028,7 hPa 0,0 l/m 8,5 km/h (2 Bft) W-NW 297 3,1 C 15,7 km/h (3 Bft) 100 %
21.04.2017 11:29 9,6 C 64 % 1028,7 hPa 0,0 l/m 10,1 km/h (2 Bft) W-NW 297 3,1 C 22,0 km/h (4 Bft) 100 %
21.04.2017 11:30 9,6 C 64 % 1028,7 hPa 0,0 l/m 14,6 km/h (3 Bft) W 272 3,1 C 22,0 km/h (4 Bft) 94 %
21.04.2017 11:31 9,6 C 64 % 1028,7 hPa 0,0 l/m 11,3 km/h (2 Bft) W 279 3,1 C 28,2 km/h (4 Bft) 96 %
21.04.2017 11:32 9,7 C 63 % 1028,6 hPa 0,0 l/m 18,1 km/h (3 Bft) W-SW 252 3,0 C 34,5 km/h (5 Bft) 100 %
21.04.2017 11:33 9,6 C 63 % 1028,6 hPa 0,0 l/m 14,3 km/h (3 Bft) NW 323 2,9 C 31,4 km/h (5 Bft) 96 %
21.04.2017 11:34 9,7 C 63 % 1028,6 hPa 0,0 l/m 12,7 km/h (3 Bft) W 263 3,0 C 28,2 km/h (4 Bft) 100 %
21.04.2017 11:35 9,7 C 63 % 1028,6 hPa 0,0 l/m 19,5 km/h (3 Bft) N-NW 335 3,0 C 31,4 km/h (5 Bft) 96 %
21.04.2017 11:36 9,7 C 63 % 1028,6 hPa 0,0 l/m 15,5 km/h (3 Bft) W-NW 292 3,0 C 25,1 km/h (4 Bft) 100 %
21.04.2017 11:37 9,7 C 63 % 1028,6 hPa 0,0 l/m 7,5 km/h (2 Bft) W 265 3,0 C 15,7 km/h (3 Bft) 97 %
21.04.2017 11:38 9,8 C 63 % 1028,5 hPa 0,0 l/m 14,3 km/h (3 Bft) W 264 3,1 C 28,2 km/h (4 Bft) 96 %
21.04.2017 11:39 9,8 C 63 % 1028,6 hPa 0,0 l/m 8,6 km/h (2 Bft) N-NW 345 3,1 C 18,8 km/h (3 Bft) 100 %
21.04.2017 11:40 9,8 C 63 % 1028,5 hPa 0,0 l/m 8,4 km/h (2 Bft) W-SW 240 3,1 C 15,7 km/h (3 Bft) 96 %
21.04.2017 11:41 9,8 C 63 % 1028,6 hPa 0,0 l/m 11,6 km/h (2 Bft) W 279 3,1 C 31,4 km/h (5 Bft) 100 %
21.04.2017 11:42 9,8 C 63 % 1028,5 hPa 0,0 l/m 10,7 km/h (2 Bft) W-NW 285 3,1 C 22,0 km/h (4 Bft) 96 %
21.04.2017 11:43 9,8 C 63 % 1028,5 hPa 0,0 l/m 10,6 km/h (2 Bft) W-NW 300 3,1 C 18,8 km/h (3 Bft) 100 %
21.04.2017 11:44 9,8 C 64 % 1028,5 hPa 0,0 l/m 8,3 km/h (2 Bft) W-NW 297 3,3 C 15,7 km/h (3 Bft) 100 %
21.04.2017 11:45 9,9 C 64 % 1028,5 hPa 0,0 l/m 8,5 km/h (2 Bft) W-NW 297 3,4 C 22,0 km/h (4 Bft) 100 %
21.04.2017 11:46 9,9 C 63 % 1028,5 hPa 0,0 l/m 8,5 km/h (2 Bft) W-NW 294 3,2 C 15,7 km/h (3 Bft) 100 %
21.04.2017 11:47 9,9 C 63 % 1028,5 hPa 0,0 l/m 7,4 km/h (2 Bft) W-SW 253 3,2 C 12,6 km/h (3 Bft) 100 %
21.04.2017 11:48 10,0 C 63 % 1028,5 hPa 0,0 l/m 12,3 km/h (3 Bft) W 278 3,3 C 28,2 km/h (4 Bft) 100 %
21.04.2017 11:49 10,0 C 63 % 1028,5 hPa 0,0 l/m 14,7 km/h (3 Bft) W-NW 295 3,3 C 25,1 km/h (4 Bft) 100 %
21.04.2017 11:50 10,0 C 62 % 1028,5 hPa 0,0 l/m 19,6 km/h (3 Bft) NW 306 3,1 C 31,4 km/h (5 Bft) 100 %
21.04.2017 11:51 10,0 C 63 % 1028,5 hPa 0,0 l/m 10,5 km/h (2 Bft) NW 324 3,3 C 25,1 km/h (4 Bft) 100 %
21.04.2017 11:52 10,0 C 63 % 1028,4 hPa 0,0 l/m 13,0 km/h (3 Bft) W 262 3,3 C 25,1 km/h (4 Bft) 100 %
21.04.2017 11:53 10,0 C 63 % 1028,6 hPa 0,0 l/m 15,5 km/h (3 Bft) W-NW 295 3,3 C 28,2 km/h (4 Bft) 100 %
21.04.2017 11:54 10,0 C 62 % 1028,5 hPa 0,0 l/m 11,6 km/h (2 Bft) W-SW 242 3,1 C 22,0 km/h (4 Bft) 100 %
21.04.2017 11:55 10,0 C 62 % 1028,5 hPa 0,0 l/m 21,6 km/h (4 Bft) W-SW 251 3,1 C 37,7 km/h (5 Bft) 100 %
21.04.2017 11:56 9,9 C 62 % 1028,6 hPa 0,0 l/m 11,4 km/h (2 Bft) W 263 3,0 C 22,0 km/h (4 Bft) 100 %
21.04.2017 11:57 9,9 C 63 % 1028,5 hPa 0,0 l/m 13,4 km/h (3 Bft) W-NW 290 3,2 C 25,1 km/h (4 Bft) 100 %
21.04.2017 11:58 9,9 C 62 % 1028,6 hPa 0,0 l/m 12,4 km/h (3 Bft) W 272 3,0 C 18,8 km/h (3 Bft) 96 %
21.04.2017 11:59 9,9 C 62 % 1028,5 hPa 0,0 l/m 17,4 km/h (3 Bft) W-NW 293 3,0 C 22,0 km/h (4 Bft) 100 %
21.04.2017 12:00 9,9 C 62 % 1028,5 hPa 0,0 l/m 15,3 km/h (3 Bft) W-NW 301 3,0 C 25,1 km/h (4 Bft) 100 %
21.04.2017 12:01 9,9 C 63 % 1028,5 hPa 0,0 l/m 11,8 km/h (2 Bft) W-NW 293 3,2 C 18,8 km/h (3 Bft) 100 %
21.04.2017 12:02 9,9 C 63 % 1028,5 hPa 0,0 l/m 10,2 km/h (2 Bft) S-SW 207 3,2 C 12,6 km/h (3 Bft) 100 %
21.04.2017 12:03 10,0 C 63 % 1028,5 hPa 0,0 l/m 7,6 km/h (2 Bft) W 266 3,3 C 18,8 km/h (3 Bft) 100 %
21.04.2017 12:04 10,1 C 63 % 1028,5 hPa 0,0 l/m 14,5 km/h (3 Bft) W 263 3,4 C 22,0 km/h (4 Bft) 100 %
21.04.2017 12:05 10,1 C 62 % 1028,4 hPa 0,0 l/m 10,2 km/h (2 Bft) W 278 3,2 C 15,7 km/h (3 Bft) 100 %
21.04.2017 12:06 10,1 C 62 % 1028,5 hPa 0,0 l/m 10,5 km/h (2 Bft) W-NW 302 3,2 C 18,8 km/h (3 Bft) 100 %
21.04.2017 12:07 10,1 C 62 % 1028,5 hPa 0,0 l/m 11,6 km/h (2 Bft) NW 322 3,2 C 22,0 km/h (4 Bft) 100 %
21.04.2017 12:08 10,1 C 62 % 1028,5 hPa 0,0 l/m 11,8 km/h (2 Bft) W-NW 290 3,2 C 18,8 km/h (3 Bft) 100 %
21.04.2017 12:09 10,1 C 61 % 1028,5 hPa 0,0 l/m 15,5 km/h (3 Bft) W-SW 252 2,9 C 28,2 km/h (4 Bft) 100 %
21.04.2017 12:10 10,1 C 61 % 1028,5 hPa 0,0 l/m 11,4 km/h (2 Bft) W 277 2,9 C 18,8 km/h (3 Bft) 100 %
21.04.2017 12:11 10,1 C 61 % 1028,5 hPa 0,0 l/m 15,1 km/h (3 Bft) SW 221 2,9 C 28,2 km/h (4 Bft) 100 %
21.04.2017 12:12 10,2 C 61 % 1028,5 hPa 0,0 l/m 13,5 km/h (3 Bft) W 273 3,0 C 22,0 km/h (4 Bft) 100 %
21.04.2017 12:13 10,2 C 61 % 1028,5 hPa 0,0 l/m 11,0 km/h (2 Bft) W 276 3,0 C 18,8 km/h (3 Bft) 100 %
21.04.2017 12:14 10,2 C 61 % 1028,4 hPa 0,0 l/m 9,4 km/h (2 Bft) W-SW 248 3,0 C 18,8 km/h (3 Bft) 100 %
21.04.2017 12:15 10,2 C 61 % 1028,4 hPa 0,0 l/m 11,4 km/h (2 Bft) SW 214 3,0 C 22,0 km/h (4 Bft) 100 %
21.04.2017 12:16 10,2 C 62 % 1028,5 hPa 0,0 l/m 7,3 km/h (2 Bft) W-NW 302 3,3 C 18,8 km/h (3 Bft) 100 %
21.04.2017 12:17 10,2 C 62 % 1028,3 hPa 0,0 l/m 12,2 km/h (2 Bft) W-SW 239 3,3 C 18,8 km/h (3 Bft) 100 %
21.04.2017 12:18 10,3 C 62 % 1028,3 hPa 0,0 l/m 5,3 km/h (1 Bft) SW 233 3,3 C 9,4 km/h (2 Bft) 100 %
21.04.2017 12:19 10,3 C 62 % 1028,3 hPa 0,0 l/m 11,1 km/h (2 Bft) NW 323 3,3 C 15,7 km/h (3 Bft) 100 %
21.04.2017 12:20 10,3 C 61 % 1028,3 hPa 0,0 l/m 13,9 km/h (3 Bft) W-NW 287 3,1 C 18,8 km/h (3 Bft) 100 %
21.04.2017 12:21 10,3 C 61 % 1028,3 hPa 0,0 l/m 8,8 km/h (2 Bft) W 281 3,1 C 18,8 km/h (3 Bft) 100 %
21.04.2017 12:22 10,3 C 62 % 1028,3 hPa 0,0 l/m 7,7 km/h (2 Bft) W 266 3,3 C 12,6 km/h (3 Bft) 100 %
21.04.2017 12:23 10,4 C 63 % 1028,3 hPa 0,0 l/m 6,6 km/h (2 Bft) W 274 3,7 C 12,6 km/h (3 Bft) 100 %
21.04.2017 12:24 10,4 C 62 % 1028,3 hPa 0,0 l/m 4,6 km/h (1 Bft) N-NW 339 3,4 C 12,6 km/h (3 Bft) 100 %
21.04.2017 12:25 10,5 C 61 % 1028,3 hPa 0,0 l/m 11,6 km/h (2 Bft) N-NW 345 3,3 C 18,8 km/h (3 Bft) 100 %
21.04.2017 12:26 10,5 C 62 % 1028,2 hPa 0,0 l/m 6,3 km/h (2 Bft) NW 305 3,5 C 18,8 km/h (3 Bft) 100 %
21.04.2017 12:27 10,5 C 61 % 1028,3 hPa 0,0 l/m 12,4 km/h (3 Bft) W-NW 288 3,3 C 25,1 km/h (4 Bft) 100 %
21.04.2017 12:28 10,5 C 61 % 1028,3 hPa 0,0 l/m 10,9 km/h (2 Bft) W-NW 298 3,3 C 18,8 km/h (3 Bft) 100 %
21.04.2017 12:29 10,4 C 61 % 1028,2 hPa 0,0 l/m 10,7 km/h (2 Bft) N-NW 344 3,2 C 22,0 km/h (4 Bft) 100 %
21.04.2017 12:30 10,4 C 61 % 1028,2 hPa 0,0 l/m 14,4 km/h (3 Bft) W-SW 248 3,2 C 22,0 km/h (4 Bft) 100 %
21.04.2017 12:31 10,4 C 60 % 1028,2 hPa 0,0 l/m 12,6 km/h (3 Bft) W-NW 287 3,0 C 28,2 km/h (4 Bft) 100 %
21.04.2017 12:32 10,4 C 61 % 1028,2 hPa 0,0 l/m 9,9 km/h (2 Bft) W-NW 297 3,2 C 18,8 km/h (3 Bft) 100 %
21.04.2017 12:33 10,4 C 61 % 1028,2 hPa 0,0 l/m 11,1 km/h (2 Bft) W-NW 300 3,2 C 22,0 km/h (4 Bft) 100 %
21.04.2017 12:34 10,4 C 60 % 1028,2 hPa 0,0 l/m 10,4 km/h (2 Bft) W-SW 238 3,0 C 18,8 km/h (3 Bft) 97 %
21.04.2017 12:35 10,3 C 60 % 1028,2 hPa 0,0 l/m 11,9 km/h (2 Bft) W-SW 251 2,9 C 18,8 km/h (3 Bft) 100 %
21.04.2017 12:36 10,3 C 61 % 1028,1 hPa 0,0 l/m 12,0 km/h (2 Bft) NW 310 3,1 C 28,2 km/h (4 Bft) 100 %
21.04.2017 12:37 10,3 C 61 % 1028,1 hPa 0,0 l/m 11,0 km/h (2 Bft) W 272 3,1 C 18,8 km/h (3 Bft) 100 %
21.04.2017 12:38 10,3 C 60 % 1028,1 hPa 0,0 l/m 16,8 km/h (3 Bft) W-NW 301 2,9 C 25,1 km/h (4 Bft) 100 %
21.04.2017 12:39 10,3 C 60 % 1028,1 hPa 0,0 l/m 15,6 km/h (3 Bft) W 266 2,9 C 31,4 km/h (5 Bft) 100 %
21.04.2017 12:40 10,2 C 60 % 1028,1 hPa 0,0 l/m 12,6 km/h (3 Bft) W 276 2,8 C 18,8 km/h (3 Bft) 100 %
21.04.2017 12:42 10,2 C 61 % 1028,1 hPa 0,0 l/m 12,3 km/h (3 Bft) W-NW 285 3,0 C 25,1 km/h (4 Bft) 98 %
21.04.2017 12:43 10,2 C 61 % 1028,1 hPa 0,0 l/m 12,9 km/h (3 Bft) NW 311 3,0 C 18,8 km/h (3 Bft) 96 %
21.04.2017 12:44 10,2 C 61 % 1028,1 hPa 0,0 l/m 10,3 km/h (2 Bft) NW 312 3,0 C 15,7 km/h (3 Bft) 100 %
21.04.2017 12:45 10,3 C 61 % 1028,0 hPa 0,0 l/m 9,4 km/h (2 Bft) W-NW 293 3,1 C 18,8 km/h (3 Bft) 96 %
21.04.2017 12:46 10,3 C 61 % 1028,1 hPa 0,0 l/m 12,2 km/h (2 Bft) W 264 3,1 C 25,1 km/h (4 Bft) 96 %
21.04.2017 12:47 10,3 C 60 % 1028,1 hPa 0,0 l/m 9,0 km/h (2 Bft) N-NW 330 2,9 C 12,6 km/h (3 Bft) 100 %
21.04.2017 12:48 10,3 C 60 % 1028,0 hPa 0,0 l/m 10,1 km/h (2 Bft) W-NW 283 2,9 C 15,7 km/h (3 Bft) 96 %
21.04.2017 12:49 10,3 C 61 % 1028,1 hPa 0,0 l/m 12,0 km/h (2 Bft) W-NW 286 3,1 C 25,1 km/h (4 Bft) 100 %
21.04.2017 12:50 10,4 C 60 % 1028,0 hPa 0,0 l/m 13,8 km/h (3 Bft) W-NW 298 3,0 C 18,8 km/h (3 Bft) 96 %
21.04.2017 12:51 10,4 C 60 % 1028,1 hPa 0,0 l/m 12,6 km/h (3 Bft) W-NW 286 3,0 C 25,1 km/h (4 Bft) 100 %
21.04.2017 12:52 10,4 C 61 % 1028,0 hPa 0,0 l/m 9,8 km/h (2 Bft) NW 312 3,2 C 18,8 km/h (3 Bft) 100 %
21.04.2017 12:53 10,4 C 61 % 1028,0 hPa 0,0 l/m 7,8 km/h (2 Bft) W 271 3,2 C 15,7 km/h (3 Bft) 100 %
21.04.2017 12:54 10,5 C 60 % 1028,0 hPa 0,0 l/m 9,2 km/h (2 Bft) NW 323 3,1 C 12,6 km/h (3 Bft) 100 %
21.04.2017 12:55 10,5 C 60 % 1028,1 hPa 0,0 l/m 14,2 km/h (3 Bft) W-NW 302 3,1 C 28,2 km/h (4 Bft) 100 %
21.04.2017 12:56 10,5 C 60 % 1028,1 hPa 0,0 l/m 13,6 km/h (3 Bft) W 274 3,1 C 28,2 km/h (4 Bft) 100 %
21.04.2017 12:57 10,5 C 59 % 1028,0 hPa 0,0 l/m 13,6 km/h (3 Bft) W 265 2,8 C 25,1 km/h (4 Bft) 100 %
21.04.2017 12:58 10,4 C 60 % 1028,0 hPa 0,0 l/m 10,2 km/h (2 Bft) NW 313 3,0 C 18,8 km/h (3 Bft) 100 %
21.04.2017 12:59 10,4 C 61 % 1028,1 hPa 0,0 l/m 14,5 km/h (3 Bft) NW 321 3,2 C 18,8 km/h (3 Bft) 100 %
21.04.2017 13:00 10,4 C 61 % 1028,1 hPa 0,0 l/m 12,8 km/h (3 Bft) W 264 3,2 C 25,1 km/h (4 Bft) 100 %
21.04.2017 13:01 10,4 C 60 % 1028,1 hPa 0,0 l/m 11,0 km/h (2 Bft) W 271 3,0 C 18,8 km/h (3 Bft) 100 %
21.04.2017 13:02 10,4 C 60 % 1028,1 hPa 0,0 l/m 17,5 km/h (3 Bft) W-NW 299 3,0 C 28,2 km/h (4 Bft) 100 %
21.04.2017 13:03 10,3 C 60 % 1028,2 hPa 0,0 l/m 18,2 km/h (3 Bft) W-NW 290 2,9 C 31,4 km/h (5 Bft) 100 %
21.04.2017 13:04 10,3 C 60 % 1028,0 hPa 0,0 l/m 16,7 km/h (3 Bft) W-SW 253 2,9 C 31,4 km/h (5 Bft) 100 %
21.04.2017 13:05 10,2 C 61 % 1028,0 hPa 0,0 l/m 11,7 km/h (2 Bft) W-NW 297 3,0 C 22,0 km/h (4 Bft) 100 %
21.04.2017 13:06 10,2 C 61 % 1028,0 hPa 0,0 l/m 13,7 km/h (3 Bft) W-SW 245 3,0 C 25,1 km/h (4 Bft) 100 %
21.04.2017 13:07 10,2 C 61 % 1028,0 hPa 0,0 l/m 14,6 km/h (3 Bft) W 281 3,0 C 22,0 km/h (4 Bft) 100 %
21.04.2017 13:08 10,2 C 62 % 1028,1 hPa 0,0 l/m 15,2 km/h (3 Bft) W 275 3,3 C 22,0 km/h (4 Bft) 100 %
21.04.2017 13:09 10,2 C 61 % 1028,0 hPa 0,0 l/m 17,8 km/h (3 Bft) SW 236 3,0 C 25,1 km/h (4 Bft) 100 %
21.04.2017 13:10 10,2 C 61 % 1028,0 hPa 0,0 l/m 18,0 km/h (3 Bft) W 276 3,0 C 25,1 km/h (4 Bft) 100 %
21.04.2017 13:11 10,2 C 62 % 1028,0 hPa 0,0 l/m 15,4 km/h (3 Bft) W-SW 237 3,3 C 25,1 km/h (4 Bft) 100 %
21.04.2017 13:12 10,2 C 62 % 1028,0 hPa 0,0 l/m 14,3 km/h (3 Bft) SW 225 3,3 C 25,1 km/h (4 Bft) 100 %
21.04.2017 13:13 10,2 C 62 % 1027,9 hPa 0,0 l/m 10,4 km/h (2 Bft) W 259 3,3 C 18,8 km/h (3 Bft) 100 %
21.04.2017 13:14 10,3 C 63 % 1028,0 hPa 0,0 l/m 12,2 km/h (2 Bft) W-NW 296 3,6 C 22,0 km/h (4 Bft) 100 %
21.04.2017 13:15 10,4 C 63 % 1027,9 hPa 0,0 l/m 13,5 km/h (3 Bft) W-SW 249 3,7 C 25,1 km/h (4 Bft) 100 %
21.04.2017 13:16 10,4 C 63 % 1027,9 hPa 0,0 l/m 8,6 km/h (2 Bft) W 276 3,7 C 15,7 km/h (3 Bft) 100 %
21.04.2017 13:17 10,6 C 63 % 1027,8 hPa 0,0 l/m 8,9 km/h (2 Bft) W-SW 258 3,9 C 15,7 km/h (3 Bft) 100 %
21.04.2017 13:18 10,6 C 63 % 1027,9 hPa 0,0 l/m 12,2 km/h (2 Bft) W-SW 248 3,9 C 22,0 km/h (4 Bft) 100 %
21.04.2017 13:19 10,7 C 63 % 1027,9 hPa 0,0 l/m 10,9 km/h (2 Bft) NW 305 3,9 C 15,7 km/h (3 Bft) 100 %
21.04.2017 13:20 10,7 C 63 % 1027,9 hPa 0,0 l/m 12,2 km/h (2 Bft) W-NW 282 3,9 C 22,0 km/h (4 Bft) 100 %
21.04.2017 13:22 10,8 C 63 % 1027,9 hPa 0,0 l/m 10,6 km/h (2 Bft) W-NW 284 4,0 C 25,1 km/h (4 Bft) 100 %
21.04.2017 13:23 10,8 C 63 % 1027,9 hPa 0,0 l/m 16,5 km/h (3 Bft) NW 319 4,0 C 28,2 km/h (4 Bft) 100 %
21.04.2017 13:24 10,7 C 63 % 1027,9 hPa 0,0 l/m 18,8 km/h (3 Bft) SW 229 3,9 C 34,5 km/h (5 Bft) 100 %
21.04.2017 13:25 10,7 C 63 % 1027,9 hPa 0,0 l/m 12,6 km/h (3 Bft) W 263 3,9 C 28,2 km/h (4 Bft) 100 %
21.04.2017 13:26 10,8 C 63 % 1027,9 hPa 0,0 l/m 7,4 km/h (2 Bft) W 274 4,0 C 15,7 km/h (3 Bft) 100 %
21.04.2017 13:27 10,8 C 63 % 1027,9 hPa 0,0 l/m 10,8 km/h (2 Bft) W-NW 302 4,0 C 25,1 km/h (4 Bft) 100 %
21.04.2017 13:28 10,9 C 63 % 1027,9 hPa 0,0 l/m 19,7 km/h (3 Bft) W-NW 297 4,1 C 34,5 km/h (5 Bft) 100 %
21.04.2017 13:29 10,9 C 63 % 1027,8 hPa 0,0 l/m 16,0 km/h (3 Bft) W-NW 290 4,1 C 28,2 km/h (4 Bft) 100 %
21.04.2017 13:30 11,0 C 63 % 1027,8 hPa 0,0 l/m 9,9 km/h (2 Bft) W-NW 289 4,2 C 12,6 km/h (3 Bft) 100 %
21.04.2017 13:31 11,1 C 63 % 1027,8 hPa 0,0 l/m 13,1 km/h (3 Bft) W 271 4,3 C 28,2 km/h (4 Bft) 100 %
21.04.2017 13:32 11,2 C 63 % 1027,7 hPa 0,0 l/m 20,1 km/h (4 Bft) W 264 4,4 C 25,1 km/h (4 Bft) 100 %
21.04.2017 13:33 11,2 C 63 % 1027,7 hPa 0,0 l/m 17,5 km/h (3 Bft) N-NW 328 4,4 C 31,4 km/h (5 Bft) 100 %
21.04.2017 13:34 11,2 C 62 % 1027,7 hPa 0,0 l/m 20,1 km/h (4 Bft) W-NW 296 4,2 C 31,4 km/h (5 Bft) 100 %
21.04.2017 13:35 11,2 C 63 % 1027,8 hPa 0,0 l/m 24,2 km/h (4 Bft) W-NW 285 4,4 C 37,7 km/h (5 Bft) 100 %
21.04.2017 13:36 11,2 C 63 % 1027,7 hPa 0,0 l/m 14,0 km/h (3 Bft) W-SW 248 4,4 C 22,0 km/h (4 Bft) 100 %
21.04.2017 13:37 11,3 C 63 % 1027,7 hPa 0,0 l/m 13,1 km/h (3 Bft) S-SW 193 4,5 C 22,0 km/h (4 Bft) 100 %
21.04.2017 13:38 11,3 C 63 % 1027,6 hPa 0,0 l/m 11,6 km/h (2 Bft) W 259 4,5 C 22,0 km/h (4 Bft) 100 %
21.04.2017 13:39 11,3 C 62 % 1027,6 hPa 0,0 l/m 13,5 km/h (3 Bft) NW 309 4,3 C 22,0 km/h (4 Bft) 100 %
21.04.2017 13:40 11,4 C 64 % 1027,6 hPa 0,0 l/m 13,5 km/h (3 Bft) W-SW 256 4,8 C 25,1 km/h (4 Bft) 100 %
21.04.2017 13:41 11,4 C 63 % 1027,6 hPa 0,0 l/m 10,1 km/h (2 Bft) W 263 4,6 C 25,1 km/h (4 Bft) 96 %
21.04.2017 13:42 11,5 C 64 % 1027,5 hPa 0,0 l/m 13,3 km/h (3 Bft) S-SW 195 4,9 C 34,5 km/h (5 Bft) 94 %
21.04.2017 13:43 11,5 C 62 % 1027,6 hPa 0,0 l/m 14,6 km/h (3 Bft) W-SW 243 4,5 C 22,0 km/h (4 Bft) 100 %
21.04.2017 13:44 11,6 C 62 % 1027,5 hPa 0,0 l/m 16,7 km/h (3 Bft) W-NW 288 4,6 C 22,0 km/h (4 Bft) 100 %
21.04.2017 13:45 11,6 C 62 % 1027,5 hPa 0,0 l/m 12,7 km/h (3 Bft) NW 319 4,6 C 22,0 km/h (4 Bft) 100 %
21.04.2017 13:46 11,6 C 63 % 1027,5 hPa 0,0 l/m 17,4 km/h (3 Bft) N-NW 329 4,8 C 34,5 km/h (5 Bft) 96 %
21.04.2017 13:47 11,6 C 62 % 1027,5 hPa 0,0 l/m 12,6 km/h (3 Bft) W 267 4,6 C 18,8 km/h (3 Bft) 97 %
21.04.2017 13:48 11,6 C 61 % 1027,6 hPa 0,0 l/m 13,1 km/h (3 Bft) W-NW 295 4,3 C 28,2 km/h (4 Bft) 100 %
21.04.2017 13:49 11,5 C 61 % 1027,6 hPa 0,0 l/m 15,9 km/h (3 Bft) NW 309 4,2 C 22,0 km/h (4 Bft) 100 %
21.04.2017 13:50 11,4 C 62 % 1027,6 hPa 0,0 l/m 8,3 km/h (2 Bft) W-NW 303 4,4 C 12,6 km/h (3 Bft) 96 %
21.04.2017 13:51 11,4 C 62 % 1027,5 hPa 0,0 l/m 15,5 km/h (3 Bft) W 266 4,4 C 22,0 km/h (4 Bft) 95 %
21.04.2017 13:52 11,4 C 63 % 1027,5 hPa 0,0 l/m 11,6 km/h (2 Bft) W-NW 301 4,6 C 28,2 km/h (4 Bft) 100 %
21.04.2017 13:53 11,4 C 63 % 1027,5 hPa 0,0 l/m 6,9 km/h (2 Bft) N-NW 331 4,6 C 15,7 km/h (3 Bft) 96 %
21.04.2017 13:54 11,4 C 63 % 1027,4 hPa 0,0 l/m 10,5 km/h (2 Bft) W 260 4,6 C 15,7 km/h (3 Bft) 97 %
21.04.2017 13:55 11,6 C 63 % 1027,5 hPa 0,0 l/m 9,5 km/h (2 Bft) W 270 4,8 C 25,1 km/h (4 Bft) 100 %
21.04.2017 13:56 11,7 C 64 % 1027,5 hPa 0,0 l/m 14,0 km/h (3 Bft) W 274 5,1 C 22,0 km/h (4 Bft) 100 %
21.04.2017 13:57 11,7 C 63 % 1027,5 hPa 0,0 l/m 10,8 km/h (2 Bft) W-SW 250 4,9 C 15,7 km/h (3 Bft) 100 %
21.04.2017 13:58 11,8 C 63 % 1027,4 hPa 0,0 l/m 7,1 km/h (2 Bft) W-NW 301 5,0 C 15,7 km/h (3 Bft) 100 %
21.04.2017 13:59 11,9 C 63 % 1027,4 hPa 0,0 l/m 9,3 km/h (2 Bft) N-NW 328 5,1 C 18,8 km/h (3 Bft) 100 %
21.04.2017 14:00 12,0 C 63 % 1027,3 hPa 0,0 l/m 6,9 km/h (2 Bft) W-NW 283 5,2 C 15,7 km/h (3 Bft) 100 %
21.04.2017 14:01 12,1 C 62 % 1027,4 hPa 0,0 l/m 12,2 km/h (2 Bft) W-NW 293 5,0 C 15,7 km/h (3 Bft) 100 %
21.04.2017 14:02 12,1 C 62 % 1027,4 hPa 0,0 l/m 8,6 km/h (2 Bft) SW 235 5,0 C 18,8 km/h (3 Bft) 100 %
21.04.2017 14:03 12,1 C 63 % 1027,3 hPa 0,0 l/m 6,9 km/h (2 Bft) W-NW 291 5,3 C 12,6 km/h (3 Bft) 100 %
21.04.2017 14:04 12,1 C 62 % 1027,5 hPa 0,0 l/m 20,1 km/h (4 Bft) W 270 5,0 C 28,2 km/h (4 Bft) 100 %
21.04.2017 14:05 12,1 C 62 % 1027,3 hPa 0,0 l/m 14,8 km/h (3 Bft) W-SW 250 5,0 C 22,0 km/h (4 Bft) 100 %
21.04.2017 14:06 12,1 C 62 % 1027,4 hPa 0,0 l/m 15,8 km/h (3 Bft) NW 307 5,0 C 22,0 km/h (4 Bft) 100 %
21.04.2017 14:07 12,1 C 62 % 1027,4 hPa 0,0 l/m 14,5 km/h (3 Bft) N-NW 342 5,0 C 28,2 km/h (4 Bft) 100 %
21.04.2017 14:08 12,1 C 62 % 1027,3 hPa 0,0 l/m 14,9 km/h (3 Bft) N-NW 333 5,0 C 25,1 km/h (4 Bft) 100 %
21.04.2017 14:09 12,1 C 63 % 1027,3 hPa 0,0 l/m 15,4 km/h (3 Bft) W 267 5,3 C 22,0 km/h (4 Bft) 100 %
21.04.2017 14:10 12,1 C 63 % 1027,3 hPa 0,0 l/m 10,2 km/h (2 Bft) W-NW 285 5,3 C 22,0 km/h (4 Bft) 100 %
21.04.2017 14:11 12,1 C 62 % 1027,3 hPa 0,0 l/m 14,0 km/h (3 Bft) W 278 5,0 C 18,8 km/h (3 Bft) 100 %
21.04.2017 14:12 12,1 C 63 % 1027,3 hPa 0,0 l/m 12,9 km/h (3 Bft) W-NW 292 5,3 C 22,0 km/h (4 Bft) 100 %
21.04.2017 14:13 12,1 C 63 % 1027,2 hPa 0,0 l/m 8,4 km/h (2 Bft) NW 319 5,3 C 12,6 km/h (3 Bft) 100 %
21.04.2017 14:14 12,1 C 64 % 1027,2 hPa 0,0 l/m 14,3 km/h (3 Bft) W 264 5,5 C 22,0 km/h (4 Bft) 100 %
21.04.2017 14:15 12,2 C 64 % 1027,2 hPa 0,0 l/m 13,2 km/h (3 Bft) NW 308 5,6 C 31,4 km/h (5 Bft) 100 %
21.04.2017 14:16 12,3 C 63 % 1027,2 hPa 0,0 l/m 18,7 km/h (3 Bft) W-SW 256 5,5 C 28,2 km/h (4 Bft) 100 %
21.04.2017 14:17 12,3 C 64 % 1027,2 hPa 0,0 l/m 24,6 km/h (4 Bft) W-NW 296 5,7 C 40,8 km/h (6 Bft) 100 %
21.04.2017 14:18 12,3 C 63 % 1027,3 hPa 0,0 l/m 17,7 km/h (3 Bft) S 181 5,5 C 28,2 km/h (4 Bft) 100 %
21.04.2017 14:19 12,3 C 63 % 1027,2 hPa 0,0 l/m 15,8 km/h (3 Bft) S-SW 203 5,5 C 25,1 km/h (4 Bft) 100 %
21.04.2017 14:20 12,3 C 63 % 1027,1 hPa 0,0 l/m 13,1 km/h (3 Bft) SW 236 5,5 C 18,8 km/h (3 Bft) 100 %
21.04.2017 14:21 12,3 C 63 % 1027,0 hPa 0,0 l/m 10,4 km/h (2 Bft) W-NW 290 5,5 C 18,8 km/h (3 Bft) 100 %
21.04.2017 14:22 12,3 C 64 % 1027,1 hPa 0,0 l/m 9,2 km/h (2 Bft) W-NW 288 5,7 C 18,8 km/h (3 Bft) 100 %
21.04.2017 14:23 12,3 C 63 % 1027,0 hPa 0,0 l/m 12,2 km/h (2 Bft) W-NW 303 5,5 C 18,8 km/h (3 Bft) 100 %
21.04.2017 14:24 12,4 C 64 % 1027,0 hPa 0,0 l/m 8,4 km/h (2 Bft) SW 217 5,8 C 15,7 km/h (3 Bft) 100 %
21.04.2017 14:25 12,4 C 64 % 1027,0 hPa 0,0 l/m 9,1 km/h (2 Bft) W 262 5,8 C 15,7 km/h (3 Bft) 100 %
21.04.2017 14:26 12,4 C 64 % 1027,1 hPa 0,0 l/m 20,4 km/h (4 Bft) W-NW 283 5,8 C 25,1 km/h (4 Bft) 100 %
21.04.2017 14:27 12,5 C 63 % 1027,0 hPa 0,0 l/m 11,8 km/h (2 Bft) W-SW 250 5,7 C 22,0 km/h (4 Bft) 100 %
21.04.2017 14:28 12,5 C 64 % 1027,0 hPa 0,0 l/m 13,3 km/h (3 Bft) NW 306 5,9 C 22,0 km/h (4 Bft) 100 %
21.04.2017 14:29 12,6 C 64 % 1026,9 hPa 0,0 l/m 6,4 km/h (2 Bft) NW 317 6,0 C 12,6 km/h (3 Bft) 100 %
21.04.2017 14:30 12,7 C 65 % 1026,9 hPa 0,0 l/m 13,7 km/h (3 Bft) NW 326 6,3 C 22,0 km/h (4 Bft) 100 %
21.04.2017 14:31 12,7 C 63 % 1026,9 hPa 0,0 l/m 10,5 km/h (2 Bft) W 278 5,8 C 22,0 km/h (4 Bft) 100 %
21.04.2017 14:32 12,7 C 63 % 1027,0 hPa 0,0 l/m 12,3 km/h (3 Bft) W-SW 257 5,8 C 18,8 km/h (3 Bft) 100 %
21.04.2017 14:33 12,7 C 61 % 1026,9 hPa 0,0 l/m 15,7 km/h (3 Bft) SW 219 5,4 C 25,1 km/h (4 Bft) 100 %
21.04.2017 14:34 12,7 C 62 % 1026,8 hPa 0,0 l/m 15,7 km/h (3 Bft) W-NW 288 5,6 C 28,2 km/h (4 Bft) 100 %
21.04.2017 14:35 12,6 C 63 % 1026,8 hPa 0,0 l/m 14,2 km/h (3 Bft) W-SW 238 5,7 C 31,4 km/h (5 Bft) 100 %
21.04.2017 14:36 12,6 C 63 % 1026,8 hPa 0,0 l/m 16,0 km/h (3 Bft) SW 228 5,7 C 22,0 km/h (4 Bft) 100 %
21.04.2017 14:37 12,6 C 63 % 1026,8 hPa 0,0 l/m 16,5 km/h (3 Bft) W-SW 257 5,7 C 31,4 km/h (5 Bft) 100 %
21.04.2017 14:38 12,6 C 63 % 1026,8 hPa 0,0 l/m 12,7 km/h (3 Bft) SW 235 5,7 C 25,1 km/h (4 Bft) 100 %
21.04.2017 14:39 12,5 C 63 % 1026,8 hPa 0,0 l/m 11,5 km/h (2 Bft) W-SW 253 5,7 C 25,1 km/h (4 Bft) 96 %
21.04.2017 14:40 12,4 C 64 % 1026,7 hPa 0,0 l/m 13,7 km/h (3 Bft) W 278 5,8 C 28,2 km/h (4 Bft) 96 %
21.04.2017 14:41 12,4 C 63 % 1026,8 hPa 0,0 l/m 14,8 km/h (3 Bft) NW 313 5,6 C 31,4 km/h (5 Bft) 100 %
21.04.2017 14:42 12,4 C 64 % 1026,8 hPa 0,0 l/m 21,6 km/h (4 Bft) SW 236 5,8 C 31,4 km/h (5 Bft) 100 %
21.04.2017 14:43 12,3 C 64 % 1026,7 hPa 0,0 l/m 11,0 km/h (2 Bft) W-SW 250 5,7 C 31,4 km/h (5 Bft) 98 %
21.04.2017 14:44 12,3 C 64 % 1026,7 hPa 0,0 l/m 12,1 km/h (2 Bft) W 275 5,7 C 18,8 km/h (3 Bft) 100 %
21.04.2017 14:45 12,3 C 65 % 1026,7 hPa 0,0 l/m 11,2 km/h (2 Bft) SW 233 5,9 C 18,8 km/h (3 Bft) 96 %
21.04.2017 14:46 12,3 C 65 % 1026,6 hPa 0,0 l/m 7,5 km/h (2 Bft) W-NW 289 5,9 C 15,7 km/h (3 Bft) 100 %
21.04.2017 14:47 12,3 C 64 % 1026,7 hPa 0,0 l/m 12,1 km/h (2 Bft) NW 314 5,7 C 18,8 km/h (3 Bft) 97 %
21.04.2017 14:48 12,3 C 65 % 1026,7 hPa 0,0 l/m 10,7 km/h (2 Bft) W-NW 296 5,9 C 18,8 km/h (3 Bft) 100 %
21.04.2017 14:49 12,3 C 64 % 1026,6 hPa 0,0 l/m 17,9 km/h (3 Bft) W-SW 251 5,7 C 25,1 km/h (4 Bft) 96 %
21.04.2017 14:50 12,2 C 64 % 1026,5 hPa 0,0 l/m 10,7 km/h (2 Bft) SW 229 5,6 C 15,7 km/h (3 Bft) 97 %
21.04.2017 14:51 12,2 C 64 % 1026,5 hPa 0,0 l/m 14,3 km/h (3 Bft) S 169 5,6 C 31,4 km/h (5 Bft) 100 %
21.04.2017 14:52 12,2 C 64 % 1026,5 hPa 0,0 l/m 11,7 km/h (2 Bft) NW 315 5,6 C 15,7 km/h (3 Bft) 100 %
21.04.2017 14:53 12,1 C 64 % 1026,5 hPa 0,0 l/m 15,7 km/h (3 Bft) W-SW 250 5,5 C 25,1 km/h (4 Bft) 100 %
21.04.2017 14:54 12,1 C 65 % 1026,5 hPa 0,0 l/m 11,2 km/h (2 Bft) W-SW 245 5,7 C 12,6 km/h (3 Bft) 100 %
21.04.2017 14:55 12,1 C 65 % 1026,5 hPa 0,0 l/m 12,9 km/h (3 Bft) W 262 5,7 C 22,0 km/h (4 Bft) 100 %
21.04.2017 14:56 12,1 C 65 % 1026,5 hPa 0,0 l/m 10,0 km/h (2 Bft) W-NW 285 5,7 C 12,6 km/h (3 Bft) 100 %
21.04.2017 14:57 12,0 C 64 % 1026,5 hPa 0,0 l/m 16,1 km/h (3 Bft) W-NW 295 5,4 C 28,2 km/h (4 Bft) 100 %
21.04.2017 14:58 11,9 C 65 % 1026,5 hPa 0,0 l/m 11,5 km/h (2 Bft) W-NW 294 5,5 C 18,8 km/h (3 Bft) 100 %
21.04.2017 14:59 11,9 C 65 % 1026,5 hPa 0,0 l/m 12,9 km/h (3 Bft) W-SW 245 5,5 C 22,0 km/h (4 Bft) 100 %
21.04.2017 15:00 11,9 C 65 % 1026,5 hPa 0,0 l/m 12,4 km/h (3 Bft) W-NW 294 5,5 C 22,0 km/h (4 Bft) 100 %
21.04.2017 15:01 11,9 C 66 % 1026,4 hPa 0,0 l/m 9,6 km/h (2 Bft) W 278 5,8 C 25,1 km/h (4 Bft) 100 %
21.04.2017 15:02 11,9 C 65 % 1026,5 hPa 0,0 l/m 10,7 km/h (2 Bft) W 262 5,5 C 25,1 km/h (4 Bft) 100 %
21.04.2017 15:03 11,9 C 66 % 1026,5 hPa 0,0 l/m 12,2 km/h (2 Bft) W-NW 303 5,8 C 18,8 km/h (3 Bft) 100 %
21.04.2017 15:04 11,9 C 66 % 1026,4 hPa 0,0 l/m 13,2 km/h (3 Bft) NW 309 5,8 C 25,1 km/h (4 Bft) 100 %
21.04.2017 15:05 11,9 C 65 % 1026,4 hPa 0,0 l/m 11,7 km/h (2 Bft) SW 224 5,5 C 18,8 km/h (3 Bft) 100 %
21.04.2017 15:06 11,9 C 65 % 1026,4 hPa 0,0 l/m 14,3 km/h (3 Bft) W 279 5,5 C 28,2 km/h (4 Bft) 100 %
21.04.2017 15:07 11,8 C 65 % 1026,4 hPa 0,0 l/m 13,8 km/h (3 Bft) NW 309 5,4 C 22,0 km/h (4 Bft) 100 %
21.04.2017 15:08 11,8 C 65 % 1026,3 hPa 0,0 l/m 7,9 km/h (2 Bft) W-NW 295 5,4 C 12,6 km/h (3 Bft) 100 %
21.04.2017 15:09 11,8 C 65 % 1026,3 hPa 0,0 l/m 14,2 km/h (3 Bft) W 278 5,4 C 28,2 km/h (4 Bft) 100 %
21.04.2017 15:10 11,9 C 65 % 1026,3 hPa 0,0 l/m 6,5 km/h (2 Bft) W-NW 302 5,5 C 18,8 km/h (3 Bft) 100 %
21.04.2017 15:11 11,9 C 65 % 1026,3 hPa 0,0 l/m 13,2 km/h (3 Bft) SW 232 5,5 C 25,1 km/h (4 Bft) 100 %
21.04.2017 15:12 11,9 C 65 % 1026,3 hPa 0,0 l/m 12,6 km/h (3 Bft) NW 314 5,5 C 22,0 km/h (4 Bft) 100 %
21.04.2017 15:13 11,9 C 65 % 1026,3 hPa 0,0 l/m 6,4 km/h (2 Bft) N 354 5,5 C 18,8 km/h (3 Bft) 100 %
21.04.2017 15:14 11,9 C 65 % 1026,3 hPa 0,0 l/m 6,1 km/h (2 Bft) N-NW 333 5,5 C 18,8 km/h (3 Bft) 100 %
21.04.2017 15:15 12,0 C 65 % 1026,2 hPa 0,0 l/m 6,9 km/h (2 Bft) W-SW 238 5,6 C 12,6 km/h (3 Bft) 100 %
21.04.2017 15:16 12,1 C 65 % 1026,3 hPa 0,0 l/m 12,2 km/h (2 Bft) W-SW 250 5,7 C 15,7 km/h (3 Bft) 100 %
21.04.2017 15:17 12,1 C 65 % 1026,2 hPa 0,0 l/m 7,0 km/h (2 Bft) W-SW 238 5,7 C 15,7 km/h (3 Bft) 100 %
21.04.2017 15:18 12,1 C 65 % 1026,3 hPa 0,0 l/m 8,7 km/h (2 Bft) W-NW 293 5,7 C 12,6 km/h (3 Bft) 100 %
21.04.2017 15:19 12,1 C 65 % 1026,2 hPa 0,0 l/m 11,4 km/h (2 Bft) S-SW 212 5,7 C 15,7 km/h (3 Bft) 100 %
21.04.2017 15:20 12,1 C 66 % 1026,2 hPa 0,0 l/m 4,9 km/h (1 Bft) W-SW 245 5,9 C 9,4 km/h (2 Bft) 100 %
21.04.2017 15:21 12,2 C 66 % 1026,2 hPa 0,0 l/m 6,9 km/h (2 Bft) SW 217 6,0 C 15,7 km/h (3 Bft) 100 %
21.04.2017 15:22 12,2 C 65 % 1026,1 hPa 0,0 l/m 2,4 km/h (1 Bft) SW 227 5,8 C 9,4 km/h (2 Bft) 100 %
21.04.2017 15:23 12,3 C 65 % 1026,1 hPa 0,0 l/m 3,8 km/h (1 Bft) W-SW 241 5,9 C 9,4 km/h (2 Bft) 100 %
21.04.2017 15:24 12,3 C 64 % 1026,1 hPa 0,0 l/m 7,8 km/h (2 Bft) W-SW 240 5,7 C 12,6 km/h (3 Bft) 100 %
21.04.2017 15:25 12,3 C 64 % 1026,1 hPa 0,0 l/m 6,0 km/h (2 Bft) W-SW 250 5,7 C 9,4 km/h (2 Bft) 100 %
21.04.2017 15:26 12,3 C 65 % 1026,1 hPa 0,0 l/m 6,9 km/h (2 Bft) W-NW 287 5,9 C 18,8 km/h (3 Bft) 100 %
21.04.2017 15:27 12,3 C 65 % 1026,1 hPa 0,0 l/m 6,2 km/h (2 Bft) N-NW 330 5,9 C 12,6 km/h (3 Bft) 100 %
21.04.2017 15:28 12,4 C 64 % 1026,1 hPa 0,0 l/m 8,8 km/h (2 Bft) W-SW 257 5,8 C 22,0 km/h (4 Bft) 100 %
21.04.2017 15:29 12,3 C 64 % 1026,1 hPa 0,0 l/m 5,8 km/h (2 Bft) W 274 5,7 C 12,6 km/h (3 Bft) 100 %
21.04.2017 15:30 12,3 C 64 % 1026,1 hPa 0,0 l/m 12,0 km/h (2 Bft) W-NW 300 5,7 C 18,8 km/h (3 Bft) 100 %
21.04.2017 15:31 12,3 C 64 % 1026,1 hPa 0,0 l/m 8,7 km/h (2 Bft) W-SW 239 5,7 C 22,0 km/h (4 Bft) 100 %
21.04.2017 15:32 12,3 C 64 % 1026,1 hPa 0,0 l/m 8,1 km/h (2 Bft) S-SW 198 5,7 C 12,6 km/h (3 Bft) 100 %
21.04.2017 15:33 12,3 C 64 % 1026,1 hPa 0,0 l/m 8,6 km/h (2 Bft) W-NW 287 5,7 C 15,7 km/h (3 Bft) 100 %
21.04.2017 15:34 12,2 C 64 % 1026,1 hPa 0,0 l/m 2,9 km/h (1 Bft) W-NW 283 5,6 C 15,7 km/h (3 Bft) 100 %
21.04.2017 15:35 12,2 C 64 % 1026,1 hPa 0,0 l/m 7,9 km/h (2 Bft) W-NW 299 5,6 C 12,6 km/h (3 Bft) 100 %
21.04.2017 15:36 12,2 C 64 % 1026,0 hPa 0,0 l/m 7,1 km/h (2 Bft) S-SW 200 5,6 C 15,7 km/h (3 Bft) 100 %
21.04.2017 15:37 12,2 C 64 % 1026,1 hPa 0,0 l/m 4,6 km/h (1 Bft) S-SW 207 5,6 C 18,8 km/h (3 Bft) 100 %
21.04.2017 15:38 12,1 C 64 % 1026,0 hPa 0,0 l/m 7,5 km/h (2 Bft) W-SW 246 5,5 C 15,7 km/h (3 Bft) 100 %
21.04.2017 15:39 12,1 C 64 % 1026,0 hPa 0,0 l/m 1,8 km/h (1 Bft) W-NW 302 5,5 C 6,3 km/h (2 Bft) 96 %
21.04.2017 15:40 12,1 C 64 % 1026,0 hPa 0,0 l/m 5,2 km/h (1 Bft) S 191 5,5 C 12,6 km/h (3 Bft) 96 %
21.04.2017 15:41 12,1 C 64 % 1026,0 hPa 0,0 l/m 6,6 km/h (2 Bft) SW 219 5,5 C 12,6 km/h (3 Bft) 100 %
21.04.2017 15:42 12,1 C 65 % 1026,0 hPa 0,0 l/m 10,8 km/h (2 Bft) NW 326 5,7 C 15,7 km/h (3 Bft) 94 %
21.04.2017 15:43 12,0 C 64 % 1026,1 hPa 0,0 l/m 8,2 km/h (2 Bft) W 261 5,4 C 15,7 km/h (3 Bft) 100 %
21.04.2017 15:44 12,0 C 64 % 1026,0 hPa 0,0 l/m 12,4 km/h (3 Bft) W-SW 243 5,4 C 22,0 km/h (4 Bft) 96 %
21.04.2017 15:45 12,0 C 65 % 1025,9 hPa 0,0 l/m 6,4 km/h (2 Bft) S-SW 201 5,6 C 12,6 km/h (3 Bft) 100 %
21.04.2017 15:46 12,0 C 65 % 1025,9 hPa 0,0 l/m 3,3 km/h (1 Bft) W 280 5,6 C 9,4 km/h (2 Bft) 94 %
21.04.2017 15:47 12,0 C 65 % 1026,0 hPa 0,0 l/m 5,5 km/h (1 Bft) W-NW 283 5,6 C 12,6 km/h (3 Bft) 100 %
21.04.2017 15:48 12,0 C 66 % 1026,0 hPa 0,0 l/m 4,6 km/h (1 Bft) SW 217 5,8 C 9,4 km/h (2 Bft) 96 %
21.04.2017 15:49 12,0 C 65 % 1025,9 hPa 0,0 l/m 5,3 km/h (1 Bft) W-SW 239 5,6 C 9,4 km/h (2 Bft) 97 %
21.04.2017 15:50 12,0 C 65 % 1025,9 hPa 0,0 l/m 3,8 km/h (1 Bft) SW 233 5,6 C 6,3 km/h (2 Bft) 100 %
21.04.2017 15:51 12,0 C 65 % 1025,9 hPa 0,0 l/m 3,3 km/h (1 Bft) W 259 5,6 C 6,3 km/h (2 Bft) 100 %
21.04.2017 15:52 12,0 C 65 % 1025,9 hPa 0,0 l/m 1,7 km/h (1 Bft) W 263 5,6 C 6,3 km/h (2 Bft) 100 %
21.04.2017 15:53 12,0 C 65 % 1025,8 hPa 0,0 l/m 3,7 km/h (1 Bft) NW 313 5,6 C 9,4 km/h (2 Bft) 100 %
21.04.2017 15:54 12,0 C 66 % 1025,8 hPa 0,0 l/m 9,2 km/h (2 Bft) N-NW 332 5,8 C 12,6 km/h (3 Bft) 100 %
21.04.2017 15:55 12,0 C 65 % 1025,9 hPa 0,0 l/m 3,8 km/h (1 Bft) W-NW 300 5,6 C 9,4 km/h (2 Bft) 100 %
21.04.2017 15:56 12,0 C 65 % 1025,9 hPa 0,0 l/m 5,3 km/h (1 Bft) SW 224 5,6 C 9,4 km/h (2 Bft) 100 %
21.04.2017 15:57 12,0 C 66 % 1025,9 hPa 0,0 l/m 1,2 km/h (1 Bft) SW 234 5,8 C 6,3 km/h (2 Bft) 98 %
21.04.2017 15:58 11,9 C 65 % 1025,8 hPa 0,0 l/m 6,7 km/h (2 Bft) NW 309 5,5 C 15,7 km/h (3 Bft) 100 %
21.04.2017 15:59 11,9 C 66 % 1025,8 hPa 0,0 l/m 2,9 km/h (1 Bft) W 270 5,8 C 6,3 km/h (2 Bft) 100 %
21.04.2017 16:00 11,9 C 65 % 1025,8 hPa 0,0 l/m 9,1 km/h (2 Bft) W 271 5,5 C 15,7 km/h (3 Bft) 100 %
21.04.2017 16:01 11,9 C 65 % 1025,8 hPa 0,0 l/m 9,2 km/h (2 Bft) W 274 5,5 C 15,7 km/h (3 Bft) 100 %
21.04.2017 16:02 11,9 C 66 % 1025,9 hPa 0,0 l/m 8,8 km/h (2 Bft) W 273 5,8 C 18,8 km/h (3 Bft) 100 %
21.04.2017 16:03 11,8 C 65 % 1025,9 hPa 0,0 l/m 14,3 km/h (3 Bft) W 270 5,4 C 25,1 km/h (4 Bft) 100 %
21.04.2017 16:04 11,8 C 66 % 1025,9 hPa 0,0 l/m 9,4 km/h (2 Bft) W 267 5,7 C 12,6 km/h (3 Bft) 100 %
21.04.2017 16:05 11,8 C 66 % 1025,8 hPa 0,0 l/m 9,9 km/h (2 Bft) N-NW 327 5,7 C 15,7 km/h (3 Bft) 100 %
21.04.2017 16:06 11,8 C 66 % 1025,8 hPa 0,0 l/m 9,1 km/h (2 Bft) S-SW 210 5,7 C 15,7 km/h (3 Bft) 100 %
21.04.2017 16:07 11,8 C 66 % 1025,8 hPa 0,0 l/m 3,6 km/h (1 Bft) W-SW 255 5,7 C 9,4 km/h (2 Bft) 100 %
21.04.2017 16:08 11,7 C 66 % 1025,7 hPa 0,0 l/m 1,8 km/h (1 Bft) W-NW 287 5,6 C 6,3 km/h (2 Bft) 100 %
21.04.2017 16:09 11,7 C 67 % 1025,7 hPa 0,0 l/m 8,0 km/h (2 Bft) S 182 5,8 C 15,7 km/h (3 Bft) 100 %
21.04.2017 16:10 11,7 C 66 % 1025,7 hPa 0,0 l/m 10,7 km/h (2 Bft) NW 305 5,6 C 22,0 km/h (4 Bft) 100 %
21.04.2017 16:11 11,7 C 66 % 1025,8 hPa 0,0 l/m 7,2 km/h (2 Bft) W-NW 284 5,6 C 12,6 km/h (3 Bft) 100 %
21.04.2017 16:12 11,7 C 66 % 1025,8 hPa 0,0 l/m 3,6 km/h (1 Bft) W-NW 285 5,6 C 9,4 km/h (2 Bft) 100 %
21.04.2017 16:13 11,7 C 67 % 1025,7 hPa 0,0 l/m 5,0 km/h (1 Bft) W-SW 242 5,8 C 12,6 km/h (3 Bft) 100 %
21.04.2017 16:14 11,7 C 66 % 1025,8 hPa 0,0 l/m 8,9 km/h (2 Bft) W-SW 258 5,6 C 15,7 km/h (3 Bft) 100 %
21.04.2017 16:15 11,7 C 66 % 1025,7 hPa 0,0 l/m 6,7 km/h (2 Bft) W-SW 253 5,6 C 12,6 km/h (3 Bft) 100 %
21.04.2017 16:16 11,6 C 67 % 1025,7 hPa 0,0 l/m 10,2 km/h (2 Bft) W-NW 288 5,7 C 22,0 km/h (4 Bft) 100 %
21.04.2017 16:17 11,6 C 67 % 1025,7 hPa 0,0 l/m 12,2 km/h (2 Bft) W-SW 246 5,7 C 18,8 km/h (3 Bft) 100 %
21.04.2017 16:18 11,6 C 67 % 1025,7 hPa 0,0 l/m 16,3 km/h (3 Bft) W-NW 300 5,7 C 28,2 km/h (4 Bft) 100 %
21.04.2017 16:19 11,6 C 67 % 1025,7 hPa 0,0 l/m 8,4 km/h (2 Bft) W-NW 287 5,7 C 12,6 km/h (3 Bft) 100 %
21.04.2017 16:20 11,6 C 67 % 1025,7 hPa 0,0 l/m 6,1 km/h (2 Bft) NW 307 5,7 C 9,4 km/h (2 Bft) 100 %
21.04.2017 16:21 11,6 C 67 % 1025,7 hPa 0,0 l/m 15,2 km/h (3 Bft) W-NW 290 5,7 C 22,0 km/h (4 Bft) 100 %
21.04.2017 16:22 11,6 C 67 % 1025,7 hPa 0,0 l/m 7,0 km/h (2 Bft) W-NW 283 5,7 C 12,6 km/h (3 Bft) 100 %
21.04.2017 16:23 11,6 C 67 % 1025,6 hPa 0,0 l/m 5,3 km/h (1 Bft) NW 304 5,7 C 9,4 km/h (2 Bft) 100 %
21.04.2017 16:24 11,6 C 68 % 1025,7 hPa 0,0 l/m 6,0 km/h (2 Bft) W-SW 237 5,9 C 12,6 km/h (3 Bft) 100 %
21.04.2017 16:25 11,6 C 68 % 1025,6 hPa 0,0 l/m 4,2 km/h (1 Bft) W-NW 284 5,9 C 9,4 km/h (2 Bft) 100 %
21.04.2017 16:26 11,6 C 68 % 1025,6 hPa 0,0 l/m 4,1 km/h (1 Bft) W 271 5,9 C 9,4 km/h (2 Bft) 100 %
21.04.2017 16:27 11,6 C 68 % 1025,6 hPa 0,0 l/m 5,9 km/h (2 Bft) W-NW 287 5,9 C 15,7 km/h (3 Bft) 100 %
21.04.2017 16:28 11,6 C 67 % 1025,6 hPa 0,0 l/m 11,0 km/h (2 Bft) W-NW 292 5,7 C 15,7 km/h (3 Bft) 100 %
21.04.2017 16:29 11,6 C 67 % 1025,6 hPa 0,0 l/m 9,9 km/h (2 Bft) NW 314 5,7 C 18,8 km/h (3 Bft) 100 %
21.04.2017 16:30 11,6 C 68 % 1025,6 hPa 0,0 l/m 9,4 km/h (2 Bft) W 270 5,9 C 15,7 km/h (3 Bft) 100 %
21.04.2017 16:31 11,6 C 68 % 1025,5 hPa 0,0 l/m 8,5 km/h (2 Bft) W 260 5,9 C 15,7 km/h (3 Bft) 100 %
21.04.2017 16:32 11,6 C 68 % 1025,5 hPa 0,0 l/m 7,7 km/h (2 Bft) W-NW 288 5,9 C 12,6 km/h (3 Bft) 100 %
21.04.2017 16:33 11,6 C 68 % 1025,6 hPa 0,0 l/m 9,4 km/h (2 Bft) W 276 5,9 C 18,8 km/h (3 Bft) 100 %
21.04.2017 16:34 11,6 C 68 % 1025,5 hPa 0,0 l/m 7,7 km/h (2 Bft) W-NW 283 5,9 C 12,6 km/h (3 Bft) 100 %
21.04.2017 16:35 11,6 C 68 % 1025,5 hPa 0,0 l/m 9,7 km/h (2 Bft) W-SW 245 5,9 C 18,8 km/h (3 Bft) 100 %
21.04.2017 16:36 11,6 C 68 % 1025,4 hPa 0,0 l/m 6,9 km/h (2 Bft) S-SW 202 5,9 C 12,6 km/h (3 Bft) 100 %
21.04.2017 16:37 11,6 C 68 % 1025,4 hPa 0,0 l/m 11,6 km/h (2 Bft) SW 227 5,9 C 15,7 km/h (3 Bft) 100 %
21.04.2017 16:38 11,6 C 68 % 1025,4 hPa 0,0 l/m 4,6 km/h (1 Bft) W-SW 255 5,9 C 18,8 km/h (3 Bft) 96 %
21.04.2017 16:39 11,6 C 68 % 1025,3 hPa 0,0 l/m 9,3 km/h (2 Bft) SW 219 5,9 C 18,8 km/h (3 Bft) 96 %
21.04.2017 16:40 11,6 C 68 % 1025,3 hPa 0,0 l/m 3,0 km/h (1 Bft) S-SW 209 5,9 C 9,4 km/h (2 Bft) 100 %
21.04.2017 16:41 11,6 C 69 % 1025,4 hPa 0,0 l/m 6,1 km/h (2 Bft) N-NW 344 6,1 C 9,4 km/h (2 Bft) 97 %
21.04.2017 16:42 11,6 C 68 % 1025,5 hPa 0,0 l/m 10,9 km/h (2 Bft) N-NW 329 5,9 C 18,8 km/h (3 Bft) 95 %
21.04.2017 16:43 11,6 C 68 % 1025,4 hPa 0,0 l/m 10,1 km/h (2 Bft) NW 308 5,9 C 15,7 km/h (3 Bft) 100 %
21.04.2017 16:44 11,6 C 68 % 1025,4 hPa 0,0 l/m 12,6 km/h (3 Bft) W 278 5,9 C 22,0 km/h (4 Bft) 100 %
21.04.2017 16:45 11,6 C 68 % 1025,5 hPa 0,0 l/m 11,6 km/h (2 Bft) W-SW 255 5,9 C 22,0 km/h (4 Bft) 97 %
21.04.2017 16:46 11,6 C 68 % 1025,3 hPa 0,0 l/m 7,7 km/h (2 Bft) W 281 5,9 C 9,4 km/h (2 Bft) 100 %
21.04.2017 16:47 11,6 C 68 % 1025,3 hPa 0,0 l/m 15,3 km/h (3 Bft) S-SW 203 5,9 C 28,2 km/h (4 Bft) 96 %
21.04.2017 16:48 11,6 C 68 % 1025,3 hPa 0,0 l/m 9,6 km/h (2 Bft) W 264 5,9 C 18,8 km/h (3 Bft) 96 %
21.04.2017 16:49 11,6 C 68 % 1025,3 hPa 0,0 l/m 3,8 km/h (1 Bft) W-SW 258 5,9 C 6,3 km/h (2 Bft) 100 %
21.04.2017 16:50 11,6 C 68 % 1025,3 hPa 0,0 l/m 6,5 km/h (2 Bft) W-NW 301 5,9 C 15,7 km/h (3 Bft) 96 %
21.04.2017 16:51 11,6 C 69 % 1025,3 hPa 0,0 l/m 9,9 km/h (2 Bft) NW 313 6,1 C 25,1 km/h (4 Bft) 100 %
21.04.2017 16:52 11,6 C 68 % 1025,3 hPa 0,0 l/m 10,7 km/h (2 Bft) W 280 5,9 C 18,8 km/h (3 Bft) 100 %
21.04.2017 16:53 11,6 C 68 % 1025,2 hPa 0,0 l/m 9,0 km/h (2 Bft) W-SW 240 5,9 C 15,7 km/h (3 Bft) 98 %
21.04.2017 16:54 11,6 C 68 % 1025,2 hPa 0,0 l/m 17,4 km/h (3 Bft) SW 229 5,9 C 25,1 km/h (4 Bft) 93 %
21.04.2017 16:55 11,6 C 68 % 1025,2 hPa 0,0 l/m 8,6 km/h (2 Bft) W-SW 252 5,9 C 18,8 km/h (3 Bft) 100 %
21.04.2017 16:56 11,6 C 68 % 1025,2 hPa 0,0 l/m 10,9 km/h (2 Bft) W-NW 299 5,9 C 15,7 km/h (3 Bft) 100 %
21.04.2017 16:57 11,6 C 69 % 1025,2 hPa 0,0 l/m 6,8 km/h (2 Bft) W 266 6,1 C 12,6 km/h (3 Bft) 100 %
21.04.2017 16:58 11,6 C 69 % 1025,2 hPa 0,0 l/m 6,7 km/h (2 Bft) W-SW 252 6,1 C 22,0 km/h (4 Bft) 100 %
21.04.2017 16:59 11,6 C 68 % 1025,1 hPa 0,0 l/m 10,5 km/h (2 Bft) W-SW 252 5,9 C 18,8 km/h (3 Bft) 100 %
21.04.2017 17:00 11,6 C 68 % 1025,1 hPa 0,0 l/m 16,3 km/h (3 Bft) W 269 5,9 C 22,0 km/h (4 Bft) 100 %
21.04.2017 17:01 11,6 C 68 % 1025,1 hPa 0,0 l/m 11,3 km/h (2 Bft) W-SW 243 5,9 C 18,8 km/h (3 Bft) 100 %
21.04.2017 17:02 11,6 C 68 % 1025,1 hPa 0,0 l/m 9,9 km/h (2 Bft) NW 308 5,9 C 18,8 km/h (3 Bft) 100 %
21.04.2017 17:03 11,6 C 68 % 1025,2 hPa 0,0 l/m 14,3 km/h (3 Bft) W 267 5,9 C 25,1 km/h (4 Bft) 100 %
21.04.2017 17:04 11,6 C 68 % 1025,1 hPa 0,0 l/m 12,2 km/h (2 Bft) W-NW 284 5,9 C 18,8 km/h (3 Bft) 100 %
21.04.2017 17:05 11,6 C 68 % 1025,1 hPa 0,0 l/m 8,1 km/h (2 Bft) W 277 5,9 C 18,8 km/h (3 Bft) 100 %
21.04.2017 17:06 11,6 C 68 % 1025,1 hPa 0,0 l/m 11,4 km/h (2 Bft) S 172 5,9 C 22,0 km/h (4 Bft) 100 %
21.04.2017 17:07 11,6 C 68 % 1025,1 hPa 0,0 l/m 6,3 km/h (2 Bft) W-NW 297 5,9 C 9,4 km/h (2 Bft) 100 %
21.04.2017 17:08 11,6 C 68 % 1025,0 hPa 0,0 l/m 5,3 km/h (1 Bft) W-NW 284 5,9 C 9,4 km/h (2 Bft) 100 %
21.04.2017 17:09 11,6 C 69 % 1025,1 hPa 0,0 l/m 7,3 km/h (2 Bft) W-NW 303 6,1 C 12,6 km/h (3 Bft) 100 %
21.04.2017 17:10 11,6 C 68 % 1025,1 hPa 0,0 l/m 7,6 km/h (2 Bft) W 266 5,9 C 9,4 km/h (2 Bft) 100 %
21.04.2017 17:11 11,6 C 69 % 1025,1 hPa 0,0 l/m 6,9 km/h (2 Bft) NW 304 6,1 C 12,6 km/h (3 Bft) 100 %
21.04.2017 17:12 11,6 C 69 % 1025,1 hPa 0,0 l/m 8,0 km/h (2 Bft) W-NW 296 6,1 C 12,6 km/h (3 Bft) 100 %
21.04.2017 17:13 11,6 C 68 % 1025,1 hPa 0,0 l/m 7,6 km/h (2 Bft) W-NW 285 5,9 C 12,6 km/h (3 Bft) 100 %
21.04.2017 17:14 11,6 C 69 % 1025,1 hPa 0,0 l/m 10,8 km/h (2 Bft) NW 317 6,1 C 18,8 km/h (3 Bft) 100 %
21.04.2017 17:15 11,6 C 69 % 1025,1 hPa 0,0 l/m 4,0 km/h (1 Bft) W-NW 297 6,1 C 9,4 km/h (2 Bft) 100 %
21.04.2017 17:16 11,5 C 69 % 1025,1 hPa 0,0 l/m 11,8 km/h (2 Bft) W-NW 283 6,0 C 15,7 km/h (3 Bft) 100 %
21.04.2017 17:17 11,5 C 68 % 1025,1 hPa 0,0 l/m 6,5 km/h (2 Bft) W-SW 255 5,8 C 12,6 km/h (3 Bft) 100 %
21.04.2017 17:18 11,5 C 68 % 1025,1 hPa 0,0 l/m 5,2 km/h (1 Bft) W-SW 241 5,8 C 9,4 km/h (2 Bft) 100 %
21.04.2017 17:19 11,5 C 68 % 1025,0 hPa 0,0 l/m 10,1 km/h (2 Bft) W 281 5,8 C 18,8 km/h (3 Bft) 100 %
21.04.2017 17:20 11,5 C 68 % 1025,0 hPa 0,0 l/m 7,2 km/h (2 Bft) W 266 5,8 C 12,6 km/h (3 Bft) 100 %
21.04.2017 17:21 11,5 C 68 % 1025,0 hPa 0,0 l/m 10,7 km/h (2 Bft) W-NW 293 5,8 C 22,0 km/h (4 Bft) 100 %
21.04.2017 17:22 11,5 C 68 % 1025,0 hPa 0,0 l/m 11,6 km/h (2 Bft) NW 310 5,8 C 22,0 km/h (4 Bft) 100 %
21.04.2017 17:23 11,5 C 68 % 1025,0 hPa 0,0 l/m 7,6 km/h (2 Bft) W-NW 291 5,8 C 9,4 km/h (2 Bft) 100 %
21.04.2017 17:24 11,5 C 68 % 1024,9 hPa 0,0 l/m 6,7 km/h (2 Bft) NW 312 5,8 C 12,6 km/h (3 Bft) 100 %
21.04.2017 17:25 11,5 C 68 % 1025,0 hPa 0,0 l/m 4,7 km/h (1 Bft) W-NW 302 5,8 C 12,6 km/h (3 Bft) 100 %
21.04.2017 17:26 11,5 C 68 % 1024,9 hPa 0,0 l/m 6,1 km/h (2 Bft) NW 326 5,8 C 9,4 km/h (2 Bft) 100 %
21.04.2017 17:27 11,5 C 68 % 1024,9 hPa 0,0 l/m 8,6 km/h (2 Bft) W-NW 297 5,8 C 12,6 km/h (3 Bft) 100 %
21.04.2017 17:28 11,5 C 68 % 1024,9 hPa 0,0 l/m 7,2 km/h (2 Bft) SW 224 5,8 C 15,7 km/h (3 Bft) 100 %
21.04.2017 17:29 11,5 C 68 % 1024,9 hPa 0,0 l/m 2,1 km/h (1 Bft) W-SW 238 5,8 C 6,3 km/h (2 Bft) 100 %
21.04.2017 17:30 11,5 C 68 % 1024,9 hPa 0,0 l/m 3,9 km/h (1 Bft) W-NW 299 5,8 C 9,4 km/h (2 Bft) 100 %
21.04.2017 17:31 11,5 C 68 % 1024,9 hPa 0,0 l/m 7,4 km/h (2 Bft) W 274 5,8 C 12,6 km/h (3 Bft) 100 %
21.04.2017 17:32 11,5 C 68 % 1024,9 hPa 0,0 l/m 10,6 km/h (2 Bft) NW 316 5,8 C 18,8 km/h (3 Bft) 100 %
21.04.2017 17:33 11,6 C 68 % 1024,9 hPa 0,0 l/m 10,2 km/h (2 Bft) NW 304 5,9 C 18,8 km/h (3 Bft) 100 %
21.04.2017 17:34 11,6 C 68 % 1024,9 hPa 0,0 l/m 8,5 km/h (2 Bft) W 274 5,9 C 18,8 km/h (3 Bft) 100 %
21.04.2017 17:35 11,6 C 68 % 1024,9 hPa 0,0 l/m 7,4 km/h (2 Bft) W 265 5,9 C 15,7 km/h (3 Bft) 100 %
21.04.2017 17:36 11,6 C 68 % 1024,9 hPa 0,0 l/m 4,4 km/h (1 Bft) W-SW 246 5,9 C 6,3 km/h (2 Bft) 100 %
21.04.2017 17:37 11,6 C 68 % 1024,9 hPa 0,0 l/m 5,3 km/h (1 Bft) W-NW 298 5,9 C 9,4 km/h (2 Bft) 100 %
21.04.2017 17:38 11,6 C 68 % 1024,9 hPa 0,0 l/m 4,1 km/h (1 Bft) W-SW 257 5,9 C 6,3 km/h (2 Bft) 100 %
21.04.2017 17:39 11,6 C 68 % 1024,8 hPa 0,0 l/m 3,7 km/h (1 Bft) W 273 5,9 C 6,3 km/h (2 Bft) 100 %
21.04.2017 17:40 11,6 C 68 % 1024,9 hPa 0,0 l/m 9,2 km/h (2 Bft) W-NW 298 5,9 C 18,8 km/h (3 Bft) 100 %
21.04.2017 17:41 11,6 C 68 % 1024,8 hPa 0,0 l/m 7,4 km/h (2 Bft) W-SW 241 5,9 C 15,7 km/h (3 Bft) 100 %
21.04.2017 17:42 11,6 C 68 % 1024,8 hPa 0,0 l/m 5,1 km/h (1 Bft) N-NW 330 5,9 C 9,4 km/h (2 Bft) 100 %
21.04.2017 17:43 11,6 C 68 % 1024,8 hPa 0,0 l/m 3,8 km/h (1 Bft) W-NW 302 5,9 C 9,4 km/h (2 Bft) 100 %
21.04.2017 17:44 11,7 C 68 % 1024,8 hPa 0,0 l/m 4,3 km/h (1 Bft) W-SW 257 6,0 C 9,4 km/h (2 Bft) 100 %
21.04.2017 17:45 11,6 C 68 % 1024,8 hPa 0,0 l/m 7,4 km/h (2 Bft) W-NW 288 5,9 C 15,7 km/h (3 Bft) 96 %
21.04.2017 17:46 11,7 C 68 % 1024,8 hPa 0,0 l/m 9,2 km/h (2 Bft) NW 307 6,0 C 15,7 km/h (3 Bft) 96 %
21.04.2017 17:47 11,7 C 68 % 1024,9 hPa 0,0 l/m 2,7 km/h (1 Bft) W-NW 293 6,0 C 6,3 km/h (2 Bft) 100 %
21.04.2017 17:48 11,7 C 68 % 1024,8 hPa 0,0 l/m 4,9 km/h (1 Bft) W-NW 293 6,0 C 9,4 km/h (2 Bft) 100 %
21.04.2017 17:49 11,7 C 68 % 1024,8 hPa 0,0 l/m 2,6 km/h (1 Bft) W-NW 295 6,0 C 9,4 km/h (2 Bft) 100 %
21.04.2017 17:50 11,7 C 68 % 1024,8 hPa 0,0 l/m 9,4 km/h (2 Bft) S-SW 195 6,0 C 18,8 km/h (3 Bft) 100 %
21.04.2017 17:51 11,7 C 68 % 1024,8 hPa 0,0 l/m 7,6 km/h (2 Bft) NW 311 6,0 C 12,6 km/h (3 Bft) 97 %
21.04.2017 17:52 11,7 C 68 % 1024,7 hPa 0,0 l/m 6,3 km/h (2 Bft) SW 221 6,0 C 12,6 km/h (3 Bft) 100 %
21.04.2017 17:53 11,7 C 68 % 1024,7 hPa 0,0 l/m 2,0 km/h (1 Bft) W 268 6,0 C 6,3 km/h (2 Bft) 97 %
21.04.2017 17:54 11,7 C 68 % 1024,7 hPa 0,0 l/m 2,0 km/h (1 Bft) W 262 6,0 C 6,3 km/h (2 Bft) 100 %
21.04.2017 17:55 11,7 C 68 % 1024,7 hPa 0,0 l/m 2,4 km/h (1 Bft) NW 304 6,0 C 6,3 km/h (2 Bft) 95 %
21.04.2017 17:56 11,7 C 68 % 1024,7 hPa 0,0 l/m 2,2 km/h (1 Bft) W-NW 303 6,0 C 9,4 km/h (2 Bft) 100 %
21.04.2017 17:57 11,7 C 68 % 1024,7 hPa 0,0 l/m 12,3 km/h (3 Bft) N 352 6,0 C 18,8 km/h (3 Bft) 96 %
21.04.2017 17:58 11,8 C 68 % 1024,7 hPa 0,0 l/m 7,8 km/h (2 Bft) W-NW 289 6,1 C 15,7 km/h (3 Bft) 96 %
21.04.2017 17:59 11,8 C 68 % 1024,7 hPa 0,0 l/m 8,1 km/h (2 Bft) W 269 6,1 C 15,7 km/h (3 Bft) 100 %
21.04.2017 18:00 11,8 C 68 % 1024,7 hPa 0,0 l/m 5,9 km/h (2 Bft) SW 221 6,1 C 15,7 km/h (3 Bft) 96 %
21.04.2017 18:01 11,8 C 68 % 1024,6 hPa 0,0 l/m 0,6 km/h (0 Bft) W-NW 283 6,1 C 3,1 km/h (1 Bft) 100 %
21.04.2017 18:02 11,8 C 68 % 1024,6 hPa 0,0 l/m 3,9 km/h (1 Bft) W-SW 248 6,1 C 12,6 km/h (3 Bft) 96 %
21.04.2017 18:03 11,8 C 68 % 1024,6 hPa 0,0 l/m 8,2 km/h (2 Bft) W 281 6,1 C 15,7 km/h (3 Bft) 100 %
21.04.2017 18:04 11,8 C 68 % 1024,6 hPa 0,0 l/m 9,9 km/h (2 Bft) NW 309 6,1 C 18,8 km/h (3 Bft) 100 %
21.04.2017 18:05 11,8 C 68 % 1024,6 hPa 0,0 l/m 4,3 km/h (1 Bft) W 278 6,1 C 9,4 km/h (2 Bft) 100 %
21.04.2017 18:06 11,8 C 68 % 1024,6 hPa 0,0 l/m 9,0 km/h (2 Bft) W 276 6,1 C 18,8 km/h (3 Bft) 100 %
21.04.2017 18:07 11,8 C 67 % 1024,6 hPa 0,0 l/m 5,1 km/h (1 Bft) W 265 5,9 C 12,6 km/h (3 Bft) 100 %
21.04.2017 18:08 11,8 C 68 % 1024,6 hPa 0,0 l/m 6,8 km/h (2 Bft) W 272 6,1 C 12,6 km/h (3 Bft) 100 %
21.04.2017 18:09 11,8 C 68 % 1024,6 hPa 0,0 l/m 4,9 km/h (1 Bft) W-NW 282 6,1 C 12,6 km/h (3 Bft) 100 %
21.04.2017 18:10 11,8 C 68 % 1024,6 hPa 0,0 l/m 3,5 km/h (1 Bft) W 262 6,1 C 6,3 km/h (2 Bft) 100 %
21.04.2017 18:11 11,8 C 68 % 1024,6 hPa 0,0 l/m 5,2 km/h (1 Bft) W-NW 282 6,1 C 9,4 km/h (2 Bft) 100 %
21.04.2017 18:12 11,8 C 68 % 1024,6 hPa 0,0 l/m 8,6 km/h (2 Bft) SW 231 6,1 C 12,6 km/h (3 Bft) 100 %
21.04.2017 18:13 11,8 C 68 % 1024,6 hPa 0,0 l/m 8,2 km/h (2 Bft) S-SW 206 6,1 C 15,7 km/h (3 Bft) 100 %
21.04.2017 18:14 11,8 C 68 % 1024,5 hPa 0,0 l/m 11,5 km/h (2 Bft) W-SW 248 6,1 C 22,0 km/h (4 Bft) 100 %
21.04.2017 18:15 11,8 C 67 % 1024,6 hPa 0,0 l/m 7,6 km/h (2 Bft) W-NW 302 5,9 C 12,6 km/h (3 Bft) 100 %
21.04.2017 18:16 11,8 C 67 % 1024,6 hPa 0,0 l/m 9,0 km/h (2 Bft) W 281 5,9 C 22,0 km/h (4 Bft) 100 %
21.04.2017 18:17 11,8 C 67 % 1024,6 hPa 0,0 l/m 9,7 km/h (2 Bft) W-NW 298 5,9 C 18,8 km/h (3 Bft) 100 %
21.04.2017 18:18 11,8 C 67 % 1024,6 hPa 0,0 l/m 10,6 km/h (2 Bft) W-NW 298 5,9 C 18,8 km/h (3 Bft) 100 %
21.04.2017 18:19 11,8 C 67 % 1024,6 hPa 0,0 l/m 7,7 km/h (2 Bft) W-NW 302 5,9 C 12,6 km/h (3 Bft) 100 %
21.04.2017 18:20 11,8 C 67 % 1024,5 hPa 0,0 l/m 11,2 km/h (2 Bft) W-NW 295 5,9 C 25,1 km/h (4 Bft) 96 %
21.04.2017 18:21 11,8 C 67 % 1024,5 hPa 0,0 l/m 12,6 km/h (3 Bft) W 266 5,9 C 18,8 km/h (3 Bft) 100 %
21.04.2017 18:22 11,8 C 67 % 1024,4 hPa 0,0 l/m 13,3 km/h (3 Bft) W-SW 255 5,9 C 22,0 km/h (4 Bft) 100 %
21.04.2017 18:23 11,8 C 67 % 1024,4 hPa 0,0 l/m 8,6 km/h (2 Bft) W-NW 302 5,9 C 18,8 km/h (3 Bft) 100 %
21.04.2017 18:24 11,8 C 67 % 1024,5 hPa 0,0 l/m 5,0 km/h (1 Bft) W 262 5,9 C 9,4 km/h (2 Bft) 100 %
21.04.2017 18:25 11,8 C 67 % 1024,5 hPa 0,0 l/m 9,7 km/h (2 Bft) NW 326 5,9 C 15,7 km/h (3 Bft) 100 %
21.04.2017 18:26 11,8 C 67 % 1024,4 hPa 0,0 l/m 7,5 km/h (2 Bft) W 281 5,9 C 12,6 km/h (3 Bft) 100 %
21.04.2017 18:27 11,8 C 67 % 1024,4 hPa 0,0 l/m 11,0 km/h (2 Bft) W-NW 300 5,9 C 15,7 km/h (3 Bft) 100 %
21.04.2017 18:28 11,8 C 67 % 1024,4 hPa 0,0 l/m 3,5 km/h (1 Bft) W-SW 242 5,9 C 9,4 km/h (2 Bft) 100 %
21.04.2017 18:29 11,8 C 67 % 1024,4 hPa 0,0 l/m 2,7 km/h (1 Bft) W-NW 296 5,9 C 6,3 km/h (2 Bft) 100 %
21.04.2017 18:30 11,8 C 67 % 1024,4 hPa 0,0 l/m 4,3 km/h (1 Bft) W 266 5,9 C 6,3 km/h (2 Bft) 100 %
21.04.2017 18:31 11,8 C 67 % 1024,4 hPa 0,0 l/m 3,1 km/h (1 Bft) W 263 5,9 C 9,4 km/h (2 Bft) 100 %
21.04.2017 18:32 11,8 C 67 % 1024,4 hPa 0,0 l/m 3,5 km/h (1 Bft) W-NW 298 5,9 C 12,6 km/h (3 Bft) 100 %
21.04.2017 18:33 11,8 C 67 % 1024,4 hPa 0,0 l/m 6,3 km/h (2 Bft) W-NW 283 5,9 C 12,6 km/h (3 Bft) 100 %
21.04.2017 18:34 11,8 C 67 % 1024,3 hPa 0,0 l/m 8,4 km/h (2 Bft) W-NW 282 5,9 C 12,6 km/h (3 Bft) 100 %
21.04.2017 18:35 11,8 C 68 % 1024,3 hPa 0,0 l/m 3,0 km/h (1 Bft) SW 222 6,1 C 6,3 km/h (2 Bft) 100 %
21.04.2017 18:36 11,8 C 67 % 1024,3 hPa 0,0 l/m 8,2 km/h (2 Bft) W-NW 302 5,9 C 9,4 km/h (2 Bft) 99 %
21.04.2017 18:37 11,8 C 67 % 1024,3 hPa 0,0 l/m 7,6 km/h (2 Bft) W-NW 300 5,9 C 12,6 km/h (3 Bft) 100 %
21.04.2017 18:38 11,8 C 67 % 1024,3 hPa 0,0 l/m 4,6 km/h (1 Bft) W 265 5,9 C 9,4 km/h (2 Bft) 100 %
21.04.2017 18:39 11,8 C 68 % 1024,3 hPa 0,0 l/m 5,8 km/h (2 Bft) SW 233 6,1 C 12,6 km/h (3 Bft) 100 %
21.04.2017 18:40 11,8 C 68 % 1024,3 hPa 0,0 l/m 1,3 km/h (1 Bft) SW 231 6,1 C 3,1 km/h (1 Bft) 100 %
21.04.2017 18:41 11,8 C 68 % 1024,3 hPa 0,0 l/m 0,8 km/h (0 Bft) S-SW 199 6,1 C 3,1 km/h (1 Bft) 100 %
21.04.2017 18:42 11,8 C 68 % 1024,3 hPa 0,0 l/m 1,6 km/h (1 Bft) W 259 6,1 C 3,1 km/h (1 Bft) 100 %
21.04.2017 18:43 11,8 C 68 % 1024,2 hPa 0,0 l/m 1,2 km/h (1 Bft) SW 229 6,1 C 3,1 km/h (1 Bft) 100 %
21.04.2017 18:44 11,8 C 68 % 1024,2 hPa 0,0 l/m 4,8 km/h (1 Bft) W-NW 284 6,1 C 9,4 km/h (2 Bft) 100 %
21.04.2017 18:45 11,8 C 68 % 1024,2 hPa 0,0 l/m 2,4 km/h (1 Bft) NW 308 6,1 C 6,3 km/h (2 Bft) 100 %
21.04.2017 18:46 11,8 C 68 % 1024,2 hPa 0,0 l/m 7,6 km/h (2 Bft) SW 223 6,1 C 12,6 km/h (3 Bft) 100 %
21.04.2017 18:47 11,8 C 68 % 1024,2 hPa 0,0 l/m 2,2 km/h (1 Bft) W-NW 302 6,1 C 6,3 km/h (2 Bft) 100 %
21.04.2017 18:48 11,7 C 68 % 1024,2 hPa 0,0 l/m 3,7 km/h (1 Bft) NW 316 6,0 C 9,4 km/h (2 Bft) 100 %
21.04.2017 18:49 11,7 C 68 % 1024,1 hPa 0,0 l/m 2,5 km/h (1 Bft) W-SW 257 6,0 C 6,3 km/h (2 Bft) 96 %
21.04.2017 18:50 11,7 C 68 % 1024,1 hPa 0,0 l/m 5,6 km/h (1 Bft) W-NW 295 6,0 C 9,4 km/h (2 Bft) 100 %
21.04.2017 18:51 11,7 C 68 % 1024,1 hPa 0,0 l/m 2,7 km/h (1 Bft) W 281 6,0 C 6,3 km/h (2 Bft) 100 %
21.04.2017 18:52 11,7 C 68 % 1024,1 hPa 0,0 l/m 1,4 km/h (1 Bft) NW 323 6,0 C 3,1 km/h (1 Bft) 100 %
21.04.2017 18:53 11,7 C 68 % 1024,1 hPa 0,0 l/m 2,3 km/h (1 Bft) SW 226 6,0 C 6,3 km/h (2 Bft) 100 %
21.04.2017 18:54 11,7 C 68 % 1024,1 hPa 0,0 l/m 2,9 km/h (1 Bft) S-SW 200 6,0 C 3,1 km/h (1 Bft) 95 %
21.04.2017 18:55 11,7 C 68 % 1024,1 hPa 0,0 l/m 0,4 km/h (0 Bft) W-SW 252 6,0 C 3,1 km/h (1 Bft) 100 %
21.04.2017 18:56 11,7 C 68 % 1024,0 hPa 0,0 l/m 4,1 km/h (1 Bft) NW 311 6,0 C 9,4 km/h (2 Bft) 100 %
21.04.2017 18:57 11,7 C 68 % 1024,0 hPa 0,0 l/m 6,3 km/h (2 Bft) W-SW 239 6,0 C 9,4 km/h (2 Bft) 96 %
21.04.2017 18:58 11,7 C 68 % 1024,0 hPa 0,0 l/m 0,7 km/h (0 Bft) W 262 6,0 C 3,1 km/h (1 Bft) 96 %
21.04.2017 18:59 11,7 C 68 % 1024,0 hPa 0,0 l/m 1,7 km/h (1 Bft) W-SW 240 6,0 C 3,1 km/h (1 Bft) 96 %
21.04.2017 19:00 11,7 C 68 % 1024,0 hPa 0,0 l/m 0,0 km/h (0 Bft) W-SW 245 6,0 C 0,0 km/h (0 Bft) 100 %
21.04.2017 19:01 11,7 C 68 % 1024,0 hPa 0,0 l/m 0,0 km/h (0 Bft) W 278 6,0 C 0,0 km/h (0 Bft) 96 %
21.04.2017 19:02 11,7 C 68 % 1024,0 hPa 0,0 l/m 1,7 km/h (1 Bft) W 271 6,0 C 6,3 km/h (2 Bft) 100 %
21.04.2017 19:03 11,7 C 68 % 1024,0 hPa 0,0 l/m 1,6 km/h (1 Bft) W-SW 245 6,0 C 3,1 km/h (1 Bft) 96 %
21.04.2017 19:04 11,6 C 69 % 1024,0 hPa 0,0 l/m 0,9 km/h (0 Bft) SW 233 6,1 C 3,1 km/h (1 Bft) 100 %
21.04.2017 19:05 11,6 C 69 % 1024,0 hPa 0,0 l/m 0,1 km/h (0 Bft) W-SW 248 6,1 C 3,1 km/h (1 Bft) 96 %
21.04.2017 19:06 11,6 C 68 % 1024,0 hPa 0,0 l/m 2,8 km/h (1 Bft) W-SW 247 5,9 C 6,3 km/h (2 Bft) 96 %
21.04.2017 19:07 11,6 C 68 % 1023,9 hPa 0,0 l/m 0,8 km/h (0 Bft) SW 217 5,9 C 3,1 km/h (1 Bft) 100 %
21.04.2017 19:08 11,6 C 69 % 1024,0 hPa 0,0 l/m 0,8 km/h (0 Bft) W-SW 251 6,1 C 3,1 km/h (1 Bft) 96 %
21.04.2017 19:09 11,6 C 69 % 1024,0 hPa 0,0 l/m 2,8 km/h (1 Bft) N-NW 336 6,1 C 6,3 km/h (2 Bft) 100 %
21.04.2017 19:10 11,6 C 69 % 1023,9 hPa 0,0 l/m 3,5 km/h (1 Bft) SW 219 6,1 C 9,4 km/h (2 Bft) 97 %
21.04.2017 19:11 11,6 C 69 % 1023,9 hPa 0,0 l/m 1,6 km/h (1 Bft) SW 233 6,1 C 3,1 km/h (1 Bft) 100 %
21.04.2017 19:12 11,6 C 69 % 1023,9 hPa 0,0 l/m 3,1 km/h (1 Bft) W 271 6,1 C 6,3 km/h (2 Bft) 100 %
21.04.2017 19:13 11,6 C 68 % 1023,8 hPa 0,0 l/m 4,4 km/h (1 Bft) SW 233 5,9 C 12,6 km/h (3 Bft) 100 %
21.04.2017 19:14 11,6 C 68 % 1023,9 hPa 0,0 l/m 3,1 km/h (1 Bft) W-SW 247 5,9 C 6,3 km/h (2 Bft) 100 %
21.04.2017 19:15 11,6 C 68 % 1023,9 hPa 0,0 l/m 0,8 km/h (0 Bft) W-SW 249 5,9 C 3,1 km/h (1 Bft) 100 %
21.04.2017 19:16 11,6 C 68 % 1023,8 hPa 0,0 l/m 3,7 km/h (1 Bft) W-SW 243 5,9 C 12,6 km/h (3 Bft) 100 %
21.04.2017 19:17 11,6 C 68 % 1023,9 hPa 0,0 l/m 3,4 km/h (1 Bft) NW 323 5,9 C 6,3 km/h (2 Bft) 100 %
21.04.2017 19:18 11,6 C 68 % 1023,8 hPa 0,0 l/m 2,9 km/h (1 Bft) N-NW 329 5,9 C 12,6 km/h (3 Bft) 100 %
21.04.2017 19:19 11,6 C 68 % 1023,7 hPa 0,0 l/m 4,7 km/h (1 Bft) W-NW 297 5,9 C 6,3 km/h (2 Bft) 100 %
21.04.2017 19:20 11,6 C 68 % 1023,7 hPa 0,0 l/m 3,0 km/h (1 Bft) S-SW 203 5,9 C 12,6 km/h (3 Bft) 100 %
21.04.2017 19:21 11,6 C 67 % 1023,7 hPa 0,0 l/m 11,3 km/h (2 Bft) W-NW 302 5,7 C 15,7 km/h (3 Bft) 100 %
21.04.2017 19:22 11,6 C 67 % 1023,7 hPa 0,0 l/m 9,0 km/h (2 Bft) W-NW 288 5,7 C 18,8 km/h (3 Bft) 100 %
21.04.2017 19:23 11,6 C 67 % 1023,7 hPa 0,0 l/m 6,3 km/h (2 Bft) O 83 5,7 C 9,4 km/h (2 Bft) 100 %
21.04.2017 19:24 11,6 C 67 % 1023,6 hPa 0,0 l/m 6,0 km/h (2 Bft) S-SW 194 5,7 C 12,6 km/h (3 Bft) 100 %
21.04.2017 19:25 11,7 C 67 % 1023,7 hPa 0,0 l/m 7,1 km/h (2 Bft) W-NW 296 5,8 C 15,7 km/h (3 Bft) 100 %
21.04.2017 19:26 11,6 C 67 % 1023,7 hPa 0,0 l/m 9,5 km/h (2 Bft) NW 319 5,7 C 15,7 km/h (3 Bft) 100 %
21.04.2017 19:27 11,7 C 67 % 1023,7 hPa 0,0 l/m 11,5 km/h (2 Bft) SW 229 5,8 C 22,0 km/h (4 Bft) 100 %
21.04.2017 19:28 11,7 C 67 % 1023,7 hPa 0,0 l/m 3,9 km/h (1 Bft) W-NW 302 5,8 C 9,4 km/h (2 Bft) 100 %
21.04.2017 19:29 11,7 C 67 % 1023,7 hPa 0,0 l/m 4,9 km/h (1 Bft) SW 224 5,8 C 6,3 km/h (2 Bft) 100 %
21.04.2017 19:30 11,7 C 67 % 1023,6 hPa 0,0 l/m 14,0 km/h (3 Bft) W-SW 251 5,8 C 22,0 km/h (4 Bft) 100 %
21.04.2017 19:31 11,7 C 67 % 1023,6 hPa 0,0 l/m 14,4 km/h (3 Bft) W-NW 288 5,8 C 18,8 km/h (3 Bft) 100 %
21.04.2017 19:32 11,7 C 66 % 1023,6 hPa 0,0 l/m 10,4 km/h (2 Bft) W-SW 252 5,6 C 15,7 km/h (3 Bft) 100 %
21.04.2017 19:33 11,7 C 66 % 1023,6 hPa 0,0 l/m 6,1 km/h (2 Bft) SW 226 5,6 C 15,7 km/h (3 Bft) 100 %
21.04.2017 19:34 11,7 C 67 % 1023,6 hPa 0,0 l/m 8,6 km/h (2 Bft) NW 309 5,8 C 15,7 km/h (3 Bft) 100 %
21.04.2017 19:35 11,7 C 66 % 1023,7 hPa 0,0 l/m 13,8 km/h (3 Bft) NW 307 5,6 C 28,2 km/h (4 Bft) 100 %
21.04.2017 19:36 11,7 C 66 % 1023,6 hPa 0,0 l/m 10,3 km/h (2 Bft) W-NW 283 5,6 C 22,0 km/h (4 Bft) 100 %
21.04.2017 19:37 11,7 C 66 % 1023,6 hPa 0,0 l/m 17,0 km/h (3 Bft) W 273 5,6 C 28,2 km/h (4 Bft) 100 %
21.04.2017 19:38 11,7 C 66 % 1023,6 hPa 0,0 l/m 9,8 km/h (2 Bft) W-SW 257 5,6 C 18,8 km/h (3 Bft) 100 %
21.04.2017 19:39 11,7 C 66 % 1023,6 hPa 0,0 l/m 3,4 km/h (1 Bft) W-NW 286 5,6 C 6,3 km/h (2 Bft) 99 %
21.04.2017 19:40 11,7 C 66 % 1023,6 hPa 0,0 l/m 14,4 km/h (3 Bft) SW 236 5,6 C 18,8 km/h (3 Bft) 99 %
21.04.2017 19:41 11,7 C 66 % 1023,5 hPa 0,0 l/m 7,8 km/h (2 Bft) W-NW 295 5,6 C 18,8 km/h (3 Bft) 100 %
21.04.2017 19:42 11,7 C 66 % 1023,6 hPa 0,0 l/m 11,9 km/h (2 Bft) W-NW 297 5,6 C 22,0 km/h (4 Bft) 100 %
21.04.2017 19:43 11,7 C 66 % 1023,6 hPa 0,0 l/m 8,7 km/h (2 Bft) W-NW 289 5,6 C 12,6 km/h (3 Bft) 100 %
21.04.2017 19:44 11,7 C 66 % 1023,5 hPa 0,0 l/m 11,6 km/h (2 Bft) W 264 5,6 C 22,0 km/h (4 Bft) 100 %
21.04.2017 19:45 11,7 C 66 % 1023,5 hPa 0,0 l/m 4,4 km/h (1 Bft) W-NW 299 5,6 C 9,4 km/h (2 Bft) 100 %
21.04.2017 19:46 11,7 C 67 % 1023,5 hPa 0,0 l/m 1,7 km/h (1 Bft) W-SW 255 5,8 C 3,1 km/h (1 Bft) 99 %
21.04.2017 19:47 11,6 C 66 % 1023,5 hPa 0,0 l/m 6,3 km/h (2 Bft) SW 230 5,5 C 15,7 km/h (3 Bft) 100 %
21.04.2017 19:48 11,6 C 66 % 1023,5 hPa 0,0 l/m 9,6 km/h (2 Bft) W 267 5,5 C 18,8 km/h (3 Bft) 100 %
21.04.2017 19:49 11,6 C 66 % 1023,5 hPa 0,0 l/m 9,3 km/h (2 Bft) W-SW 251 5,5 C 18,8 km/h (3 Bft) 100 %
21.04.2017 19:50 11,6 C 66 % 1023,4 hPa 0,0 l/m 8,9 km/h (2 Bft) SW 218 5,5 C 15,7 km/h (3 Bft) 100 %
21.04.2017 19:51 11,6 C 66 % 1023,5 hPa 0,0 l/m 8,6 km/h (2 Bft) NW 304 5,5 C 15,7 km/h (3 Bft) 100 %
21.04.2017 19:52 11,6 C 67 % 1023,4 hPa 0,0 l/m 7,7 km/h (2 Bft) W-SW 244 5,7 C 18,8 km/h (3 Bft) 100 %
21.04.2017 19:53 11,6 C 67 % 1023,4 hPa 0,0 l/m 10,6 km/h (2 Bft) W 277 5,7 C 25,1 km/h (4 Bft) 100 %
21.04.2017 19:54 11,6 C 66 % 1023,4 hPa 0,0 l/m 13,3 km/h (3 Bft) W-SW 242 5,5 C 22,0 km/h (4 Bft) 100 %
21.04.2017 19:55 11,6 C 66 % 1023,4 hPa 0,0 l/m 11,7 km/h (2 Bft) W-NW 299 5,5 C 15,7 km/h (3 Bft) 100 %
21.04.2017 19:56 11,6 C 66 % 1023,4 hPa 0,0 l/m 9,9 km/h (2 Bft) SW 216 5,5 C 15,7 km/h (3 Bft) 100 %
21.04.2017 19:57 11,6 C 67 % 1023,4 hPa 0,0 l/m 6,6 km/h (2 Bft) W 262 5,7 C 12,6 km/h (3 Bft) 100 %
21.04.2017 19:59 11,6 C 67 % 1023,3 hPa 0,0 l/m 6,1 km/h (2 Bft) W 259 5,7 C 12,6 km/h (3 Bft) 100 %
21.04.2017 20:00 11,6 C 67 % 1023,3 hPa 0,0 l/m 7,3 km/h (2 Bft) W 274 5,7 C 15,7 km/h (3 Bft) 100 %
21.04.2017 20:01 11,6 C 67 % 1023,4 hPa 0,0 l/m 7,2 km/h (2 Bft) W-SW 248 5,7 C 12,6 km/h (3 Bft) 100 %
21.04.2017 20:02 11,6 C 67 % 1023,4 hPa 0,0 l/m 10,0 km/h (2 Bft) W-NW 297 5,7 C 18,8 km/h (3 Bft) 100 %
21.04.2017 20:03 11,6 C 67 % 1023,4 hPa 0,0 l/m 2,1 km/h (1 Bft) SW 219 5,7 C 9,4 km/h (2 Bft) 100 %
21.04.2017 20:04 11,6 C 67 % 1023,4 hPa 0,0 l/m 4,0 km/h (1 Bft) NW 322 5,7 C 12,6 km/h (3 Bft) 99 %
21.04.2017 20:05 11,6 C 67 % 1023,4 hPa 0,0 l/m 10,4 km/h (2 Bft) W-NW 296 5,7 C 18,8 km/h (3 Bft) 100 %
21.04.2017 20:06 11,6 C 67 % 1023,4 hPa 0,0 l/m 9,0 km/h (2 Bft) W 279 5,7 C 18,8 km/h (3 Bft) 96 %
21.04.2017 20:07 11,6 C 67 % 1023,4 hPa 0,0 l/m 10,7 km/h (2 Bft) S-SO 148 5,7 C 15,7 km/h (3 Bft) 100 %
21.04.2017 20:08 11,6 C 67 % 1023,3 hPa 0,0 l/m 10,6 km/h (2 Bft) W-NW 284 5,7 C 18,8 km/h (3 Bft) 96 %
21.04.2017 20:09 11,6 C 67 % 1023,3 hPa 0,0 l/m 13,3 km/h (3 Bft) W-SW 238 5,7 C 22,0 km/h (4 Bft) 100 %
21.04.2017 20:10 11,6 C 67 % 1023,3 hPa 0,0 l/m 8,2 km/h (2 Bft) NW 323 5,7 C 15,7 km/h (3 Bft) 100 %
21.04.2017 20:11 11,6 C 67 % 1023,3 hPa 0,0 l/m 7,8 km/h (2 Bft) SO 137 5,7 C 12,6 km/h (3 Bft) 96 %
21.04.2017 20:12 11,6 C 67 % 1023,3 hPa 0,0 l/m 8,0 km/h (2 Bft) W 281 5,7 C 18,8 km/h (3 Bft) 100 %
21.04.2017 20:13 11,6 C 67 % 1023,3 hPa 0,0 l/m 8,5 km/h (2 Bft) W-SW 239 5,7 C 15,7 km/h (3 Bft) 96 %
21.04.2017 20:14 11,6 C 67 % 1023,3 hPa 0,0 l/m 12,2 km/h (2 Bft) NW 305 5,7 C 22,0 km/h (4 Bft) 96 %
21.04.2017 20:15 11,6 C 67 % 1023,3 hPa 0,0 l/m 13,1 km/h (3 Bft) W-NW 294 5,7 C 28,2 km/h (4 Bft) 100 %
21.04.2017 20:16 11,6 C 67 % 1023,3 hPa 0,0 l/m 13,7 km/h (3 Bft) W 259 5,7 C 25,1 km/h (4 Bft) 100 %
21.04.2017 20:17 11,6 C 67 % 1023,3 hPa 0,0 l/m 4,8 km/h (1 Bft) NW 307 5,7 C 15,7 km/h (3 Bft) 96 %
21.04.2017 20:18 11,6 C 68 % 1023,3 hPa 0,0 l/m 8,9 km/h (2 Bft) NW 325 5,9 C 12,6 km/h (3 Bft) 96 %
21.04.2017 20:19 11,6 C 68 % 1023,3 hPa 0,0 l/m 4,4 km/h (1 Bft) W-NW 283 5,9 C 9,4 km/h (2 Bft) 100 %
21.04.2017 20:20 11,6 C 68 % 1023,3 hPa 0,0 l/m 4,7 km/h (1 Bft) W-SW 245 5,9 C 12,6 km/h (3 Bft) 96 %
21.04.2017 20:21 11,6 C 68 % 1023,2 hPa 0,0 l/m 6,5 km/h (2 Bft) NW 326 5,9 C 12,6 km/h (3 Bft) 100 %
21.04.2017 20:22 11,5 C 68 % 1023,2 hPa 0,0 l/m 4,9 km/h (1 Bft) W 270 5,8 C 9,4 km/h (2 Bft) 96 %
21.04.2017 20:23 11,5 C 68 % 1023,2 hPa 0,0 l/m 4,8 km/h (1 Bft) W-SW 253 5,8 C 9,4 km/h (2 Bft) 100 %
21.04.2017 20:24 11,5 C 68 % 1023,2 hPa 0,0 l/m 9,9 km/h (2 Bft) NW 309 5,8 C 15,7 km/h (3 Bft) 100 %
21.04.2017 20:25 11,5 C 68 % 1023,2 hPa 0,0 l/m 7,0 km/h (2 Bft) SO 141 5,8 C 12,6 km/h (3 Bft) 100 %
21.04.2017 20:26 11,5 C 68 % 1023,2 hPa 0,0 l/m 9,1 km/h (2 Bft) NW 317 5,8 C 15,7 km/h (3 Bft) 100 %
21.04.2017 20:27 11,5 C 68 % 1023,3 hPa 0,0 l/m 4,8 km/h (1 Bft) SW 231 5,8 C 9,4 km/h (2 Bft) 100 %
21.04.2017 20:28 11,5 C 68 % 1023,2 hPa 0,0 l/m 7,8 km/h (2 Bft) S 181 5,8 C 12,6 km/h (3 Bft) 100 %
21.04.2017 20:29 11,5 C 68 % 1023,2 hPa 0,0 l/m 13,3 km/h (3 Bft) S-SW 207 5,8 C 22,0 km/h (4 Bft) 100 %
21.04.2017 20:30 11,5 C 68 % 1023,2 hPa 0,0 l/m 9,6 km/h (2 Bft) W-SW 250 5,8 C 18,8 km/h (3 Bft) 100 %
21.04.2017 20:31 11,5 C 68 % 1023,3 hPa 0,0 l/m 9,7 km/h (2 Bft) N-NW 335 5,8 C 15,7 km/h (3 Bft) 100 %
21.04.2017 20:32 11,5 C 68 % 1023,2 hPa 0,0 l/m 11,4 km/h (2 Bft) SW 216 5,8 C 25,1 km/h (4 Bft) 100 %
21.04.2017 20:33 11,5 C 68 % 1023,2 hPa 0,0 l/m 8,4 km/h (2 Bft) NW 308 5,8 C 18,8 km/h (3 Bft) 100 %
21.04.2017 20:34 11,5 C 68 % 1023,2 hPa 0,0 l/m 8,8 km/h (2 Bft) NW 307 5,8 C 15,7 km/h (3 Bft) 100 %
21.04.2017 20:35 11,5 C 68 % 1023,2 hPa 0,0 l/m 4,0 km/h (1 Bft) NW 312 5,8 C 9,4 km/h (2 Bft) 100 %
21.04.2017 20:36 11,5 C 68 % 1023,2 hPa 0,0 l/m 10,7 km/h (2 Bft) W 279 5,8 C 22,0 km/h (4 Bft) 100 %
21.04.2017 20:37 11,5 C 69 % 1023,2 hPa 0,0 l/m 11,9 km/h (2 Bft) NW 326 6,0 C 28,2 km/h (4 Bft) 100 %
21.04.2017 20:38 11,5 C 69 % 1023,2 hPa 0,0 l/m 14,4 km/h (3 Bft) N-NW 328 6,0 C 22,0 km/h (4 Bft) 100 %
21.04.2017 20:39 11,5 C 69 % 1023,2 hPa 0,0 l/m 9,0 km/h (2 Bft) NW 304 6,0 C 15,7 km/h (3 Bft) 100 %
21.04.2017 20:40 11,5 C 69 % 1023,2 hPa 0,0 l/m 10,1 km/h (2 Bft) NW 314 6,0 C 18,8 km/h (3 Bft) 100 %
21.04.2017 20:41 11,5 C 69 % 1023,2 hPa 0,0 l/m 7,5 km/h (2 Bft) NW 314 6,0 C 18,8 km/h (3 Bft) 100 %
21.04.2017 20:42 11,5 C 69 % 1023,2 hPa 0,0 l/m 10,6 km/h (2 Bft) W-NW 296 6,0 C 22,0 km/h (4 Bft) 99 %
21.04.2017 20:43 11,4 C 69 % 1023,2 hPa 0,0 l/m 6,3 km/h (2 Bft) NW 311 5,9 C 9,4 km/h (2 Bft) 100 %
21.04.2017 20:44 11,4 C 69 % 1023,2 hPa 0,0 l/m 6,9 km/h (2 Bft) SO 144 5,9 C 15,7 km/h (3 Bft) 100 %
21.04.2017 20:45 11,4 C 70 % 1023,2 hPa 0,0 l/m 5,9 km/h (2 Bft) W 262 6,1 C 9,4 km/h (2 Bft) 100 %
21.04.2017 20:46 11,4 C 70 % 1023,2 hPa 0,0 l/m 7,5 km/h (2 Bft) W 274 6,1 C 18,8 km/h (3 Bft) 100 %
21.04.2017 20:47 11,4 C 70 % 1023,2 hPa 0,0 l/m 12,2 km/h (2 Bft) W-NW 297 6,1 C 18,8 km/h (3 Bft) 100 %
21.04.2017 20:48 11,4 C 70 % 1023,2 hPa 0,0 l/m 9,7 km/h (2 Bft) NW 309 6,1 C 12,6 km/h (3 Bft) 100 %
21.04.2017 20:49 11,4 C 70 % 1023,2 hPa 0,0 l/m 7,3 km/h (2 Bft) NW 305 6,1 C 12,6 km/h (3 Bft) 100 %
21.04.2017 20:50 11,4 C 70 % 1023,2 hPa 0,0 l/m 10,9 km/h (2 Bft) NW 313 6,1 C 18,8 km/h (3 Bft) 100 %
21.04.2017 20:51 11,4 C 70 % 1023,1 hPa 0,0 l/m 7,8 km/h (2 Bft) N-NW 331 6,1 C 12,6 km/h (3 Bft) 100 %
21.04.2017 20:52 11,4 C 70 % 1023,1 hPa 0,0 l/m 6,0 km/h (2 Bft) S 176 6,1 C 12,6 km/h (3 Bft) 100 %
21.04.2017 20:53 11,4 C 71 % 1023,2 hPa 0,0 l/m 7,1 km/h (2 Bft) W-NW 301 6,3 C 9,4 km/h (2 Bft) 100 %
21.04.2017 20:54 11,4 C 71 % 1023,2 hPa 0,0 l/m 9,1 km/h (2 Bft) W-SW 245 6,3 C 15,7 km/h (3 Bft) 100 %
21.04.2017 20:55 11,4 C 71 % 1023,2 hPa 0,0 l/m 7,2 km/h (2 Bft) NW 317 6,3 C 12,6 km/h (3 Bft) 100 %
21.04.2017 20:56 11,4 C 71 % 1023,2 hPa 0,0 l/m 6,0 km/h (2 Bft) W-SW 248 6,3 C 9,4 km/h (2 Bft) 100 %
21.04.2017 20:57 11,4 C 71 % 1023,2 hPa 0,0 l/m 11,8 km/h (2 Bft) W-SW 250 6,3 C 25,1 km/h (4 Bft) 100 %
21.04.2017 20:58 11,4 C 71 % 1023,3 hPa 0,0 l/m 10,9 km/h (2 Bft) W-NW 295 6,3 C 18,8 km/h (3 Bft) 100 %
21.04.2017 20:59 11,4 C 71 % 1023,2 hPa 0,0 l/m 11,3 km/h (2 Bft) S-SW 206 6,3 C 22,0 km/h (4 Bft) 100 %
21.04.2017 21:00 11,4 C 73 % 1023,2 hPa 0,0 l/m 18,7 km/h (3 Bft) NW 322 6,7 C 37,7 km/h (5 Bft) 100 %
21.04.2017 21:01 11,4 C 73 % 1023,2 hPa 0,0 l/m 10,9 km/h (2 Bft) NW 324 6,7 C 22,0 km/h (4 Bft) 100 %
21.04.2017 21:02 11,4 C 74 % 1023,3 hPa 0,0 l/m 7,4 km/h (2 Bft) W-NW 290 6,9 C 15,7 km/h (3 Bft) 100 %
21.04.2017 21:03 11,4 C 74 % 1023,3 hPa 0,0 l/m 6,4 km/h (2 Bft) W 279 6,9 C 9,4 km/h (2 Bft) 100 %
21.04.2017 21:04 11,3 C 74 % 1023,3 hPa 0,0 l/m 5,6 km/h (1 Bft) W-SW 252 6,8 C 18,8 km/h (3 Bft) 100 %
21.04.2017 21:05 11,3 C 75 % 1023,3 hPa 0,0 l/m 13,2 km/h (3 Bft) W-SW 255 7,0 C 22,0 km/h (4 Bft) 100 %
21.04.2017 21:06 11,3 C 76 % 1023,4 hPa 0,0 l/m 18,2 km/h (3 Bft) W-NW 289 7,2 C 34,5 km/h (5 Bft) 100 %
21.04.2017 21:07 11,3 C 76 % 1023,4 hPa 0,0 l/m 20,1 km/h (4 Bft) NW 306 7,2 C 40,8 km/h (6 Bft) 100 %
21.04.2017 21:08 11,2 C 77 % 1023,5 hPa 0,0 l/m 19,1 km/h (3 Bft) W-NW 293 7,3 C 31,4 km/h (5 Bft) 100 %
21.04.2017 21:09 11,2 C 78 % 1023,6 hPa 0,0 l/m 12,8 km/h (3 Bft) W 265 7,5 C 22,0 km/h (4 Bft) 100 %
21.04.2017 21:10 11,2 C 79 % 1023,6 hPa 0,0 l/m 17,7 km/h (3 Bft) NW 307 7,7 C 28,2 km/h (4 Bft) 100 %
21.04.2017 21:11 11,1 C 80 % 1023,5 hPa 0,0 l/m 10,7 km/h (2 Bft) W-NW 295 7,8 C 15,7 km/h (3 Bft) 100 %
21.04.2017 21:12 10,9 C 80 % 1023,5 hPa 0,0 l/m 21,4 km/h (4 Bft) NW 319 7,6 C 43,9 km/h (6 Bft) 100 %
21.04.2017 21:13 10,9 C 80 % 1023,4 hPa 0,0 l/m 15,2 km/h (3 Bft) W-NW 294 7,6 C 34,5 km/h (5 Bft) 100 %
21.04.2017 21:14 10,8 C 80 % 1023,5 hPa 0,0 l/m 33,9 km/h (5 Bft) W 281 7,5 C 53,3 km/h (7 Bft) 100 %
21.04.2017 21:15 10,7 C 79 % 1023,5 hPa 0,0 l/m 20,3 km/h (4 Bft) W 269 7,2 C 34,5 km/h (5 Bft) 100 %
21.04.2017 21:16 10,7 C 79 % 1023,5 hPa 0,0 l/m 14,8 km/h (3 Bft) W-NW 296 7,2 C 28,2 km/h (4 Bft) 100 %
21.04.2017 21:17 10,6 C 80 % 1023,5 hPa 0,0 l/m 17,7 km/h (3 Bft) W 261 7,3 C 28,2 km/h (4 Bft) 100 %
21.04.2017 21:18 10,6 C 80 % 1023,5 hPa 0,0 l/m 12,4 km/h (3 Bft) W-NW 283 7,3 C 22,0 km/h (4 Bft) 100 %
21.04.2017 21:19 10,6 C 80 % 1023,6 hPa 0,0 l/m 19,0 km/h (3 Bft) W-NW 295 7,3 C 31,4 km/h (5 Bft) 96 %
21.04.2017 21:20 10,5 C 80 % 1023,6 hPa 0,0 l/m 11,1 km/h (2 Bft) NW 316 7,2 C 18,8 km/h (3 Bft) 100 %
21.04.2017 21:21 10,5 C 80 % 1023,6 hPa 0,0 l/m 9,4 km/h (2 Bft) W 267 7,2 C 18,8 km/h (3 Bft) 100 %
21.04.2017 21:22 10,4 C 80 % 1023,7 hPa 0,0 l/m 11,8 km/h (2 Bft) W-NW 300 7,1 C 22,0 km/h (4 Bft) 100 %
21.04.2017 21:23 10,4 C 80 % 1023,6 hPa 0,0 l/m 16,9 km/h (3 Bft) W 279 7,1 C 28,2 km/h (4 Bft) 96 %
21.04.2017 21:24 10,4 C 81 % 1023,6 hPa 0,0 l/m 8,4 km/h (2 Bft) W-NW 282 7,3 C 12,6 km/h (3 Bft) 96 %
21.04.2017 21:25 10,4 C 81 % 1023,6 hPa 0,0 l/m 10,5 km/h (2 Bft) W-NW 299 7,3 C 22,0 km/h (4 Bft) 100 %
21.04.2017 21:26 10,4 C 81 % 1023,6 hPa 0,0 l/m 4,4 km/h (1 Bft) W 267 7,3 C 9,4 km/h (2 Bft) 96 %
21.04.2017 21:27 10,3 C 81 % 1023,6 hPa 0,0 l/m 3,1 km/h (1 Bft) W-NW 295 7,2 C 6,3 km/h (2 Bft) 100 %
21.04.2017 21:28 10,3 C 81 % 1023,6 hPa 0,0 l/m 12,9 km/h (3 Bft) W-NW 295 7,2 C 18,8 km/h (3 Bft) 93 %
21.04.2017 21:29 10,3 C 82 % 1023,6 hPa 0,0 l/m 5,1 km/h (1 Bft) W-NW 295 7,4 C 9,4 km/h (2 Bft) 100 %
21.04.2017 21:30 10,3 C 81 % 1023,5 hPa 0,0 l/m 11,4 km/h (2 Bft) N-NW 327 7,2 C 15,7 km/h (3 Bft) 93 %
21.04.2017 21:31 10,3 C 81 % 1023,6 hPa 0,0 l/m 7,4 km/h (2 Bft) W-NW 290 7,2 C 12,6 km/h (3 Bft) 100 %
21.04.2017 21:32 10,3 C 82 % 1023,6 hPa 0,0 l/m 2,7 km/h (1 Bft) W-SW 240 7,4 C 9,4 km/h (2 Bft) 97 %
21.04.2017 21:33 10,2 C 82 % 1023,5 hPa 0,0 l/m 6,4 km/h (2 Bft) W 262 7,3 C 9,4 km/h (2 Bft) 96 %
21.04.2017 21:34 10,2 C 82 % 1023,6 hPa 0,0 l/m 7,2 km/h (2 Bft) N-NW 329 7,3 C 18,8 km/h (3 Bft) 99 %
21.04.2017 21:35 10,2 C 81 % 1023,5 hPa 0,0 l/m 9,3 km/h (2 Bft) W 271 7,1 C 18,8 km/h (3 Bft) 98 %
21.04.2017 21:36 10,2 C 81 % 1023,5 hPa 0,0 l/m 6,6 km/h (2 Bft) W-NW 290 7,1 C 12,6 km/h (3 Bft) 96 %
21.04.2017 21:37 10,2 C 81 % 1023,6 hPa 0,0 l/m 3,8 km/h (1 Bft) SW 221 7,1 C 9,4 km/h (2 Bft) 100 %
21.04.2017 21:38 10,2 C 81 % 1023,6 hPa 0,0 l/m 0,3 km/h (0 Bft) N 10 7,1 C 3,1 km/h (1 Bft) 100 %
21.04.2017 21:39 10,2 C 81 % 1023,5 hPa 0,0 l/m 13,8 km/h (3 Bft) NW 311 7,1 C 28,2 km/h (4 Bft) 100 %
21.04.2017 21:40 10,2 C 81 % 1023,6 hPa 0,0 l/m 10,8 km/h (2 Bft) NW 315 7,1 C 22,0 km/h (4 Bft) 100 %
21.04.2017 21:41 10,2 C 80 % 1023,5 hPa 0,0 l/m 15,9 km/h (3 Bft) NW 321 6,9 C 34,5 km/h (5 Bft) 100 %
21.04.2017 21:42 10,2 C 80 % 1023,6 hPa 0,0 l/m 18,2 km/h (3 Bft) NW 326 6,9 C 34,5 km/h (5 Bft) 100 %
21.04.2017 21:43 10,2 C 80 % 1023,6 hPa 0,0 l/m 5,9 km/h (2 Bft) SW 231 6,9 C 12,6 km/h (3 Bft) 100 %
21.04.2017 21:44 10,2 C 80 % 1023,6 hPa 0,0 l/m 7,7 km/h (2 Bft) NW 312 6,9 C 15,7 km/h (3 Bft) 100 %
21.04.2017 21:45 10,2 C 80 % 1023,5 hPa 0,0 l/m 12,4 km/h (3 Bft) N-NW 344 6,9 C 22,0 km/h (4 Bft) 100 %
21.04.2017 21:46 10,2 C 79 % 1023,5 hPa 0,0 l/m 12,2 km/h (2 Bft) NW 309 6,7 C 22,0 km/h (4 Bft) 100 %
21.04.2017 21:47 10,2 C 80 % 1023,5 hPa 0,0 l/m 9,4 km/h (2 Bft) S-SW 210 6,9 C 18,8 km/h (3 Bft) 100 %
21.04.2017 21:48 10,2 C 80 % 1023,5 hPa 0,0 l/m 5,3 km/h (1 Bft) W-NW 297 6,9 C 9,4 km/h (2 Bft) 100 %
21.04.2017 21:49 10,2 C 80 % 1023,5 hPa 0,0 l/m 7,6 km/h (2 Bft) NW 304 6,9 C 12,6 km/h (3 Bft) 100 %
21.04.2017 21:50 10,2 C 79 % 1023,5 hPa 0,0 l/m 9,7 km/h (2 Bft) NW 321 6,7 C 22,0 km/h (4 Bft) 100 %
21.04.2017 21:51 10,2 C 79 % 1023,6 hPa 0,0 l/m 13,8 km/h (3 Bft) W-SW 243 6,7 C 31,4 km/h (5 Bft) 100 %
21.04.2017 21:52 10,2 C 79 % 1023,5 hPa 0,0 l/m 20,5 km/h (4 Bft) W 281 6,7 C 47,1 km/h (6 Bft) 100 %
21.04.2017 21:53 10,2 C 79 % 1023,5 hPa 0,0 l/m 7,1 km/h (2 Bft) W 263 6,7 C 12,6 km/h (3 Bft) 100 %
21.04.2017 21:54 10,2 C 79 % 1023,5 hPa 0,0 l/m 12,0 km/h (2 Bft) W-SW 245 6,7 C 25,1 km/h (4 Bft) 100 %
21.04.2017 21:55 10,2 C 79 % 1023,6 hPa 0,0 l/m 12,2 km/h (2 Bft) W-SW 251 6,7 C 18,8 km/h (3 Bft) 100 %
21.04.2017 21:56 10,2 C 79 % 1023,6 hPa 0,0 l/m 11,1 km/h (2 Bft) W 269 6,7 C 18,8 km/h (3 Bft) 100 %
21.04.2017 21:57 10,2 C 79 % 1023,5 hPa 0,0 l/m 14,3 km/h (3 Bft) W-NW 291 6,7 C 22,0 km/h (4 Bft) 100 %
21.04.2017 21:58 10,2 C 79 % 1023,5 hPa 0,0 l/m 10,9 km/h (2 Bft) NW 325 6,7 C 22,0 km/h (4 Bft) 100 %
21.04.2017 21:59 10,2 C 79 % 1023,5 hPa 0,0 l/m 8,3 km/h (2 Bft) N-NW 329 6,7 C 12,6 km/h (3 Bft) 100 %
21.04.2017 22:00 10,2 C 79 % 1023,6 hPa 0,0 l/m 5,2 km/h (1 Bft) W-SW 248 6,7 C 12,6 km/h (3 Bft) 100 %
21.04.2017 22:01 10,2 C 79 % 1023,5 hPa 0,0 l/m 4,6 km/h (1 Bft) W-NW 290 6,7 C 15,7 km/h (3 Bft) 100 %
21.04.2017 22:02 10,2 C 79 % 1023,5 hPa 0,0 l/m 6,3 km/h (2 Bft) W-NW 289 6,7 C 12,6 km/h (3 Bft) 100 %
21.04.2017 22:03 10,2 C 80 % 1023,4 hPa 0,0 l/m 9,9 km/h (2 Bft) NO 49 6,9 C 15,7 km/h (3 Bft) 100 %
21.04.2017 22:04 10,2 C 80 % 1023,4 hPa 0,0 l/m 12,0 km/h (2 Bft) W-SW 243 6,9 C 22,0 km/h (4 Bft) 100 %
21.04.2017 22:05 10,2 C 80 % 1023,5 hPa 0,0 l/m 13,2 km/h (3 Bft) W 279 6,9 C 22,0 km/h (4 Bft) 100 %
21.04.2017 22:06 10,2 C 80 % 1023,5 hPa 0,0 l/m 2,0 km/h (1 Bft) W 269 6,9 C 3,1 km/h (1 Bft) 100 %
21.04.2017 22:07 10,2 C 80 % 1023,5 hPa 0,0 l/m 5,3 km/h (1 Bft) NW 308 6,9 C 12,6 km/h (3 Bft) 100 %
21.04.2017 22:08 10,2 C 80 % 1023,5 hPa 0,0 l/m 7,8 km/h (2 Bft) W 265 6,9 C 12,6 km/h (3 Bft) 100 %
21.04.2017 22:09 10,2 C 80 % 1023,5 hPa 0,0 l/m 14,3 km/h (3 Bft) W-NW 290 6,9 C 25,1 km/h (4 Bft) 100 %
21.04.2017 22:10 10,1 C 80 % 1023,5 hPa 0,0 l/m 7,3 km/h (2 Bft) NW 321 6,8 C 18,8 km/h (3 Bft) 100 %
21.04.2017 22:11 10,1 C 80 % 1023,5 hPa 0,0 l/m 13,5 km/h (3 Bft) NW 324 6,8 C 18,8 km/h (3 Bft) 100 %
21.04.2017 22:12 10,1 C 80 % 1023,5 hPa 0,0 l/m 13,5 km/h (3 Bft) W-SW 250 6,8 C 25,1 km/h (4 Bft) 100 %
21.04.2017 22:13 10,1 C 80 % 1023,5 hPa 0,0 l/m 8,2 km/h (2 Bft) W-NW 282 6,8 C 15,7 km/h (3 Bft) 100 %
21.04.2017 22:14 10,1 C 80 % 1023,5 hPa 0,0 l/m 9,6 km/h (2 Bft) NW 320 6,8 C 15,7 km/h (3 Bft) 100 %
21.04.2017 22:15 10,1 C 80 % 1023,5 hPa 0,0 l/m 4,2 km/h (1 Bft) W 274 6,8 C 9,4 km/h (2 Bft) 100 %
21.04.2017 22:16 10,1 C 80 % 1023,5 hPa 0,0 l/m 15,0 km/h (3 Bft) N-NW 328 6,8 C 25,1 km/h (4 Bft) 100 %
21.04.2017 22:17 10,1 C 80 % 1023,5 hPa 0,0 l/m 15,0 km/h (3 Bft) N 357 6,8 C 18,8 km/h (3 Bft) 100 %
21.04.2017 22:18 10,1 C 80 % 1023,4 hPa 0,0 l/m 4,7 km/h (1 Bft) NW 316 6,8 C 9,4 km/h (2 Bft) 100 %
21.04.2017 22:19 10,1 C 80 % 1023,4 hPa 0,0 l/m 6,7 km/h (2 Bft) S-SW 199 6,8 C 15,7 km/h (3 Bft) 100 %
21.04.2017 22:20 10,1 C 80 % 1023,4 hPa 0,0 l/m 8,8 km/h (2 Bft) NW 311 6,8 C 15,7 km/h (3 Bft) 100 %
21.04.2017 22:21 10,1 C 80 % 1023,4 hPa 0,0 l/m 14,9 km/h (3 Bft) W 266 6,8 C 22,0 km/h (4 Bft) 100 %
21.04.2017 22:22 10,1 C 80 % 1023,4 hPa 0,0 l/m 8,4 km/h (2 Bft) W 265 6,8 C 22,0 km/h (4 Bft) 100 %
21.04.2017 22:23 10,0 C 80 % 1023,4 hPa 0,0 l/m 4,2 km/h (1 Bft) W 267 6,7 C 6,3 km/h (2 Bft) 99 %
21.04.2017 22:24 10,1 C 80 % 1023,4 hPa 0,0 l/m 17,9 km/h (3 Bft) W-SW 241 6,8 C 25,1 km/h (4 Bft) 100 %
21.04.2017 22:25 10,0 C 80 % 1023,3 hPa 0,0 l/m 14,9 km/h (3 Bft) N-NW 328 6,7 C 22,0 km/h (4 Bft) 100 %
21.04.2017 22:26 10,0 C 79 % 1023,4 hPa 0,0 l/m 15,5 km/h (3 Bft) NW 323 6,5 C 34,5 km/h (5 Bft) 100 %
21.04.2017 22:27 10,0 C 79 % 1023,3 hPa 0,0 l/m 13,1 km/h (3 Bft) W-NW 283 6,5 C 34,5 km/h (5 Bft) 100 %
21.04.2017 22:28 10,0 C 80 % 1023,3 hPa 0,0 l/m 1,6 km/h (1 Bft) SW 223 6,7 C 6,3 km/h (2 Bft) 100 %
21.04.2017 22:29 10,0 C 80 % 1023,3 hPa 0,0 l/m 6,8 km/h (2 Bft) W 274 6,7 C 15,7 km/h (3 Bft) 100 %
21.04.2017 22:30 10,0 C 80 % 1023,3 hPa 0,0 l/m 7,2 km/h (2 Bft) W-SW 248 6,7 C 15,7 km/h (3 Bft) 100 %
21.04.2017 22:31 10,0 C 79 % 1023,3 hPa 0,0 l/m 6,3 km/h (2 Bft) W 278 6,5 C 12,6 km/h (3 Bft) 100 %
21.04.2017 22:32 10,0 C 79 % 1023,3 hPa 0,0 l/m 14,8 km/h (3 Bft) S-SW 210 6,5 C 25,1 km/h (4 Bft) 100 %
21.04.2017 22:33 10,0 C 78 % 1023,3 hPa 0,0 l/m 3,8 km/h (1 Bft) W 277 6,3 C 6,3 km/h (2 Bft) 100 %
21.04.2017 22:34 10,0 C 78 % 1023,3 hPa 0,0 l/m 8,8 km/h (2 Bft) N-NW 340 6,3 C 18,8 km/h (3 Bft) 100 %
21.04.2017 22:35 10,0 C 77 % 1023,3 hPa 0,0 l/m 9,7 km/h (2 Bft) W 261 6,2 C 18,8 km/h (3 Bft) 96 %
21.04.2017 22:36 10,0 C 77 % 1023,3 hPa 0,0 l/m 9,4 km/h (2 Bft) W-SW 257 6,2 C 15,7 km/h (3 Bft) 100 %
21.04.2017 22:37 10,0 C 77 % 1023,3 hPa 0,0 l/m 9,6 km/h (2 Bft) W-NW 302 6,2 C 12,6 km/h (3 Bft) 100 %
21.04.2017 22:38 10,1 C 77 % 1023,3 hPa 0,0 l/m 8,9 km/h (2 Bft) W 280 6,3 C 15,7 km/h (3 Bft) 100 %
21.04.2017 22:39 10,0 C 77 % 1023,3 hPa 0,0 l/m 6,8 km/h (2 Bft) NW 319 6,2 C 18,8 km/h (3 Bft) 100 %
21.04.2017 22:40 10,1 C 77 % 1023,3 hPa 0,0 l/m 10,6 km/h (2 Bft) S-SW 213 6,3 C 22,0 km/h (4 Bft) 96 %
21.04.2017 22:41 10,1 C 76 % 1023,4 hPa 0,0 l/m 9,8 km/h (2 Bft) W 275 6,1 C 12,6 km/h (3 Bft) 92 %
21.04.2017 22:42 10,1 C 76 % 1023,3 hPa 0,0 l/m 17,7 km/h (3 Bft) W-SW 242 6,1 C 34,5 km/h (5 Bft) 100 %
21.04.2017 22:43 10,1 C 76 % 1023,3 hPa 0,0 l/m 6,9 km/h (2 Bft) W-NW 297 6,1 C 12,6 km/h (3 Bft) 100 %
21.04.2017 22:44 10,1 C 76 % 1023,3 hPa 0,0 l/m 7,1 km/h (2 Bft) W-SW 245 6,1 C 15,7 km/h (3 Bft) 96 %
21.04.2017 22:46 10,1 C 76 % 1023,3 hPa 0,0 l/m 9,3 km/h (2 Bft) W-NW 298 6,1 C 22,0 km/h (4 Bft) 98 %
21.04.2017 22:47 10,1 C 76 % 1023,3 hPa 0,0 l/m 8,8 km/h (2 Bft) W-SW 254 6,1 C 15,7 km/h (3 Bft) 92 %
21.04.2017 22:48 10,1 C 75 % 1023,3 hPa 0,0 l/m 11,3 km/h (2 Bft) NW 306 5,9 C 15,7 km/h (3 Bft) 100 %
21.04.2017 22:49 10,1 C 75 % 1023,3 hPa 0,0 l/m 7,3 km/h (2 Bft) NW 325 5,9 C 12,6 km/h (3 Bft) 98 %
21.04.2017 22:50 10,1 C 75 % 1023,3 hPa 0,0 l/m 7,4 km/h (2 Bft) W 266 5,9 C 12,6 km/h (3 Bft) 96 %
21.04.2017 22:51 10,1 C 75 % 1023,3 hPa 0,0 l/m 6,3 km/h (2 Bft) W 265 5,9 C 9,4 km/h (2 Bft) 100 %
21.04.2017 22:52 10,1 C 75 % 1023,3 hPa 0,0 l/m 9,9 km/h (2 Bft) W 277 5,9 C 22,0 km/h (4 Bft) 96 %
21.04.2017 22:53 10,1 C 75 % 1023,3 hPa 0,0 l/m 17,3 km/h (3 Bft) NW 306 5,9 C 28,2 km/h (4 Bft) 100 %
21.04.2017 22:54 10,1 C 75 % 1023,3 hPa 0,0 l/m 10,5 km/h (2 Bft) W 278 5,9 C 25,1 km/h (4 Bft) 100 %
21.04.2017 22:55 10,1 C 75 % 1023,3 hPa 0,0 l/m 6,5 km/h (2 Bft) W-SW 250 5,9 C 9,4 km/h (2 Bft) 97 %
21.04.2017 22:56 10,1 C 75 % 1023,2 hPa 0,0 l/m 5,8 km/h (2 Bft) W 278 5,9 C 18,8 km/h (3 Bft) 100 %
21.04.2017 22:57 10,1 C 75 % 1023,2 hPa 0,0 l/m 14,2 km/h (3 Bft) N 349 5,9 C 28,2 km/h (4 Bft) 100 %
21.04.2017 22:58 10,1 C 75 % 1023,2 hPa 0,0 l/m 9,6 km/h (2 Bft) W 280 5,9 C 15,7 km/h (3 Bft) 100 %
21.04.2017 22:59 10,1 C 75 % 1023,2 hPa 0,0 l/m 5,9 km/h (2 Bft) W 276 5,9 C 12,6 km/h (3 Bft) 100 %
21.04.2017 23:00 10,0 C 75 % 1023,2 hPa 0,0 l/m 8,6 km/h (2 Bft) NW 325 5,8 C 15,7 km/h (3 Bft) 100 %
21.04.2017 23:01 10,0 C 75 % 1023,2 hPa 0,0 l/m 3,9 km/h (1 Bft) W-SW 246 5,8 C 6,3 km/h (2 Bft) 100 %
21.04.2017 23:02 10,0 C 75 % 1023,1 hPa 0,0 l/m 5,8 km/h (2 Bft) W-SW 257 5,8 C 9,4 km/h (2 Bft) 100 %
21.04.2017 23:03 10,0 C 75 % 1023,1 hPa 0,0 l/m 3,5 km/h (1 Bft) W 259 5,8 C 6,3 km/h (2 Bft) 100 %
21.04.2017 23:04 10,0 C 75 % 1023,1 hPa 0,0 l/m 1,8 km/h (1 Bft) W-SW 248 5,8 C 6,3 km/h (2 Bft) 100 %
21.04.2017 23:05 9,9 C 75 % 1023,1 hPa 0,0 l/m 3,0 km/h (1 Bft) NW 323 5,7 C 9,4 km/h (2 Bft) 100 %
21.04.2017 23:06 9,9 C 75 % 1023,1 hPa 0,0 l/m 8,6 km/h (2 Bft) W-SW 258 5,7 C 15,7 km/h (3 Bft) 100 %
21.04.2017 23:07 9,9 C 75 % 1023,1 hPa 0,0 l/m 8,3 km/h (2 Bft) W 275 5,7 C 15,7 km/h (3 Bft) 100 %
21.04.2017 23:08 9,9 C 76 % 1023,2 hPa 0,0 l/m 5,0 km/h (1 Bft) W-NW 285 5,9 C 9,4 km/h (2 Bft) 100 %
21.04.2017 23:09 9,9 C 76 % 1023,2 hPa 0,0 l/m 8,0 km/h (2 Bft) W-SW 250 5,9 C 9,4 km/h (2 Bft) 100 %
21.04.2017 23:10 9,9 C 76 % 1023,1 hPa 0,0 l/m 10,5 km/h (2 Bft) W-NW 294 5,9 C 18,8 km/h (3 Bft) 100 %
21.04.2017 23:11 9,9 C 76 % 1023,1 hPa 0,0 l/m 6,0 km/h (2 Bft) W-NW 282 5,9 C 15,7 km/h (3 Bft) 100 %
21.04.2017 23:12 9,9 C 76 % 1023,1 hPa 0,0 l/m 10,5 km/h (2 Bft) W-NW 284 5,9 C 15,7 km/h (3 Bft) 100 %
21.04.2017 23:13 9,9 C 76 % 1023,1 hPa 0,0 l/m 6,8 km/h (2 Bft) W 281 5,9 C 9,4 km/h (2 Bft) 100 %
21.04.2017 23:14 9,9 C 76 % 1023,1 hPa 0,0 l/m 8,0 km/h (2 Bft) N-NW 342 5,9 C 12,6 km/h (3 Bft) 100 %
21.04.2017 23:15 9,9 C 76 % 1023,1 hPa 0,0 l/m 9,4 km/h (2 Bft) W-NW 288 5,9 C 15,7 km/h (3 Bft) 100 %
21.04.2017 23:16 9,9 C 76 % 1023,0 hPa 0,0 l/m 6,3 km/h (2 Bft) W-NW 297 5,9 C 15,7 km/h (3 Bft) 100 %
21.04.2017 23:17 9,8 C 76 % 1023,1 hPa 0,0 l/m 8,0 km/h (2 Bft) W-SW 249 5,8 C 18,8 km/h (3 Bft) 100 %
21.04.2017 23:18 9,8 C 76 % 1023,2 hPa 0,0 l/m 8,5 km/h (2 Bft) W 264 5,8 C 12,6 km/h (3 Bft) 100 %
21.04.2017 23:19 9,8 C 76 % 1023,1 hPa 0,0 l/m 0,9 km/h (0 Bft) NW 304 5,8 C 3,1 km/h (1 Bft) 100 %
21.04.2017 23:20 9,8 C 77 % 1023,1 hPa 0,0 l/m 6,7 km/h (2 Bft) W-NW 301 6,0 C 12,6 km/h (3 Bft) 100 %
21.04.2017 23:21 9,8 C 77 % 1023,1 hPa 0,0 l/m 5,2 km/h (1 Bft) W-SW 243 6,0 C 12,6 km/h (3 Bft) 100 %
21.04.2017 23:22 9,8 C 77 % 1023,1 hPa 0,0 l/m 4,8 km/h (1 Bft) W-NW 298 6,0 C 12,6 km/h (3 Bft) 100 %
21.04.2017 23:23 9,8 C 77 % 1023,1 hPa 0,0 l/m 11,0 km/h (2 Bft) NW 304 6,0 C 18,8 km/h (3 Bft) 100 %
21.04.2017 23:24 9,8 C 77 % 1023,1 hPa 0,0 l/m 6,5 km/h (2 Bft) N-NW 332 6,0 C 12,6 km/h (3 Bft) 100 %
21.04.2017 23:25 9,7 C 77 % 1023,1 hPa 0,0 l/m 8,6 km/h (2 Bft) SW 224 5,9 C 12,6 km/h (3 Bft) 100 %
21.04.2017 23:26 9,7 C 77 % 1023,1 hPa 0,0 l/m 3,5 km/h (1 Bft) W-NW 295 5,9 C 9,4 km/h (2 Bft) 100 %
21.04.2017 23:27 9,7 C 77 % 1023,1 hPa 0,0 l/m 17,0 km/h (3 Bft) W-NW 283 5,9 C 28,2 km/h (4 Bft) 100 %
21.04.2017 23:28 9,7 C 77 % 1023,1 hPa 0,0 l/m 3,7 km/h (1 Bft) W-NW 303 5,9 C 9,4 km/h (2 Bft) 100 %
21.04.2017 23:29 9,7 C 77 % 1023,1 hPa 0,0 l/m 10,4 km/h (2 Bft) W-NW 284 5,9 C 18,8 km/h (3 Bft) 100 %
21.04.2017 23:30 9,7 C 77 % 1023,1 hPa 0,0 l/m 7,6 km/h (2 Bft) N 349 5,9 C 15,7 km/h (3 Bft) 100 %
21.04.2017 23:31 9,7 C 77 % 1023,1 hPa 0,0 l/m 2,1 km/h (1 Bft) NW 321 5,9 C 3,1 km/h (1 Bft) 100 %
21.04.2017 23:32 9,7 C 77 % 1023,1 hPa 0,0 l/m 8,0 km/h (2 Bft) W-SW 240 5,9 C 12,6 km/h (3 Bft) 100 %
21.04.2017 23:33 9,7 C 77 % 1023,1 hPa 0,0 l/m 7,1 km/h (2 Bft) SW 231 5,9 C 9,4 km/h (2 Bft) 100 %
21.04.2017 23:34 9,7 C 77 % 1023,1 hPa 0,0 l/m 13,0 km/h (3 Bft) NW 324 5,9 C 28,2 km/h (4 Bft) 100 %
21.04.2017 23:35 9,7 C 77 % 1023,1 hPa 0,0 l/m 6,9 km/h (2 Bft) W-NW 302 5,9 C 12,6 km/h (3 Bft) 100 %
21.04.2017 23:36 9,7 C 77 % 1023,1 hPa 0,0 l/m 6,9 km/h (2 Bft) SW 229 5,9 C 9,4 km/h (2 Bft) 100 %
21.04.2017 23:37 9,7 C 76 % 1023,0 hPa 0,0 l/m 11,8 km/h (2 Bft) W 268 5,7 C 18,8 km/h (3 Bft) 100 %
21.04.2017 23:38 9,7 C 76 % 1022,9 hPa 0,0 l/m 9,1 km/h (2 Bft) W-NW 286 5,7 C 12,6 km/h (3 Bft) 100 %
21.04.2017 23:39 9,7 C 76 % 1022,9 hPa 0,0 l/m 7,8 km/h (2 Bft) W 264 5,7 C 15,7 km/h (3 Bft) 100 %
21.04.2017 23:40 9,7 C 76 % 1022,9 hPa 0,0 l/m 7,1 km/h (2 Bft) W-SW 241 5,7 C 34,5 km/h (5 Bft) 100 %
21.04.2017 23:41 9,7 C 76 % 1022,9 hPa 0,0 l/m 11,8 km/h (2 Bft) NW 307 5,7 C 25,1 km/h (4 Bft) 100 %
21.04.2017 23:42 9,7 C 76 % 1022,9 hPa 0,0 l/m 11,3 km/h (2 Bft) W-SW 249 5,7 C 25,1 km/h (4 Bft) 100 %
21.04.2017 23:43 9,7 C 76 % 1022,9 hPa 0,0 l/m 7,0 km/h (2 Bft) W-NW 297 5,7 C 18,8 km/h (3 Bft) 100 %
21.04.2017 23:44 9,6 C 76 % 1022,9 hPa 0,0 l/m 11,1 km/h (2 Bft) NW 309 5,6 C 18,8 km/h (3 Bft) 100 %
21.04.2017 23:45 9,7 C 76 % 1022,9 hPa 0,0 l/m 9,1 km/h (2 Bft) W 264 5,7 C 12,6 km/h (3 Bft) 100 %
21.04.2017 23:46 9,6 C 76 % 1022,9 hPa 0,0 l/m 6,9 km/h (2 Bft) W 277 5,6 C 9,4 km/h (2 Bft) 100 %
21.04.2017 23:47 9,6 C 76 % 1022,9 hPa 0,0 l/m 7,6 km/h (2 Bft) W-SW 254 5,6 C 12,6 km/h (3 Bft) 100 %
21.04.2017 23:48 9,6 C 76 % 1022,9 hPa 0,0 l/m 13,1 km/h (3 Bft) W 275 5,6 C 22,0 km/h (4 Bft) 100 %
21.04.2017 23:49 9,6 C 76 % 1022,9 hPa 0,0 l/m 6,3 km/h (2 Bft) W 278 5,6 C 15,7 km/h (3 Bft) 100 %
21.04.2017 23:50 9,6 C 76 % 1022,9 hPa 0,0 l/m 3,0 km/h (1 Bft) NW 311 5,6 C 12,6 km/h (3 Bft) 100 %
21.04.2017 23:51 9,6 C 76 % 1022,9 hPa 0,0 l/m 8,9 km/h (2 Bft) W-NW 287 5,6 C 15,7 km/h (3 Bft) 100 %
21.04.2017 23:52 9,6 C 76 % 1022,9 hPa 0,0 l/m 5,0 km/h (1 Bft) W-NW 297 5,6 C 12,6 km/h (3 Bft) 100 %
21.04.2017 23:53 9,5 C 76 % 1022,9 hPa 0,0 l/m 11,7 km/h (2 Bft) N-NW 339 5,5 C 18,8 km/h (3 Bft) 100 %
21.04.2017 23:54 9,5 C 76 % 1022,9 hPa 0,0 l/m 8,2 km/h (2 Bft) W-SW 255 5,5 C 12,6 km/h (3 Bft) 100 %
21.04.2017 23:55 9,5 C 76 % 1022,8 hPa 0,0 l/m 10,7 km/h (2 Bft) W 265 5,5 C 22,0 km/h (4 Bft) 100 %
21.04.2017 23:56 9,5 C 76 % 1022,8 hPa 0,0 l/m 7,3 km/h (2 Bft) W 265 5,5 C 12,6 km/h (3 Bft) 100 %
21.04.2017 23:57 9,4 C 76 % 1022,8 hPa 0,0 l/m 4,4 km/h (1 Bft) NW 322 5,4 C 6,3 km/h (2 Bft) 100 %
21.04.2017 23:58 9,4 C 76 % 1022,8 hPa 0,0 l/m 8,3 km/h (2 Bft) W-NW 302 5,4 C 12,6 km/h (3 Bft) 100 %
21.04.2017 23:59 9,4 C 76 % 1022,9 hPa 0,0 l/m 6,7 km/h (2 Bft) N 349 5,4 C 15,7 km/h (3 Bft) 96 %
_ Min-Zeit 04:34 12:57 23:55 - 00:00 - - 04:36 00:00 08:51
Minimum _ 1,7 C 59 % 1022,8 hPa - 0,0 km/h (0 Bft) - - -1,0 C 0,0 km/h (0 Bft) 92 %
_ Max-Zeit 14:33 04:11 00:00 00:00 21:14 - - 21:11 21:14 00:00
Maximum _ 12,8 C 83 % 1032,0 hPa 0,0 l/m 33,9 km/h
W (5 Bft)
- - 7,8 C 53,3 km/h
NW (7 Bft)
100 %
Durchschnitt _ 7,9 C 71 % 1027,6 hPa #0,0 l/m 5,8 km/h (2 Bft) W-NW - 2,9 C 11,3 km/h (2 Bft) 100 %